[[{"header":{"parameterUnit":"m.s-1","parameterCategory":1,"la1":30.6,"la2":29.2853,"lo1":-89.7004,"lo2":-87.6739,"dx":0.0162,"dy":0.0183,"nx":112,"ny":82,"refTime":"2022-12-12T18:00:00:Z","depth":0,"parameterNumber":2,"parameterNumberName":"U-component_of_WINDS"},"data":[0.0,0.0,0.0,0.0,0.0,0.0,0.0,0.0,0.0,0.0,0.0,0.0,0.0,0.0,0.0,0.0,0.0,0.0,0.0,0.0,0.0,0.0,0.0,0.0,0.0,0.0,0.0,0.0,0.0,0.0,0.0,0.0,0.0,0.0,0.0,0.0,0.0,0.0,0.0,0.0,0.0,0.0,0.0,0.0,0.0,0.0,0.0,0.0,0.0,0.0,0.0,0.0,0.0,0.0,0.0,0.0,0.0,0.0,0.0,0.0,0.0,0.0,0.0,0.0,0.0,0.0,0.0,0.0,0.0,0.0,0.0,0.0,0.0,0.0,0.0,0.0,0.0,0.0,0.0,0.0,0.0,0.0,0.0,0.0,0.0,0.0,0.0,0.0,0.0,0.0,-5.116,-5.0796,-5.417,-5.5773,-5.413,-5.4288,-5.1244,-4.3588,0.0,0.0,0.0,0.0,0.0,0.0,0.0,0.0,0.0,0.0,0.0,0.0,0.0,0.0,0.0,0.0,0.0,0.0,0.0,0.0,0.0,0.0,0.0,0.0,0.0,0.0,0.0,0.0,0.0,0.0,0.0,0.0,0.0,0.0,0.0,0.0,0.0,0.0,0.0,0.0,0.0,0.0,0.0,0.0,0.0,0.0,0.0,0.0,0.0,0.0,0.0,0.0,0.0,0.0,0.0,0.0,0.0,0.0,0.0,0.0,0.0,0.0,0.0,0.0,0.0,0.0,0.0,0.0,0.0,0.0,0.0,0.0,0.0,0.0,0.0,0.0,0.0,0.0,0.0,0.0,0.0,0.0,0.0,0.0,0.0,0.0,0.0,0.0,0.0,0.0,0.0,0.0,0.0,0.0,0.0,0.0,0.0,0.0,0.0,0.0,0.0,0.0,0.0,0.0,-5.0373,-5.5779,-5.6966,-5.7172,-5.6579,-5.5611,-5.2405,-4.6102,0.0,0.0,0.0,0.0,0.0,0.0,0.0,0.0,0.0,0.0,0.0,0.0,0.0,0.0,0.0,0.0,0.0,0.0,0.0,0.0,0.0,0.0,0.0,0.0,0.0,0.0,0.0,0.0,0.0,0.0,0.0,0.0,0.0,0.0,0.0,0.0,0.0,0.0,0.0,0.0,0.0,0.0,0.0,0.0,0.0,0.0,0.0,0.0,0.0,0.0,0.0,0.0,0.0,0.0,0.0,0.0,0.0,0.0,0.0,0.0,0.0,0.0,0.0,0.0,0.0,0.0,0.0,0.0,0.0,0.0,0.0,0.0,0.0,0.0,0.0,0.0,0.0,0.0,0.0,0.0,0.0,0.0,0.0,0.0,0.0,0.0,0.0,0.0,0.0,0.0,0.0,0.0,0.0,0.0,0.0,0.0,0.0,0.0,0.0,0.0,0.0,0.0,0.0,-5.0688,-5.3419,-5.9499,-5.9297,-5.8329,-5.7198,-5.6256,-5.2875,-4.6172,-4.346,0.0,0.0,0.0,0.0,0.0,0.0,0.0,0.0,0.0,0.0,0.0,0.0,0.0,0.0,0.0,0.0,0.0,0.0,0.0,0.0,0.0,0.0,0.0,0.0,0.0,0.0,0.0,0.0,0.0,0.0,0.0,0.0,0.0,0.0,0.0,0.0,0.0,0.0,0.0,0.0,0.0,0.0,0.0,0.0,0.0,0.0,0.0,0.0,0.0,0.0,0.0,0.0,0.0,0.0,0.0,0.0,0.0,0.0,0.0,0.0,0.0,0.0,0.0,0.0,0.0,0.0,0.0,0.0,0.0,0.0,0.0,0.0,0.0,0.0,0.0,0.0,0.0,0.0,0.0,0.0,0.0,0.0,0.0,0.0,0.0,0.0,0.0,0.0,0.0,0.0,0.0,0.0,0.0,0.0,0.0,0.0,0.0,0.0,0.0,0.0,0.0,0.0,-5.5824,-5.8076,-6.2013,-6.1069,-5.947,-5.7855,-5.6891,-5.3354,-4.6232,-4.4287,0.0,0.0,0.0,0.0,0.0,0.0,0.0,0.0,0.0,0.0,0.0,0.0,0.0,0.0,0.0,0.0,0.0,0.0,0.0,0.0,0.0,0.0,0.0,0.0,0.0,0.0,0.0,0.0,0.0,0.0,0.0,0.0,0.0,0.0,0.0,0.0,0.0,0.0,0.0,0.0,0.0,0.0,0.0,0.0,0.0,0.0,0.0,0.0,0.0,0.0,0.0,0.0,0.0,0.0,0.0,0.0,0.0,0.0,0.0,0.0,0.0,0.0,0.0,0.0,0.0,0.0,0.0,0.0,0.0,0.0,0.0,0.0,0.0,0.0,0.0,0.0,0.0,0.0,0.0,0.0,0.0,0.0,0.0,0.0,0.0,0.0,0.0,0.0,0.0,0.0,0.0,0.0,0.0,0.0,0.0,0.0,0.0,0.0,0.0,0.0,0.0,0.0,-5.9058,-6.3462,-6.2918,-6.1806,-6.0657,-5.9624,-5.7989,-5.4192,-4.7578,-4.4796,0.0,0.0,0.0,0.0,0.0,0.0,0.0,0.0,0.0,0.0,0.0,0.0,0.0,0.0,0.0,0.0,0.0,0.0,0.0,0.0,0.0,0.0,0.0,0.0,0.0,0.0,0.0,0.0,0.0,0.0,0.0,0.0,0.0,0.0,0.0,0.0,0.0,0.0,0.0,0.0,0.0,0.0,0.0,0.0,0.0,0.0,0.0,0.0,0.0,0.0,0.0,0.0,0.0,0.0,0.0,0.0,0.0,0.0,0.0,0.0,0.0,0.0,0.0,0.0,0.0,0.0,0.0,0.0,0.0,0.0,0.0,0.0,0.0,0.0,0.0,0.0,0.0,0.0,0.0,0.0,0.0,0.0,0.0,0.0,0.0,0.0,0.0,0.0,0.0,0.0,0.0,0.0,0.0,0.0,0.0,0.0,0.0,0.0,0.0,0.0,0.0,0.0,-5.8469,-6.2782,-6.3955,-6.337,-6.2492,-6.1383,-5.9336,-5.5145,-4.8129,0.0,0.0,0.0,0.0,0.0,0.0,0.0,0.0,0.0,0.0,0.0,0.0,0.0,0.0,0.0,0.0,0.0,0.0,0.0,0.0,0.0,0.0,0.0,0.0,0.0,0.0,0.0,0.0,0.0,0.0,0.0,0.0,0.0,0.0,0.0,0.0,0.0,0.0,0.0,0.0,0.0,0.0,0.0,0.0,0.0,0.0,0.0,0.0,0.0,0.0,0.0,0.0,0.0,0.0,0.0,0.0,0.0,0.0,0.0,0.0,0.0,0.0,0.0,0.0,0.0,0.0,0.0,0.0,0.0,0.0,0.0,0.0,0.0,0.0,0.0,0.0,0.0,0.0,0.0,0.0,0.0,0.0,0.0,0.0,0.0,0.0,0.0,0.0,0.0,0.0,0.0,0.0,0.0,0.0,0.0,0.0,0.0,0.0,0.0,0.0,0.0,0.0,-5.3632,-5.9231,-6.3738,-6.6137,-6.5753,-6.4835,-6.3594,-6.1671,-5.7104,-4.901,0.0,0.0,0.0,0.0,0.0,0.0,0.0,0.0,0.0,0.0,0.0,0.0,0.0,0.0,0.0,0.0,0.0,0.0,0.0,0.0,0.0,0.0,0.0,0.0,0.0,0.0,0.0,0.0,0.0,0.0,0.0,0.0,0.0,0.0,0.0,0.0,0.0,0.0,0.0,0.0,0.0,0.0,0.0,0.0,0.0,0.0,0.0,0.0,0.0,0.0,0.0,0.0,0.0,0.0,0.0,0.0,0.0,0.0,0.0,0.0,0.0,0.0,0.0,0.0,0.0,0.0,0.0,0.0,0.0,0.0,0.0,0.0,0.0,0.0,0.0,0.0,0.0,0.0,0.0,0.0,0.0,0.0,0.0,0.0,0.0,0.0,0.0,0.0,0.0,0.0,0.0,0.0,0.0,0.0,0.0,0.0,0.0,0.0,0.0,0.0,0.0,0.0,-5.5317,-6.1971,-6.738,-6.9533,-6.8749,-6.7538,-6.6145,-6.513,-6.0297,0.0,0.0,0.0,0.0,0.0,0.0,0.0,0.0,0.0,0.0,0.0,0.0,0.0,0.0,0.0,0.0,0.0,0.0,0.0,0.0,0.0,0.0,0.0,0.0,0.0,0.0,0.0,0.0,0.0,0.0,0.0,0.0,0.0,0.0,0.0,0.0,0.0,0.0,0.0,0.0,0.0,0.0,0.0,0.0,0.0,0.0,0.0,0.0,0.0,0.0,0.0,0.0,0.0,0.0,0.0,0.0,0.0,0.0,0.0,0.0,0.0,0.0,0.0,0.0,0.0,0.0,0.0,0.0,0.0,0.0,0.0,0.0,0.0,0.0,0.0,0.0,0.0,0.0,0.0,0.0,0.0,0.0,0.0,0.0,0.0,0.0,0.0,0.0,0.0,0.0,0.0,0.0,0.0,0.0,0.0,0.0,0.0,0.0,0.0,0.0,0.0,0.0,0.0,-5.535,-6.2908,-6.8109,-6.8241,-6.839,-6.8346,-6.7918,-6.6452,-6.1791,-5.3025,0.0,0.0,0.0,0.0,0.0,0.0,0.0,0.0,0.0,0.0,0.0,0.0,0.0,0.0,0.0,0.0,0.0,0.0,0.0,0.0,0.0,0.0,0.0,0.0,0.0,0.0,0.0,0.0,0.0,0.0,0.0,0.0,0.0,0.0,0.0,0.0,0.0,0.0,0.0,0.0,0.0,0.0,0.0,0.0,0.0,0.0,0.0,0.0,0.0,0.0,0.0,0.0,0.0,0.0,0.0,0.0,0.0,0.0,0.0,0.0,0.0,0.0,0.0,0.0,0.0,0.0,0.0,0.0,0.0,0.0,0.0,0.0,0.0,0.0,0.0,0.0,0.0,0.0,0.0,0.0,0.0,0.0,0.0,0.0,0.0,0.0,0.0,0.0,0.0,0.0,0.0,0.0,0.0,0.0,0.0,0.0,0.0,0.0,0.0,0.0,0.0,0.0,-5.5852,-6.3703,-6.9202,-6.9368,-6.9765,-6.9898,-6.9599,-6.8579,-6.4689,-5.7051,0.0,0.0,0.0,0.0,0.0,0.0,0.0,0.0,0.0,0.0,0.0,0.0,0.0,0.0,0.0,0.0,0.0,0.0,0.0,0.0,0.0,0.0,0.0,0.0,0.0,0.0,0.0,0.0,0.0,0.0,0.0,0.0,0.0,0.0,0.0,0.0,0.0,0.0,0.0,0.0,0.0,0.0,0.0,0.0,0.0,0.0,0.0,0.0,0.0,0.0,0.0,0.0,0.0,0.0,0.0,0.0,0.0,0.0,0.0,0.0,0.0,0.0,0.0,0.0,0.0,0.0,0.0,0.0,0.0,0.0,0.0,0.0,0.0,0.0,0.0,0.0,0.0,0.0,0.0,0.0,0.0,0.0,0.0,0.0,0.0,0.0,0.0,0.0,0.0,0.0,0.0,0.0,0.0,0.0,0.0,0.0,0.0,0.0,0.0,0.0,0.0,0.0,-5.6581,-6.4465,-7.0428,-7.1852,-7.2051,-7.1819,-7.1156,-7.1024,-6.8274,-6.1815,0.0,0.0,0.0,0.0,0.0,0.0,0.0,0.0,0.0,0.0,0.0,0.0,0.0,0.0,0.0,0.0,0.0,0.0,0.0,0.0,0.0,0.0,0.0,0.0,0.0,0.0,0.0,0.0,0.0,0.0,0.0,0.0,0.0,0.0,0.0,0.0,0.0,0.0,0.0,0.0,0.0,0.0,0.0,0.0,0.0,0.0,0.0,0.0,0.0,0.0,0.0,0.0,0.0,0.0,0.0,0.0,0.0,0.0,0.0,0.0,-4.9906,-4.5482,0.0,0.0,0.0,0.0,0.0,0.0,0.0,0.0,0.0,0.0,0.0,0.0,0.0,0.0,0.0,0.0,0.0,0.0,0.0,0.0,0.0,0.0,0.0,0.0,0.0,0.0,0.0,0.0,0.0,0.0,0.0,0.0,0.0,0.0,0.0,0.0,0.0,0.0,0.0,0.0,-5.721,-6.5227,-7.1024,-7.1918,-7.2515,-7.2813,-7.2647,-7.2117,-6.9467,-6.4034,-6.2113,0.0,0.0,0.0,0.0,0.0,0.0,0.0,0.0,0.0,0.0,0.0,0.0,0.0,0.0,0.0,0.0,0.0,0.0,0.0,0.0,0.0,0.0,0.0,0.0,0.0,0.0,0.0,0.0,0.0,0.0,0.0,0.0,0.0,0.0,0.0,0.0,0.0,0.0,0.0,0.0,0.0,0.0,0.0,0.0,0.0,0.0,0.0,0.0,0.0,0.0,0.0,0.0,0.0,0.0,0.0,0.0,0.0,0.0,0.0,-5.3238,-5.0629,0.0,0.0,0.0,0.0,0.0,0.0,0.0,0.0,0.0,0.0,0.0,0.0,0.0,0.0,0.0,0.0,0.0,0.0,0.0,0.0,0.0,0.0,0.0,0.0,0.0,0.0,0.0,0.0,0.0,0.0,0.0,0.0,0.0,0.0,0.0,0.0,0.0,0.0,0.0,0.0,-5.8038,-6.632,-7.225,-7.2978,-7.3376,-7.3773,-7.4138,-7.3807,-7.215,-6.8771,-6.5513,0.0,0.0,0.0,0.0,0.0,0.0,0.0,0.0,0.0,0.0,0.0,0.0,0.0,0.0,0.0,0.0,0.0,0.0,0.0,0.0,0.0,0.0,0.0,0.0,0.0,0.0,0.0,0.0,0.0,0.0,0.0,0.0,0.0,0.0,0.0,0.0,0.0,0.0,0.0,0.0,0.0,0.0,0.0,0.0,0.0,0.0,0.0,0.0,0.0,0.0,0.0,0.0,0.0,-5.5751,-5.6664,-5.7601,-5.7061,-5.8807,-6.1998,-5.6869,-5.6759,-5.9657,-5.1626,0.0,0.0,0.0,0.0,0.0,0.0,0.0,0.0,0.0,0.0,0.0,0.0,0.0,0.0,0.0,0.0,0.0,0.0,0.0,0.0,0.0,0.0,-5.4328,-5.4427,-5.6779,-5.7641,-5.297,0.0,0.0,0.0,0.0,0.0,0.0,0.0,0.0,0.0,0.0,0.0,-6.0092,-6.7943,-7.3608,-7.4436,-7.4535,-7.48,-7.5397,-7.5463,-7.49,-7.3575,-6.881,-6.5071,0.0,0.0,0.0,0.0,0.0,0.0,0.0,0.0,0.0,0.0,0.0,0.0,0.0,0.0,0.0,0.0,0.0,0.0,0.0,0.0,0.0,0.0,0.0,0.0,0.0,0.0,0.0,0.0,0.0,0.0,0.0,0.0,-5.2689,-5.3224,0.0,0.0,0.0,0.0,0.0,0.0,0.0,0.0,0.0,0.0,0.0,0.0,0.0,-5.3667,-5.4616,-5.8673,-6.0448,-5.9905,-6.3928,-6.5514,-6.4933,-6.5356,-6.5811,-6.6196,-6.5364,0.0,-5.9924,-5.7456,0.0,0.0,0.0,0.0,0.0,0.0,0.0,0.0,0.0,0.0,0.0,0.0,0.0,0.0,0.0,0.0,0.0,0.0,0.0,0.0,0.0,0.0,-6.2013,-6.2685,-6.3173,-6.3471,-6.3305,-5.7243,-5.1514,-5.0387,-5.1115,-5.0419,0.0,0.0,0.0,0.0,0.0,0.0,-6.5624,-7.0891,-7.4535,-7.5894,-7.6026,-7.6059,-7.6159,-7.6192,-7.5827,-7.5032,-7.427,-7.1156,-6.5227,-6.3593,0.0,0.0,0.0,0.0,0.0,0.0,0.0,0.0,0.0,0.0,0.0,0.0,0.0,0.0,0.0,0.0,0.0,0.0,0.0,0.0,0.0,0.0,0.0,0.0,0.0,0.0,0.0,0.0,0.0,-5.0274,-5.2242,-5.3139,-5.166,-4.9835,0.0,0.0,0.0,0.0,0.0,0.0,0.0,0.0,0.0,-5.8701,-5.8664,-5.9735,-6.2259,-6.4323,-6.4975,-6.4215,-6.6691,-6.7836,-6.776,-6.8022,-6.8291,-6.8529,-6.7548,-6.6199,-6.4465,-6.0689,-5.7309,-5.4235,0.0,0.0,0.0,0.0,-5.1636,-5.2355,-5.5813,-5.6752,-5.632,-5.5518,0.0,0.0,0.0,0.0,0.0,0.0,0.0,-5.35,-5.7906,-6.0523,-6.2742,-6.5558,-6.622,-6.6287,-6.6585,-6.3637,-5.9993,-5.6812,-5.5355,-5.3036,-4.7901,-4.9955,0.0,0.0,0.0,-6.367,-6.7711,-7.2415,-7.5794,-7.6821,-7.692,-7.7119,-7.7517,-7.755,-7.7252,-7.6523,-7.6092,-7.437,-7.109,-6.7479,-6.2908,0.0,0.0,0.0,0.0,0.0,0.0,0.0,0.0,0.0,0.0,0.0,0.0,0.0,0.0,0.0,0.0,0.0,0.0,0.0,0.0,0.0,0.0,0.0,0.0,0.0,0.0,0.0,0.0,-5.189,-5.3141,-5.3809,-5.3714,-5.2399,0.0,0.0,0.0,0.0,0.0,0.0,-5.772,-5.7541,-5.9419,-6.3782,-6.3665,-6.4975,-6.7981,-6.8416,-6.8199,-6.7402,-6.8235,-6.8723,-6.893,-6.911,-6.9413,-6.9725,-6.8633,-6.832,-6.8309,-6.3239,-6.0799,-5.9943,-5.6679,-5.5076,-5.4702,-5.5909,-5.6267,-5.6597,-5.9964,-6.097,-6.071,-6.0309,-5.9713,-5.8666,-5.5928,0.0,0.0,0.0,0.0,-5.6614,-6.0854,-6.2378,-6.3637,-6.7082,-6.8042,-6.8241,-6.8407,-6.8009,-6.6552,-6.2941,-6.0622,-5.774,-5.3003,-5.5487,0.0,-5.5719,-6.1914,-6.7811,-7.056,-7.4237,-7.6887,-7.7616,-7.7682,-7.7914,-7.8477,-7.8511,-7.8279,-7.7749,-7.7185,-7.6457,-7.5562,-7.1355,-6.7811,-6.526,0.0,0.0,0.0,0.0,0.0,0.0,0.0,0.0,0.0,0.0,0.0,0.0,0.0,0.0,0.0,0.0,0.0,0.0,0.0,0.0,0.0,0.0,0.0,0.0,0.0,0.0,0.0,0.0,0.0,-5.7833,-5.9265,0.0,0.0,0.0,0.0,-5.6173,-5.677,-5.8823,-6.2631,-6.2821,-6.4315,-6.7613,-6.7692,-6.78,-6.8017,-6.9502,-6.9865,-6.9098,-6.9895,-6.9803,-6.893,-6.9688,-6.9917,-6.9829,-7.0389,-7.0198,-6.9173,-6.5696,-6.3064,-6.1082,-5.9353,-5.7393,-5.5795,-5.7951,-5.9569,-6.1094,-6.3415,-6.4564,-6.4962,-6.431,-6.2107,-5.9843,-6.055,-5.865,0.0,0.0,-6.1227,-6.2577,-6.6287,-6.7235,-6.7512,-6.844,-6.9169,-6.9864,-7.0593,-6.9103,-6.7744,-6.8175,-6.8705,-6.7877,-6.4133,0.0,-6.5359,-6.6618,-6.7202,-6.9864,-7.6159,-7.7185,-7.7649,-7.8378,-7.8444,-7.8477,-7.8511,-7.8511,-7.8511,-7.8477,-7.8444,-7.7782,-7.6324,-7.596,-7.3177,-6.7579,-6.5823,0.0,0.0,0.0,0.0,0.0,0.0,0.0,0.0,0.0,0.0,0.0,0.0,0.0,0.0,0.0,0.0,0.0,0.0,0.0,0.0,0.0,0.0,0.0,0.0,0.0,0.0,0.0,0.0,-5.8495,-6.0234,0.0,-5.8238,-5.9466,-6.0731,-6.1531,-6.3646,-6.5547,-6.6997,-6.7069,-6.78,-6.9502,-6.9539,-6.9539,-6.9539,-7.0082,-7.0004,-6.9207,-7.004,-7.0227,-6.9911,-7.064,-7.1223,-7.1665,-7.1827,-7.1991,-7.2044,-7.0191,-6.7592,-6.4636,-6.3508,-6.261,-6.208,-6.3511,-6.4264,-6.4763,-6.6201,-6.6754,-6.6784,-6.6552,-6.5725,-6.4837,-6.5234,-6.4524,-6.3862,-6.4973,-6.5492,-6.6187,-6.844,-6.9036,-6.9334,-7.0527,-7.1024,-7.1289,-7.1554,-7.1451,-7.15,-7.2131,-7.0163,-6.7844,-6.6022,-6.8705,-7.0428,-6.8606,-7.1521,-7.4767,-7.7119,-7.7815,-7.8212,-7.8477,-7.8511,-7.8511,-7.8511,-7.8511,-7.8511,-7.8511,-7.8511,-7.8279,-7.7749,-7.7285,-7.5827,-7.3276,-7.225,-6.738,0.0,0.0,0.0,0.0,0.0,0.0,0.0,0.0,0.0,0.0,0.0,0.0,0.0,0.0,0.0,0.0,0.0,0.0,0.0,0.0,0.0,0.0,0.0,0.0,0.0,-5.8414,-6.0595,-5.8989,-6.1897,-6.3092,-6.0665,-6.3345,-6.5555,-6.6351,-6.841,-6.9714,-6.9937,-6.9973,-7.0227,-7.0734,-7.077,-7.077,-7.077,-7.077,-7.0625,-7.0372,-7.0915,-7.1313,-7.1603,-7.211,-7.2617,-7.3092,-7.2929,-7.3188,-7.3627,-7.2549,-7.0702,-6.8389,-6.7251,-6.6809,-6.6876,-6.7588,-6.7524,-6.7267,-6.8138,-6.8439,-6.8493,-6.8775,-6.8853,-6.8815,-6.8815,-6.8572,-6.8341,-6.8341,-6.8341,-6.8639,-6.9864,-7.0163,-7.0461,-7.172,-7.2382,-7.2746,-7.2746,-7.3878,-7.5012,-7.5372,-7.2653,-7.0176,-6.9879,-7.2647,-7.3807,-7.0659,-7.4303,-7.7152,-7.6424,-7.7616,-7.8511,-7.8511,-7.8511,-7.8511,-7.8511,-7.7152,-7.6954,-7.8444,-7.7152,-7.6987,-7.8444,-7.6622,-7.5363,-7.4867,-7.3906,-6.9599,-6.1815,0.0,0.0,0.0,0.0,0.0,0.0,0.0,0.0,0.0,0.0,0.0,0.0,0.0,0.0,0.0,0.0,0.0,0.0,0.0,0.0,0.0,0.0,0.0,-5.9246,-6.0102,-6.0738,-5.9977,-6.4722,-6.7148,-6.4794,-6.7431,-6.9605,-7.0408,-7.0444,-7.077,-7.1531,-7.1598,-7.1598,-7.1598,-7.1598,-7.1598,-7.1598,-7.1567,-7.1965,-7.2762,-7.2762,-7.316,-7.3921,-7.3921,-7.3888,-7.3925,-7.3829,-7.3763,-7.3696,-7.2656,-7.2225,-7.2078,-7.0349,-6.9651,-6.9651,-6.9685,-6.9237,-6.8629,-6.9184,-6.9712,-7.0313,-7.1179,-7.1354,-7.1255,-7.121,-7.0608,-6.9846,-6.9912,-6.9831,-6.9997,-7.0792,-7.0991,-7.1189,-7.1951,-7.321,-7.4288,-7.4288,-7.6256,-7.7972,-7.8006,-7.6821,-7.5893,-7.635,-7.6376,-7.5713,-7.3575,-7.5662,0.0,-7.4568,-7.6807,-7.8477,-7.8378,-7.8431,-7.8431,-7.8378,-7.4502,-7.3906,-7.8246,-7.4535,-7.4105,-7.8345,-7.4469,-7.2216,-7.2216,-7.0626,-6.9136,-6.7632,0.0,0.0,0.0,0.0,0.0,0.0,0.0,0.0,0.0,0.0,0.0,0.0,0.0,0.0,0.0,0.0,0.0,0.0,0.0,0.0,0.0,-6.0877,-6.273,-6.1483,-6.4328,-6.6326,-6.5757,-6.7583,-6.8814,-6.8742,-6.9539,-7.0625,-7.1965,-7.2074,-7.24,-7.3197,-7.3093,-7.3287,-7.3873,-7.3324,-7.3324,-7.3873,-7.3452,-7.3378,-7.3595,-7.3595,-7.3704,-7.3921,-7.3921,-7.4247,-7.4757,-7.4724,-7.505,-7.5556,-7.5284,-7.5145,-7.4828,-7.1753,-7.0516,-7.0625,-7.13,-7.1735,-7.1967,-7.1294,-7.1551,-7.2104,-7.232,-7.2409,-7.2347,-7.2233,-7.1638,-7.1074,-7.1585,-7.1136,-7.0991,-7.2813,-7.3276,-7.3575,-7.4833,-7.543,-7.59,-7.6725,-7.7924,-7.9081,-7.9677,-7.9994,-7.9776,-7.8486,-7.8253,-7.795,-7.7125,-7.7715,-7.8014,-7.7384,-7.8682,-7.8502,-7.5665,-7.6567,-7.6811,-7.5517,-7.4771,-7.5556,-7.8312,-7.7384,-7.7252,-7.8477,-7.7351,-7.6722,-7.6722,-7.268,-7.0129,0.0,0.0,0.0,0.0,0.0,0.0,0.0,0.0,0.0,0.0,0.0,0.0,0.0,0.0,0.0,0.0,0.0,0.0,0.0,0.0,0.0,0.0,-6.4324,-6.6086,-6.5902,-6.7723,-6.9041,-6.8823,-6.9529,-7.0241,-7.0801,-7.1168,-7.1748,-7.2653,-7.3016,-7.3414,-7.3885,-7.4336,-7.4808,-7.5278,-7.4845,-7.4808,-7.5315,-7.4383,-7.4102,-7.4395,-7.4395,-7.4609,-7.4899,-7.4899,-7.5152,-7.5623,-7.5623,-7.5877,-7.6275,-7.6275,-7.6275,-7.6032,0.0,0.0,0.0,0.0,-7.3343,-7.3846,-7.3287,-7.3456,-7.4057,-7.4413,-7.4506,-7.4456,-7.4413,-7.3438,-7.2462,-7.2814,-7.2386,-7.2183,-7.3824,-7.4453,-7.4933,-7.6026,-7.6556,-7.7067,-7.8116,-7.9344,-8.0536,-8.14,-8.2357,0.0,-8.0961,-8.0005,-7.8926,-7.7529,-7.8032,-7.808,-7.6854,-7.8638,-7.9112,-7.686,-7.8,-7.8473,-7.7405,-7.56,0.0,0.0,0.0,-7.5794,-7.5794,-7.5794,0.0,0.0,0.0,-7.2051,-7.3442,-7.0461,0.0,0.0,-6.6883,-6.6287,0.0,0.0,0.0,0.0,0.0,0.0,0.0,0.0,0.0,0.0,0.0,0.0,0.0,0.0,0.0,0.0,-6.7833,-7.0563,-7.0858,-7.0492,-7.0152,-7.0046,-7.0807,-7.1421,-7.163,-7.2291,-7.2798,-7.2979,-7.3631,-7.4102,-7.4175,-7.5353,0.0,0.0,0.0,-7.6019,-7.616,-7.4856,-7.4537,-7.5228,-7.5228,-7.5623,-7.6275,-7.6275,-7.6275,-7.6275,-7.6275,-7.6275,-7.6311,-7.6384,-7.6492,-7.6461,-7.5549,-7.5227,-7.5118,-7.437,-7.4482,-7.5043,-7.5075,0.0,0.0,-7.6805,-7.7052,-7.6982,-7.6976,-7.5624,-7.408,-7.4218,-7.3905,-7.3658,-7.4556,-7.5185,-7.5746,-7.639,-7.7053,-7.7832,-7.9042,-8.0501,-8.1932,-8.3059,-8.3996,-8.4326,-8.341,-8.1629,-7.9439,-7.6775,-7.7816,-7.7918,-7.5372,-7.8168,-8.017,-7.9732,-8.072,0.0,-8.1133,-7.677,-7.5769,-7.9735,-7.5406,-7.2746,-7.2746,-7.2746,-7.2746,-7.2746,-7.2746,-7.4701,-7.8643,-7.8643,-7.9041,-7.9537,-7.0361,-6.8639,0.0,0.0,0.0,0.0,0.0,0.0,0.0,0.0,0.0,0.0,0.0,0.0,0.0,0.0,0.0,-6.591,-6.9142,-7.1422,-7.1456,-7.249,-7.2692,-7.1192,-7.17,-7.2263,-7.2463,-7.2617,-7.3233,-7.454,-7.4757,-7.5152,-7.5804,-7.5943,-7.6283,-7.6937,-7.6319,-7.6283,-7.6974,-7.6239,-7.5913,-7.6058,-7.6058,0.0,-7.6275,-7.6275,-7.6275,-7.6275,-7.6275,-7.6275,-7.6348,-7.7,-7.7651,-7.8086,-7.6646,-7.6072,-7.6041,-7.5869,-7.6302,-7.6944,-7.6909,-7.734,-7.7883,-7.8062,-7.8099,-7.8062,-7.8034,-7.7288,0.0,-7.7606,-7.6839,-7.6048,-7.7659,-7.7731,-7.7533,-7.7967,-7.8212,-7.8774,-8.0726,-8.1358,-8.2118,-8.3954,-8.4486,-8.4527,-8.4326,-8.3323,-8.2048,-8.0669,-8.0748,-8.0823,-8.0241,-8.1551,-8.1283,-7.8064,-7.9219,-7.9633,-7.8183,-7.7693,-7.8197,-7.9903,-7.8278,-7.7252,-7.7252,-7.7252,-7.7252,-7.7252,-7.7252,-7.798,-7.9405,-7.9405,-7.9769,-8.0432,-7.7881,-7.7848,0.0,0.0,0.0,0.0,0.0,0.0,0.0,0.0,0.0,0.0,0.0,-5.9029,-6.1716,0.0,-6.6254,-6.8776,-7.061,-7.1969,-7.2796,-7.3601,-7.3492,-7.1886,-7.2405,-7.2851,-7.2713,-7.3088,-7.3812,-7.5011,-7.577,-7.6327,-7.6728,-7.7208,-7.7682,-7.809,-7.7719,-7.7543,-7.7636,-7.704,-7.6603,-7.6275,-7.6275,-7.6275,-7.6275,-7.6275,-7.6275,-7.6275,-7.6275,-7.6529,-7.6963,-7.776,-7.834,-7.8629,-7.7796,-7.7507,-7.7509,-7.7486,-7.7773,-7.8124,-7.8063,-7.8531,-7.9141,-7.9141,-7.943,-7.9756,-7.9716,-7.9265,-7.8938,-7.9546,-7.9208,-7.881,-7.9254,-7.9377,-7.9382,-7.9479,-7.9495,-8.0023,-8.1932,-8.2348,-8.2836,-8.4326,-8.461,-8.461,-8.461,-8.4165,-8.3532,-8.2485,-8.1932,-8.1603,-8.1603,-8.2485,-8.2339,-8.0368,-8.1414,-8.1896,-8.0957,-8.0829,-8.0802,-8.0795,-8.034,-8.0073,-8.0073,-7.9513,-7.9422,-7.9824,-7.9309,-7.9438,-8.0167,-8.0167,-8.0531,-8.1227,-8.0863,-8.1094,0.0,0.0,0.0,0.0,0.0,0.0,0.0,-5.3282,-5.4394,-5.8614,-6.0349,-6.2071,-6.514,-6.6776,-6.8547,-7.1259,-7.1947,-7.2673,-7.401,-7.4285,-7.3915,-7.2712,-7.3081,-7.332,-7.3146,-7.3619,-7.4352,-7.5458,-7.6554,-7.7255,-7.7376,-7.8282,-7.8816,-7.8816,-7.8816,-7.8611,-7.809,-7.7526,-7.6951,-7.6475,-7.6342,-7.6275,-7.6275,-7.6275,-7.6275,-7.6311,-7.6456,-7.7072,-7.8014,-7.8666,-7.9028,-7.9173,-7.9173,-7.9173,-7.9136,-7.8992,-7.8919,-7.8955,-7.91,-7.9607,-8.0151,-8.0151,-8.0585,-8.1128,-8.1309,-8.1121,-8.0899,-8.1145,-8.1372,-8.1364,-8.0662,-8.0802,-8.1091,-8.0883,-8.0834,-8.1235,-8.2855,-8.32,-8.3454,-8.445,-8.461,-8.461,-8.461,-8.461,-8.4326,-8.3497,-8.2666,-8.2164,-8.2164,-8.289,-8.3367,-8.3367,-8.4123,-8.461,-8.461,-8.3662,-8.2756,-8.1932,-8.1698,-8.1603,-8.1603,-8.0751,-8.0546,-8.1071,-8.0287,-8.0252,-8.0896,-8.0896,-8.1293,-8.2022,-8.2022,-8.2022,-5.4472,-5.3763,-5.4611,-5.5949,-5.5812,-5.7191,0.0,-6.2965,-6.1737,-6.6219,-6.7599,-6.8261,-6.9095,-7.0296,-7.1259,-7.1642,-7.2941,-7.401,-7.4163,-7.4851,-7.5055,-7.4308,-7.3757,-7.3729,-7.4559,-7.4191,-7.476,-7.682,-7.7127,-7.7436,-7.7951,-7.8118,-7.8173,-7.8173,-7.8173,-7.8146,-7.809,-7.7526,-7.7163,-7.7071,-7.6538,-7.6275,-7.6275,-7.6275,-7.6275,-7.6348,-7.7036,-7.8231,-7.9643,-7.9752,-8.0187,-8.0839,-8.0839,-8.0839,-8.0766,-8.0042,-7.9788,-7.9861,-8.0585,-8.0911,-8.0984,-8.0984,-8.1056,-8.1237,-8.1925,-8.2106,-8.2358,-8.354,-8.3467,-8.3034,-8.3203,-8.2804,-8.2335,-8.2072,-8.1979,-8.23,-8.3391,-8.3513,-8.3634,-8.4661,-8.4697,-8.461,-8.461,-8.461,-8.4569,-8.445,-8.4326,-8.4284,-8.4284,-8.4368,-8.4409,-8.4409,-8.4527,-8.461,-8.461,-8.3662,-8.3024,-8.2935,-8.2118,-8.1603,-8.1603,-8.1509,-8.1322,-8.1122,-8.1002,-8.1168,-8.1658,-8.1658,-8.2055,-8.2784,-8.2784,-8.2784,-6.1543,-6.0154,-5.9115,-6.0497,-6.0811,-6.149,-6.4572,-6.4325,-6.4429,-6.8076,-6.9176,-6.9735,-7.0384,-7.1172,-7.2024,-7.3017,-7.3743,-7.4393,-7.4889,-7.5271,-7.5583,-7.5761,-7.5178,-7.481,-7.488,-7.4822,-7.5434,-7.709,-7.7555,-7.7979,-7.8611,-7.8979,-7.9126,-7.9126,-7.9126,-7.8979,-7.8637,-7.8363,-7.7894,-7.7194,-7.6951,-7.6636,-7.6275,-7.6275,-7.6565,-7.7036,-7.7833,-7.8847,-7.9933,-8.0404,-8.0802,-8.1128,-8.1128,-8.1128,-8.1056,-8.073,-8.0621,-8.0658,-8.0984,-8.1128,-8.1128,-8.1128,-8.1128,-8.1273,-8.2034,-8.2613,-8.3229,-8.424,-8.4665,-8.4676,-8.4242,-8.3861,-8.3606,-8.3391,-8.3305,-8.3521,-8.439,-8.4508,-8.4544,-8.4823,-8.4819,-8.4773,-8.461,-8.461,-8.461,-8.461,-8.461,-8.461,-8.461,-8.461,-8.461,-8.461,-8.461,-8.461,-8.461,-8.4242,-8.3996,-8.3996,-8.3576,-8.3358,-8.3358,-8.2756,-8.2813,-8.3534,-8.2376,-8.2282,-8.3402,-8.2722,-8.2585,-8.2883,-8.2883,-8.3148,-6.4313,-6.365,-6.2603,-6.3472,-6.4582,-6.5395,-6.5098,-6.5501,-6.6568,-6.8821,-6.9564,-7.0081,-7.1028,-7.1662,-7.252,-7.3972,-7.4393,-7.4851,-7.5692,-7.5806,-7.615,-7.6953,-7.6766,-7.6346,-7.5851,-7.5853,-7.638,-7.7649,-7.8118,-7.8611,-7.9198,-7.9645,-7.9898,-7.9898,-7.9898,-7.9705,-7.9222,-7.9077,-7.8548,-7.7694,-7.7376,-7.6983,-7.6574,-7.6629,-7.7072,-7.7869,-7.8666,-7.9499,-8.0295,-8.0875,-8.1128,-8.1128,-8.1128,-8.1128,-8.1128,-8.1128,-8.1128,-8.1128,-8.1128,-8.1128,-8.1128,-8.1128,-8.1273,-8.1563,-8.236,-8.3193,-8.399,-8.4786,-8.5438,-8.5721,-8.4992,-8.4832,-8.4792,-8.463,-8.459,-8.4711,-8.5297,-8.5336,-8.5258,-8.5064,-8.502,-8.494,-8.4814,-8.4733,-8.4692,-8.4692,-8.4651,-8.461,-8.461,-8.461,-8.461,-8.461,-8.461,-8.461,-8.461,-8.461,-8.461,-8.461,-8.461,-8.461,-8.461,-8.4088,-8.4318,-8.527,-8.3773,-8.3345,-8.42,-8.311,-8.2684,-8.2883,-8.2883,-8.3413,-5.9039,-6.0841,-6.31,-6.3968,-6.6558,-6.8956,-6.8919,-6.8956,-6.9122,-6.9682,-6.9816,-7.0174,-7.146,-7.2367,-7.3246,-7.4049,-7.4889,-7.573,-7.6532,-7.6647,-7.6991,-7.787,-7.8232,-7.8355,-7.8104,-7.7442,-7.7588,-7.8938,-7.9015,-7.926,-7.9854,-7.9898,-7.9898,-7.9898,-7.9898,-7.9898,-7.9876,-7.9307,-7.8966,-7.8916,-7.7752,-7.7194,-7.7169,-7.7374,-7.7905,-7.8702,-7.9499,-8.0332,-8.1092,-8.1092,-8.1128,-8.1128,-8.1128,-8.1128,-8.1128,-8.1128,-8.1128,-8.1128,-8.1128,-8.1128,-8.1128,-8.1128,-8.1635,-8.2396,-8.3193,-8.4026,-8.4823,-8.5619,-8.5873,-8.5909,-8.5835,-8.5835,-8.5835,-8.5871,-8.5871,-8.5835,-8.5835,-8.5685,-8.5495,-8.5495,-8.53,-8.5179,-8.5179,-8.502,-8.49,-8.49,-8.4697,-8.461,-8.461,-8.461,-8.461,-8.461,-8.461,-8.461,-8.461,-8.461,-8.461,-8.461,-8.461,-8.461,-8.461,-8.5318,-8.5607,-8.5315,-8.4972,-8.4351,-8.3422,-8.2364,-8.2188,-8.2883,-8.2883,-8.3678,-6.1766,-6.3626,-6.5445,-6.7411,-6.8515,-6.9176,-6.9504,-6.9564,-6.9682,-7.0126,-6.932,-6.8874,-6.9868,-7.0724,-7.1565,-7.2406,-7.4201,-7.5768,-7.657,-7.6685,-7.722,-7.8672,-7.8942,-7.9228,-7.9684,-7.8766,-7.8466,-7.9204,-7.9147,-7.959,-8.0743,-8.0737,-8.0959,-8.1527,-8.1565,-8.1262,-8.0694,-8.05,-7.9929,-7.9004,-7.778,-7.7014,-7.6639,-7.721,-7.7941,-7.8738,-7.9571,-8.0368,-8.1128,-8.1128,-8.1128,-8.1128,-8.1128,-8.1128,-8.1128,-8.1128,-8.1128,-8.1128,-8.1128,-8.1128,-8.1201,-8.1708,-8.207,-8.2577,-8.3881,-8.4497,-8.4859,-8.5656,-8.5909,-8.5909,-8.5909,-8.5909,-8.5909,-8.5909,-8.5909,-8.5909,-8.5909,-8.5835,-8.5685,-8.5533,-8.5339,-8.5179,-8.502,-8.4819,-8.4733,-8.4733,-8.4651,-8.461,-8.461,-8.461,-8.461,-8.461,-8.461,-8.461,-8.461,-8.461,-8.461,-8.461,-8.461,-8.461,-8.461,-8.486,-8.5193,-8.5607,-8.4848,-8.4188,-8.3647,-8.2592,-8.2072,-8.2188,-8.2651,-8.3678,-6.4076,-6.5661,-6.6847,-6.9373,-6.9797,-6.9625,-6.9965,-7.0019,-7.0091,-7.0369,-6.9082,-6.8165,-6.9043,-6.9846,-7.0572,-7.1145,-7.3361,-7.5424,-7.6532,-7.6685,-7.7449,-7.9474,-7.9704,-7.9933,-8.043,-7.9794,-7.9426,-7.9665,-7.9576,-8.0037,-8.1246,-8.122,-8.1534,-8.2361,-8.2399,-8.1982,-8.111,-8.111,-8.0394,-7.9004,-7.7979,-7.7194,-7.6639,-7.7534,-7.8195,-7.8774,-7.9861,-8.0621,-8.1128,-8.1128,-8.1128,-8.1128,-8.1128,-8.1128,-8.1128,-8.1128,-8.1128,-8.1165,-8.1418,-8.1527,-8.1672,-8.2468,-8.2903,-8.3338,-8.4388,-8.4895,-8.5221,-8.5764,-8.5909,-8.5909,-8.5909,-8.5909,-8.5909,-8.5909,-8.5909,-8.5909,-8.5909,-8.5909,-8.5835,-8.5685,-8.5531,-8.5375,-8.5143,-8.49,-8.4733,-8.4778,-8.4773,-8.4733,-8.4733,-8.4651,-8.461,-8.4733,-8.4651,-8.461,-8.461,-8.461,-8.461,-8.461,-8.461,-8.461,-8.461,-8.4895,-8.5288,-8.5787,-8.4987,-8.4354,-8.3958,-8.2544,-8.1989,-8.2364,-8.2687,-8.3844,-6.5605,-6.6789,-6.7439,-6.9807,-7.0419,-7.0419,-7.0419,-7.0419,-7.0342,-7.019,-6.8814,-6.7821,-6.8508,-6.9464,-7.0151,-7.0151,-7.2482,-7.4851,-7.6532,-7.6761,-7.7717,-8.02,-8.0506,-8.0506,-8.0506,-8.0506,-8.0468,-8.0411,-8.0313,-8.0611,-8.1343,-8.1398,-8.1773,-8.2497,-8.2497,-8.202,-8.1186,-8.1073,-8.0356,-7.8966,-7.84,-7.778,-7.7237,-7.8244,-7.8702,-7.8774,-8.0404,-8.1128,-8.1128,-8.1128,-8.1128,-8.1128,-8.1128,-8.1128,-8.1128,-8.1165,-8.1165,-8.1273,-8.2106,-8.236,-8.2432,-8.3265,-8.4062,-8.4714,-8.475,-8.5293,-8.5909,-8.5909,-8.5909,-8.5909,-8.5909,-8.5909,-8.5909,-8.5909,-8.5909,-8.5909,-8.5909,-8.5909,-8.5909,-8.5909,-8.5909,-8.5797,-8.5533,-8.5143,-8.498,-8.5179,-8.506,-8.494,-8.494,-8.4773,-8.4692,-8.49,-8.4733,-8.461,-8.461,-8.461,-8.461,-8.461,-8.461,-8.461,-8.461,-8.5324,-8.5752,-8.5752,-8.542,-8.4939,-8.4236,-8.2203,-8.1918,-8.325,-8.3043,-8.41,-6.6216,-6.805,-6.9616,-7.0266,-7.0419,-7.0419,-7.0419,-7.0419,-6.9693,-6.7209,-6.5337,-6.3465,-6.1211,-6.4,-6.6674,-6.6674,-7.145,-7.573,-7.7449,-7.7678,-7.8366,-8.0277,-8.0506,-8.0506,-8.0506,-8.0506,-8.0506,-8.0468,-8.0945,-8.1591,-8.2447,-8.2927,-8.3525,-8.4316,-8.3657,-8.2892,-8.2058,-8.0807,-7.9827,-7.8966,-7.84,-7.778,-7.7237,-7.8244,-7.8702,-7.8774,-8.0404,-8.1128,-8.1128,-8.1128,-8.1128,-8.1128,-8.1128,-8.1128,-8.1165,-8.178,-8.1998,-8.2179,-8.3591,-8.3301,-8.2505,-8.3917,-8.4533,-8.4786,-8.5402,-8.5728,-8.5909,-8.5909,-8.5909,-8.5909,-8.5909,-8.5909,-8.5909,-8.5909,-8.5909,-8.5909,-8.5909,-8.5909,-8.5909,-8.5909,-8.5759,-8.5531,-8.5336,-8.5218,-8.5139,-8.5179,-8.5179,-8.5139,-8.5139,-8.494,-8.4859,-8.49,-8.4733,-8.461,-8.461,-8.461,-8.461,-8.461,-8.461,-8.461,-8.461,-8.4824,-8.4931,-8.4931,-8.4824,-8.4329,-8.3384,-8.2855,-8.2542,-8.2525,-8.3524,-8.4467,-6.7897,-6.9349,-7.0419,-7.0419,-7.0419,-7.0113,-6.9043,-6.847,-6.7247,-6.3885,-6.186,-6.0026,-5.7734,-6.1745,-6.5261,-6.4917,-7.0533,-7.5501,-7.7182,-7.7449,-7.8175,-8.0277,-8.0506,-8.0506,-8.0506,-8.0506,-8.0659,-8.1041,-8.1442,-8.2033,-8.2871,-8.3548,-8.428,-8.4968,-8.4484,-8.3642,-8.2399,-8.0731,-7.9728,-7.9378,-7.8765,-7.8173,-7.7622,-7.8268,-7.8647,-7.8774,-8.0042,-8.0766,-8.1128,-8.1128,-8.1128,-8.1128,-8.1128,-8.1309,-8.1672,-8.2106,-8.2505,-8.2976,-8.4243,-8.4098,-8.3555,-8.4823,-8.5221,-8.5293,-8.5764,-8.5909,-8.5909,-8.5909,-8.5909,-8.5909,-8.5909,-8.5909,-8.5909,-8.5909,-8.5909,-8.5909,-8.5909,-8.5909,-8.5909,-8.5909,-8.5685,-8.5495,-8.5528,-8.5336,-8.5258,-8.5489,-8.5414,-8.5375,-8.5492,-8.5218,-8.506,-8.5143,-8.498,-8.4855,-8.4773,-8.4697,-8.4697,-8.4697,-8.4651,-8.4651,-8.4733,-8.4697,-8.4692,-8.461,-8.4692,-8.4409,-8.3748,-8.3675,-8.3334,-8.2853,-8.3952,-8.4698,-6.9807,-7.0419,-7.0419,-7.0419,-7.0419,-6.9769,-6.7286,-6.5948,-6.4191,-6.0485,-5.8498,-5.7046,-5.5976,-6.0599,-6.4496,-6.4244,-6.9655,-7.4584,-7.6609,-7.6876,-7.7755,-8.02,-8.0506,-8.0506,-8.0506,-8.0506,-8.085,-8.1729,-8.192,-8.2302,-8.3043,-8.3824,-8.4407,-8.4686,-8.4686,-8.3845,-8.208,-8.0661,-7.9941,-7.9898,-7.9307,-7.8714,-7.81,-7.8424,-7.861,-7.8738,-7.968,-8.0476,-8.1128,-8.1128,-8.1128,-8.1128,-8.1128,-8.1599,-8.2287,-8.2396,-8.2939,-8.3772,-8.4569,-8.4859,-8.4968,-8.5656,-8.5909,-8.5909,-8.5909,-8.5909,-8.5909,-8.5909,-8.5909,-8.5909,-8.5909,-8.5909,-8.5909,-8.5909,-8.5909,-8.5909,-8.5909,-8.5909,-8.5909,-8.5909,-8.5685,-8.5646,-8.5835,-8.5567,-8.5414,-8.5871,-8.5685,-8.5646,-8.5835,-8.5492,-8.53,-8.5495,-8.5336,-8.5139,-8.498,-8.494,-8.494,-8.494,-8.4814,-8.4773,-8.494,-8.494,-8.4859,-8.4692,-8.4819,-8.4819,-8.4651,-8.4561,-8.4295,-8.3908,-8.4592,-8.5155,-7.0304,-7.0419,-7.0419,-7.0419,-7.0419,-6.9769,-6.7286,-6.549,-6.2853,-5.739,-5.5479,-5.4065,-5.1811,-5.6205,-6.1058,-6.377,-6.8661,-7.3437,-7.7258,-7.7755,-7.8443,-8.0277,-8.0506,-8.0506,-8.0506,-8.0506,-8.085,-8.1729,-8.2416,-8.3181,-8.4002,-8.4762,-8.4525,-8.3143,-8.3084,-8.2243,-8.0427,-8.0245,-8.0051,-7.9898,-7.9326,-7.8716,-7.8137,-7.9013,-7.9158,-7.8774,-8.0259,-8.0984,-8.1128,-8.1128,-8.1128,-8.1128,-8.1128,-8.1599,-8.2396,-8.3048,-8.3772,-8.4605,-8.5402,-8.5692,-8.5692,-8.5837,-8.5909,-8.5909,-8.5909,-8.5909,-8.5909,-8.5909,-8.5909,-8.5909,-8.5909,-8.5909,-8.5909,-8.5909,-8.5909,-8.5909,-8.5909,-8.5909,-8.5909,-8.5909,-8.5835,-8.5835,-8.5909,-8.5835,-8.5797,-8.5909,-8.5835,-8.5835,-8.5909,-8.5572,-8.542,-8.5495,-8.5408,-8.5326,-8.5179,-8.5139,-8.5139,-8.5139,-8.51,-8.51,-8.5139,-8.5139,-8.5139,-8.51,-8.498,-8.49,-8.4859,-8.5276,-8.5348,-8.503,-8.6415,-8.7315,-7.0419,-7.0419,-7.0419,-7.0419,-7.0419,-6.9425,-6.5605,-6.3083,-5.9873,-5.3951,-5.1735,-5.0436,-4.9213,-5.3836,-5.8612,-6.1134,-6.6865,-7.2176,-7.5539,-7.7182,-7.8634,-8.0315,-8.0506,-8.0506,-8.0506,-8.0926,-8.1538,-8.234,-8.3181,-8.3868,-8.4289,-8.4991,-8.4986,-8.4123,-8.3603,-8.2762,-8.1406,-8.1012,-8.0573,-8.003,-7.9806,-7.9171,-7.8346,-7.9232,-7.94,-7.9013,-8.0144,-8.0872,-8.1234,-8.1128,-8.1128,-8.1128,-8.1128,-8.1853,-8.2939,-8.3338,-8.4243,-8.5366,-8.5764,-8.5909,-8.5909,-8.5909,-8.5909,-8.5909,-8.5909,-8.5909,-8.5909,-8.5909,-8.5909,-8.5909,-8.5909,-8.5909,-8.5909,-8.5909,-8.5909,-8.5909,-8.5909,-8.5909,-8.5909,-8.5909,-8.5909,-8.5909,-8.5909,-8.5909,-8.5909,-8.5909,-8.5909,-8.5909,-8.5909,-8.5761,-8.5685,-8.5685,-8.568,-8.5639,-8.5559,-8.5411,-8.5339,-8.5339,-8.5258,-8.5258,-8.5339,-8.5339,-8.5336,-8.5218,-8.5218,-8.5143,-8.506,-8.5764,-8.5983,-8.5665,-8.6828,-8.7806,-7.0375,-7.0419,-7.0419,-7.0419,-7.0419,-6.9043,-6.3809,-6.0676,-5.716,-5.1276,-4.8716,-4.7635,-4.8028,-5.2155,-5.6358,-5.8956,-6.4535,-6.9807,-7.3437,-7.5806,-7.7946,-8.0009,-8.0391,-8.0506,-8.0506,-8.1117,-8.1843,-8.2684,-8.3715,-8.4289,-8.4289,-8.5011,-8.5276,-8.4894,-8.4164,-8.3379,-8.2482,-8.1817,-8.1149,-8.0461,-8.0672,-8.0211,-7.9227,-7.9919,-8.0028,-7.9694,-8.0271,-8.0863,-8.1445,-8.1234,-8.1163,-8.1128,-8.1128,-8.207,-8.3483,-8.3483,-8.4497,-8.5909,-8.5909,-8.5909,-8.5909,-8.5909,-8.5909,-8.5909,-8.5909,-8.5909,-8.5909,-8.5909,-8.5909,-8.5909,-8.5909,-8.5909,-8.5909,-8.5909,-8.5909,-8.5909,-8.5909,-8.5909,-8.5909,-8.5909,-8.5909,-8.5909,-8.5909,-8.5909,-8.5909,-8.5909,-8.5909,-8.5909,-8.5909,-8.5909,-8.5909,-8.5909,-8.5909,-8.5907,-8.5899,-8.568,-8.5608,-8.5608,-8.5453,-8.5414,-8.5608,-8.5608,-8.5531,-8.5336,-8.5417,-8.5417,-8.5297,-8.6009,-8.6399,-8.636,-8.7141,-8.8245,-7.0148,-7.0467,-7.0419,-7.0419,-7.0419,-6.889,-6.3045,-5.9797,-5.632,-5.0447,-4.7837,-4.7111,-4.8678,-5.0665,-5.3874,-5.9376,-6.1478,-6.4917,-7.21,-7.3934,-7.5768,-7.9034,-8.0047,-8.0506,-8.0506,-8.0582,-8.0964,-8.1843,-8.3372,-8.4289,-8.4289,-8.5033,-8.4804,-8.3257,-8.3123,-8.2645,-8.1707,-8.1728,-8.1613,-8.1299,-8.222,-8.2255,-8.1527,-8.1826,-8.1632,-8.1126,-8.1373,-8.1508,-8.1581,-8.1445,-8.1375,-8.134,-8.1163,-8.207,-8.3483,-8.3483,-8.4497,-8.5909,-8.5909,-8.5909,-8.5909,-8.5909,-8.5909,-8.5909,-8.5909,-8.5909,-8.5909,-8.5909,-8.5909,-8.5909,-8.5909,-8.5909,-8.5909,-8.5909,-8.5909,-8.5909,-8.5909,-8.5909,-8.5909,-8.5909,-8.5909,-8.5909,-8.5909,-8.5909,-8.5909,-8.5909,-8.5909,-8.5909,-8.5909,-8.5909,-8.5909,-8.5909,-8.5909,-8.5909,-8.5909,-8.5871,-8.5835,-8.5835,-8.5871,-8.5835,-8.5835,-8.5835,-8.5835,-8.5871,-8.5608,-8.5495,-8.5456,-8.6089,-8.676,-8.7469,-8.8295,-8.9869,-7.0141,-7.0554,-7.0522,-7.0419,-6.9655,-6.7591,-6.2739,-5.888,-5.4944,-5.0103,-4.7341,-4.632,-4.8045,-4.8925,-5.0979,-5.5874,-5.8207,-6.1138,-6.6216,-6.9807,-7.2979,-7.5883,-7.787,-7.9398,-8.0391,-8.0964,-8.1614,-8.2455,-8.3639,-8.3868,-8.2837,-8.4518,-8.5206,-8.4518,-8.4518,-8.4078,-8.3237,-8.3276,-8.2989,-8.2376,-8.2759,-8.2652,-8.2036,-8.2309,-8.2127,-8.16,-8.1746,-8.1785,-8.1785,-8.1581,-8.1443,-8.1375,-8.1305,-8.2178,-8.3483,-8.3483,-8.4497,-8.5909,-8.5909,-8.5909,-8.5909,-8.5909,-8.5909,-8.5909,-8.5909,-8.5909,-8.5909,-8.5909,-8.5909,-8.5909,-8.5909,-8.5909,-8.5909,-8.5909,-8.5909,-8.5909,-8.5909,-8.5909,-8.5909,-8.5909,-8.5909,-8.5909,-8.5909,-8.5909,-8.5909,-8.5909,-8.5909,-8.5909,-8.5909,-8.5909,-8.5909,-8.5909,-8.5909,-8.5909,-8.5909,-8.5909,-8.5909,-8.5909,-8.5909,-8.5909,-8.5909,-8.5909,-8.5909,-8.5909,-8.5797,-8.5759,-8.5759,-8.6008,-8.6725,-8.7952,-8.8823,-9.0367,-6.9413,-7.0233,-7.0569,-7.0467,-6.8983,-6.6445,-6.2204,-5.8001,-5.376,-4.9618,-4.6893,-4.5757,-4.7235,-4.7733,-4.9177,-5.3133,-5.5479,-5.822,-6.2319,-6.6178,-6.9616,-7.2406,-7.4507,-7.6609,-7.8787,-8.0468,-8.1767,-8.2569,-8.341,-8.3524,-8.2607,-8.4441,-8.5282,-8.4785,-8.5015,-8.4862,-8.4289,-8.4289,-8.3983,-8.3372,-8.3639,-8.3539,-8.3188,-8.3195,-8.2932,-8.2398,-8.2295,-8.2113,-8.1952,-8.1785,-8.1615,-8.1585,-8.1734,-8.2503,-8.3593,-8.3883,-8.4826,-8.5986,-8.6024,-8.6061,-8.6024,-8.5986,-8.5948,-8.5948,-8.5948,-8.5911,-8.5909,-8.5909,-8.5909,-8.5909,-8.5909,-8.5909,-8.5909,-8.5909,-8.5909,-8.5909,-8.5909,-8.5909,-8.5909,-8.5909,-8.5909,-8.5909,-8.5909,-8.5909,-8.5909,-8.5909,-8.5909,-8.5909,-8.5909,-8.5909,-8.5909,-8.5909,-8.5909,-8.5909,-8.5909,-8.5909,-8.5909,-8.5909,-8.5909,-8.5909,-8.5909,-8.5909,-8.5909,-8.5909,-8.5909,-8.5911,-8.5948,-8.5948,-8.6784,-8.8382,-8.9141,-9.0795,-6.7623,-6.9428,-7.0623,-7.0608,-6.8648,-6.5605,-6.1363,-5.7122,-5.2931,-4.8783,-4.6543,-4.5566,-4.6459,-4.7312,-4.8985,-5.2282,-5.3618,-5.6269,-6.2089,-6.3694,-6.549,-6.8852,-6.9999,-7.1833,-7.5195,-7.8557,-8.0888,-8.1767,-8.2569,-8.3372,-8.4212,-8.5053,-8.4747,-8.3066,-8.3868,-8.4289,-8.4289,-8.4289,-8.4289,-8.4289,-8.5091,-8.5473,-8.5453,-8.4937,-8.439,-8.3859,-8.3255,-8.2678,-8.2186,-8.1952,-8.1885,-8.1959,-8.2559,-8.3152,-8.381,-8.4826,-8.5591,-8.6137,-8.6356,-8.6356,-8.6356,-8.6174,-8.61,-8.61,-8.61,-8.5987,-8.5909,-8.5909,-8.5909,-8.5909,-8.5909,-8.5909,-8.5909,-8.5909,-8.5909,-8.5909,-8.5909,-8.5909,-8.5909,-8.5909,-8.5909,-8.5909,-8.5909,-8.5909,-8.5909,-8.5909,-8.5909,-8.5909,-8.5909,-8.5909,-8.5909,-8.5909,-8.5909,-8.5909,-8.5909,-8.5909,-8.5909,-8.5909,-8.5909,-8.5909,-8.5909,-8.5909,-8.5909,-8.5909,-8.5909,-8.5986,-8.61,-8.61,-8.7047,-8.8836,-8.9411,-9.1284,-6.4449,-6.5586,-6.6106,-6.4843,-6.3461,-6.1649,-5.8511,-5.4982,-5.1505,-4.846,-4.6473,-4.5566,-4.6459,-4.6386,-4.7851,-5.2915,-5.3054,-5.4317,-5.9568,-6.3541,-6.6713,-6.8929,-7.401,-7.7717,-7.8787,-7.9895,-8.0621,-8.0888,-8.2187,-8.2875,-8.2607,-8.4441,-8.5282,-8.4747,-8.4976,-8.5129,-8.5129,-8.5129,-8.5129,-8.5129,-8.5397,-8.5511,-8.5491,-8.4937,-8.4414,-8.3859,-8.3255,-8.2708,-8.2186,-8.2121,-8.1985,-8.1959,-8.2732,-8.3362,-8.3989,-8.4862,-8.5664,-8.632,-8.6356,-8.6429,-8.6356,-8.632,-8.6283,-8.6283,-8.6283,-8.6174,-8.6062,-8.6062,-8.6062,-8.6025,-8.5911,-8.5909,-8.5909,-8.5909,-8.5909,-8.5909,-8.5909,-8.5909,-8.5909,-8.5909,-8.5909,-8.5909,-8.5909,-8.5909,-8.5909,-8.5909,-8.5909,-8.5909,-8.5909,-8.5909,-8.5909,-8.5909,-8.5909,-8.5909,-8.5909,-8.5909,-8.5909,-8.5909,-8.5909,-8.5909,-8.5909,-8.5909,-8.5909,-8.5909,-8.5987,-8.6026,-8.61,-8.6247,-8.7376,-8.9447,-9.0716,-9.2377,-6.1721,-6.3118,-6.3642,-6.2169,-6.0659,-5.8884,-5.6282,-5.3084,-5.0015,-4.7783,-4.6243,-4.5451,-4.6038,-4.6013,-4.7287,-5.1576,-5.1989,-5.3686,-5.9276,-6.3059,-6.6399,-6.9311,-7.4966,-7.8596,-7.8596,-7.9742,-8.0506,-8.0506,-8.2034,-8.276,-8.2264,-8.4327,-8.5511,-8.5511,-8.5511,-8.5511,-8.5511,-8.5511,-8.5511,-8.5511,-8.5511,-8.5511,-8.5491,-8.5148,-8.458,-8.3885,-8.3508,-8.2883,0.0,-8.2186,-8.2121,-8.2132,-8.3231,-8.3994,-8.4575,-8.5781,-8.6515,-8.685,-8.6956,-8.6819,-8.6609,-8.6573,-8.6501,-8.6501,-8.6501,-8.6356,-8.621,-8.621,-8.6174,-8.6063,-8.5987,-8.5948,-8.5909,-8.5909,-8.5909,-8.5909,-8.5909,-8.5948,-8.5948,-8.5909,-8.5912,-8.5876,-8.5873,-8.5909,-8.5909,-8.5909,-8.5909,-8.5909,-8.5909,-8.5909,-8.5909,-8.5909,-8.5909,-8.5909,-8.5909,-8.5909,-8.5909,-8.5909,-8.5909,-8.5909,-8.5909,-8.5909,-8.5911,-8.595,-8.6026,-8.6174,-8.632,-8.6829,-8.8071,-8.9964,-9.1159,-9.2533,0.0,-6.1349,-6.2362,-6.1428,-5.9396,-5.7009,-5.4508,-5.1438,0.0,-4.6957,-4.5893,-4.5375,-4.5617,-4.6242,-4.7353,-4.9312,-5.0977,-5.4319,-6.0933,-6.3064,-6.5626,-7.0381,-7.3858,-7.5824,-7.5692,-7.8596,-8.0506,-8.0506,-8.2034,-8.299,-8.299,-8.4594,-8.5511,-8.5511,-8.5511,-8.5511,-8.5511,-8.5511,-8.5511,-8.5511,-8.5511,-8.5511,-8.5511,-8.5511,-8.4914,-8.3911,-8.3911,-8.3264,-8.2186,-8.2186,-8.2223,-8.2443,-8.3985,-8.4866,-8.5522,-8.7242,-8.7836,-8.7704,-8.7867,-8.7558,-8.7029,-8.6821,-8.6714,-8.6714,-8.6714,-8.6609,-8.6465,-8.6429,-8.6283,-8.6137,-8.61,-8.5987,-8.5909,-8.5911,-8.5911,-8.5911,-8.5911,-8.6025,-8.6063,-8.5948,-8.5952,-8.5954,-8.5948,-8.5947,-8.5947,-8.5947,-8.5947,-8.5947,-8.5947,-8.5947,-8.5947,-8.5947,-8.5947,-8.5947,-8.5947,-8.5909,-8.5909,-8.5909,-8.5909,-8.5911,-8.5911,-8.5947,-8.6024,-8.6137,-8.6137,-8.632,-8.6714,-8.7659,-8.8797,-9.0154,-9.0808,-9.1817,-5.3356,0.0,-5.617,-5.4589,-5.4199,-5.3744,0.0,-5.0194,-4.863,-4.6957,-4.5893,-4.5899,-4.7859,-4.7409,-4.8503,-5.3937,-5.4261,-5.6302,-6.3494,-6.9174,-7.3454,-7.5921,-7.8061,-7.8825,-7.7526,-7.9283,-8.0506,-8.0506,-8.2034,-8.299,-8.299,-8.4594,-8.5511,-8.5511,-8.5511,-8.5511,-8.5511,-8.5511,-8.5511,-8.5511,-8.5511,-8.5511,-8.5511,-8.5511,-8.4914,-8.3911,-8.3911,-8.3264,-8.2186,-8.2186,-8.2553,-8.3214,-8.4205,-8.5332,-8.6456,-8.7496,-8.8137,-8.8463,-8.8053,-8.781,-8.7586,-8.7095,-8.6925,-8.6925,-8.6925,-8.6891,-8.6821,-8.668,-8.6465,-8.6283,-8.6137,-8.5987,-8.5911,-8.6025,-8.6026,-8.6099,-8.6247,-8.6247,-8.6211,-8.6429,-8.6356,-8.6247,-8.6283,-8.6283,-8.632,-8.6429,-8.6466,-8.6393,-8.6283,-8.6283,-8.6247,-8.6099,-8.621,-8.621,-8.6099,-8.5948,-8.5909,-8.5909,-8.5987,-8.6026,-8.6026,-8.621,-8.632,-8.632,-8.6465,-8.6679,-8.6925,-8.718,-8.7697,-8.8508,-8.9713,-9.0689,-4.9923,-5.2279,-5.4269,-5.3287,-5.3063,-5.2636,-5.0894,-4.9192,-4.7569,-4.6286,-4.5642,-4.5812,-4.757,-4.9127,-5.1074,-5.3849,-5.7264,-6.1594,-6.75,-7.2117,-7.5653,-7.7755,-7.8787,-7.9283,-7.9169,-7.9971,-8.0506,-8.0506,-8.2034,-8.299,-8.299,-8.425,-8.5129,-8.5511,-8.5129,-8.5129,-8.5511,-8.5511,-8.5511,-8.5511,-8.5511,-8.5511,-8.5511,-8.5511,-8.4914,-8.3911,-8.3911,-8.3264,-8.2186,-8.2186,-8.2663,-8.3508,-8.4278,-8.563,-8.7196,-8.8018,-8.8692,-8.9103,-8.8521,-8.7929,-8.7427,-8.7098,-8.6995,-8.6995,-8.6995,-8.6995,-8.696,-8.6856,-8.6715,-8.6501,-8.6392,-8.6247,-8.6136,-8.6138,-8.6138,-8.6174,-8.6356,-8.6392,-8.6392,-8.6465,-8.6574,-8.6647,-8.6502,-8.6502,-8.6502,-8.6575,-8.6538,-8.6502,-8.6502,-8.6429,-8.6356,-8.6247,-8.632,-8.6356,-8.6247,-8.6173,-8.6135,-8.6135,-8.621,-8.6247,-8.6247,-8.632,-8.6429,-8.6573,-8.675,-8.6891,-8.6995,-8.6995,-8.7366,-8.8066,-8.8983,-8.9818,-4.8355,-5.1625,-5.4703,-5.3933,-5.3402,-5.263,-5.0734,-4.86,-4.6738,-4.5882,-4.5708,-4.6194,-4.7914,-5.1285,-5.3745,-5.3581,-6.072,-6.7767,-7.1816,-7.3968,-7.5883,-7.7755,-7.8252,-7.8825,-8.0009,-8.0353,-8.0506,-8.0506,-8.192,-8.2798,-8.2798,-8.3639,-8.448,-8.5282,-8.4671,-8.4671,-8.5511,-8.5511,-8.5511,-8.5511,-8.5511,-8.5511,-8.5511,-8.5511,-8.4914,-8.3911,-8.3989,-8.3312,-8.2186,-8.2316,-8.2863,-8.3783,-8.4481,-8.6041,-8.7991,-8.8678,-8.9272,-8.9578,-8.8887,-8.7929,-8.6995,-8.6995,-8.6995,-8.6995,-8.6995,-8.6995,-8.6995,-8.6995,-8.6856,-8.6679,-8.6679,-8.6536,-8.6356,-8.6283,-8.6247,-8.6283,-8.6465,-8.6571,-8.6642,-8.6501,-8.6789,-8.6933,-8.6719,-8.6683,-8.6683,-8.6683,-8.6538,-8.6538,-8.6647,-8.6538,-8.6501,-8.6465,-8.6465,-8.6501,-8.6465,-8.6465,-8.6501,-8.6501,-8.6429,-8.6465,-8.6501,-8.6501,-8.6573,-8.675,-8.6925,-8.6995,-8.6995,-8.6995,-8.7362,-8.8023,-8.8582,-8.9164,-4.9519,-5.3405,-5.5598,-5.1241,-5.1692,-5.2518,-5.0036,-4.9151,-4.8562,-4.7684,-4.745,-4.9213,-5.5059,-5.3924,-5.4331,-6.1148,-6.646,-7.0964,-7.4533,-7.7617,-7.9169,-7.8137,-7.9245,-7.9665,-7.8519,-7.9665,-8.0506,-8.0506,-8.1423,-8.1996,-8.1996,-8.276,-8.3601,-8.4441,-8.4365,-8.4671,-8.5511,-8.5511,-8.5511,-8.5511,-8.5511,-8.5511,-8.5511,-8.5511,-8.4914,-8.3937,-8.439,-8.3661,-8.2251,-8.2678,-8.3773,-8.5213,-8.5324,-8.7024,-8.9402,-8.9515,-8.9641,-8.9528,-8.8405,-8.7554,-8.6995,-8.6995,-8.6995,-8.6995,-8.6995,-8.6995,-8.6995,-8.6995,-8.6856,-8.6679,-8.6679,-8.65,-8.6283,-8.6462,-8.6461,-8.646,-8.6819,-8.6925,-8.6925,-8.6891,-8.6962,-8.6962,-8.6927,-8.6927,-8.6927,-8.6927,-8.6927,-8.6927,-8.6927,-8.6927,-8.6856,-8.6643,-8.6821,-8.6856,-8.668,-8.6821,-8.6891,-8.6891,-8.675,-8.675,-8.6891,-8.6891,-8.6925,-8.6925,-8.696,-8.6995,-8.6995,-8.6995,-8.7068,-8.718,-8.8326,-8.8872,-4.7518,-5.0712,-5.3367,-5.2395,-5.5748,-5.8969,-5.7731,-5.6355,-5.48,-5.2968,-5.2587,-5.3798,-5.781,-5.9251,-6.2691,-7.1582,-7.1947,-7.2499,-7.6356,-7.7009,-7.7335,-7.7946,-7.8672,-7.9207,-7.936,-8.0047,-8.0506,-8.0506,-8.1308,-8.1805,-8.1805,-8.2149,-8.2722,-8.3563,-8.3601,-8.3983,-8.4824,-8.5282,-8.5511,-8.5511,-8.5511,-8.5511,-8.5511,-8.5511,-8.5083,-8.4341,-8.458,-8.4117,-8.3186,-8.3844,-8.4853,-8.5984,-8.6461,-8.7888,-8.9739,-9.006,-8.9763,-8.913,-8.8578,-8.7778,-8.6995,-8.6995,-8.6995,-8.6995,-8.6995,-8.6995,-8.6995,-8.6995,-8.6925,-8.6856,-8.6856,-8.6749,-8.6677,-8.6784,-8.6783,-8.6746,-8.696,-8.6995,-8.6995,-8.6995,-8.6995,-8.6995,-8.6995,-8.6995,-8.6995,-8.6995,-8.6995,-8.6995,-8.6995,-8.6995,-8.696,-8.6856,-8.6925,-8.696,-8.6856,-8.6925,-8.6995,-8.6995,-8.6925,-8.6891,-8.7031,-8.6995,-8.6995,-8.6995,-8.6995,-8.6995,-8.6995,-8.6995,-8.7215,-8.7692,-8.8436,-8.9055,-4.6633,-4.9134,-5.2202,-5.4741,-5.8658,-6.2247,-6.3756,-6.1925,-5.9624,-5.8601,-5.8536,-5.9109,-6.0599,-6.4535,-6.9884,-7.6991,-7.5157,-7.4201,-7.8061,-7.6914,-7.6418,-7.8366,-7.8596,-7.9092,-8.0391,-8.0506,-8.0506,-8.0506,-8.1117,-8.1499,-8.1499,-8.1499,-8.1881,-8.2684,-8.2875,-8.341,-8.4289,-8.5091,-8.5511,-8.5511,-8.5511,-8.5511,-8.5511,-8.5511,-8.519,-8.4734,-8.4825,-8.451,-8.3986,-8.4906,-8.5785,-8.6587,-8.7442,-8.8646,-8.9968,-9.0257,-8.9714,-8.8776,-8.8635,-8.7867,-8.6995,-8.6995,-8.6995,-8.6995,-8.6995,-8.6995,-8.6995,-8.6995,-8.6995,-8.6995,-8.6995,-8.6995,-8.6995,-8.6995,-8.6995,-8.6995,-8.6995,-8.6995,-8.6995,-8.6995,-8.6995,-8.6995,-8.6995,-8.6995,-8.6995,-8.6995,-8.6995,-8.6995,-8.6995,-8.6995,-8.6995,-8.6995,-8.6995,-8.6995,-8.6995,-8.6995,-8.6995,-8.6995,-8.6995,-8.6995,-8.6995,-8.6995,-8.6995,-8.6995,-8.6995,-8.6995,-8.6995,-8.6995,-8.7325,-8.7949,-8.8545,-8.9128,-4.9702,-5.2241,-5.4857,-5.7396,-5.6,-5.5621,-6.1799,-6.061,-5.9217,-6.2882,-6.4229,-6.507,-6.5987,-6.8317,-7.0342,-7.103,-7.4049,-7.7258,-7.9933,-8.0162,-8.0124,-8.0315,-8.0315,-8.0353,-8.0506,-8.0506,-8.0506,-8.0506,-8.0544,-8.0582,-8.0582,-8.0582,-8.1003,-8.1843,-8.2607,-8.341,-8.4289,-8.5091,-8.5511,-8.5511,-8.5511,-8.5511,-8.5511,-8.5511,-8.519,-8.4734,-8.5249,-8.4848,-8.4012,-8.5383,-8.6407,-8.7227,-8.8098,-8.9315,-9.0487,-8.9968,-8.935,-8.872,-8.8174,-8.7558,-8.6995,-8.6995,-8.6995,-8.6995,-8.6995,-8.6995,-8.6995,-8.6995,-8.6995,-8.6995,-8.6995,-8.6995,-8.6995,-8.6995,-8.6995,-8.6995,-8.6995,-8.6995,-8.6995,-8.6995,-8.6995,-8.6995,-8.6995,-8.6995,-8.6995,-8.6995,-8.6995,-8.6995,-8.6995,-8.6995,-8.6995,-8.6995,-8.6995,-8.6995,-8.6995,-8.6995,-8.6995,-8.6995,-8.6995,-8.6995,-8.6995,-8.6995,-8.6995,-8.6995,-8.6995,-8.6995,-8.6995,-8.6995,-8.7031,-8.7107,-8.8253,-8.8836,-4.8086,-5.1356,-5.4857,-5.6319,-5.6896,-5.9027,-6.6227,-6.7626,-6.7523,-6.8067,-6.9674,-7.0614,-6.9352,-7.3292,-7.6067,-7.3913,-7.6647,-7.9398,-8.0353,-8.0506,-8.0506,-8.0506,-8.0506,-8.0506,-8.0506,-8.0506,-8.0506,-8.0506,-8.0506,-8.0506,-8.0506,-8.0506,-8.0659,-8.0964,-8.2302,-8.3142,-8.3486,-8.4824,-8.5511,-8.5511,-8.5511,-8.5511,-8.5511,-8.5511,-8.5373,-8.519,-8.5393,-8.5291,-8.5028,-8.6649,-8.7476,-8.7917,-8.9266,-9.0138,-9.0572,-9.0362,-8.9641,-8.8776,-8.8521,-8.7841,-8.6995,-8.6995,-8.6995,-8.6995,-8.6995,-8.6995,-8.6995,-8.6995,-8.6995,-8.6995,-8.6995,-8.6995,-8.6995,-8.6995,-8.6995,-8.6995,-8.6995,-8.6995,-8.6995,-8.6995,-8.6995,-8.6995,-8.6995,-8.6995,-8.6995,-8.6995,-8.6995,-8.6995,-8.6995,-8.6995,-8.6995,-8.6995,-8.6995,-8.6995,-8.6995,-8.6995,-8.6995,-8.6995,-8.6995,-8.6995,-8.6995,-8.6995,-8.6995,-8.6995,-8.6995,-8.6995,-8.6995,-8.6995,-8.7509,-8.8501,-8.8728,-8.9346,-4.9356,-5.2049,-5.5318,-5.7242,-5.8627,-6.1565,-6.9404,-7.1344,-7.1848,-7.3128,-7.3686,-7.3625,-7.247,-7.5535,-7.7645,-7.5838,-7.8344,-8.0505,-8.0506,-8.0506,-8.0506,-8.0506,-8.0506,-8.0506,-8.0506,-8.0506,-8.0506,-8.0506,-8.0506,-8.0506,-8.0506,-8.0506,-8.0506,-8.0506,-8.2111,-8.299,-8.299,-8.4671,-8.5511,-8.5511,-8.5511,-8.5511,-8.5511,-8.5511,-8.5511,-8.5511,-8.5511,-8.5511,-8.5664,-8.7384,-8.8436,-8.905,-9.0176,-9.0656,-9.0697,-9.0697,-9.0045,-8.9145,-8.8941,-8.8197,-8.7295,-8.7064,-8.6995,-8.6995,-8.6995,-8.6995,-8.6995,-8.6995,-8.6995,-8.6995,-8.6995,-8.6995,-8.6995,-8.6995,-8.6995,-8.6995,-8.6995,-8.6995,-8.6995,-8.6995,-8.6995,-8.6995,-8.6995,-8.6995,-8.6995,-8.6995,-8.6995,-8.6995,-8.6995,-8.6995,-8.6995,-8.6995,-8.6995,-8.6995,-8.6995,-8.6995,-8.6995,-8.6995,-8.6995,-8.6995,-8.6995,-8.6995,-8.6995,-8.6995,-8.6995,-8.6995,-8.6995,-8.6995,-8.7729,-8.9015,-8.8874,-8.9529,-5.4664,-5.5088,-5.6742,-6.0973,-6.0819,-6.1796,-7.0225,-7.0047,-7.0302,-7.7837,-7.6059,-7.368,-7.5462,-7.4404,-7.3798,-7.5365,-7.8394,-8.0578,-8.0525,-8.0506,-8.0506,-8.0506,-8.0506,-8.0506,-8.0506,-8.0506,-8.0506,-8.0506,-8.0506,-8.0506,-8.0506,-8.0506,-8.0506,-8.0506,-8.2111,-8.299,-8.299,-8.4671,-8.5511,-8.5511,-8.5511,-8.5511,-8.5511,-8.5511,-8.5511,-8.5511,-8.5511,-8.5511,-8.5664,-8.7384,-8.9126,-9.0719,-9.0719,-9.0779,-9.0915,-9.0915,-9.052,-8.9923,-8.9223,-8.8598,-8.7954,-8.7265,-8.7031,-8.6995,-8.6995,-8.6995,-8.6995,-8.6995,-8.6995,-8.6995,-8.6995,-8.6995,-8.6995,-8.6995,-8.6995,-8.6995,-8.6995,-8.6995,-8.6995,-8.6995,-8.6995,-8.6995,-8.6995,-8.6995,-8.6995,-8.6995,-8.6995,-8.6995,-8.6995,-8.6995,-8.6995,-8.6995,-8.6995,-8.6995,-8.6995,-8.6995,-8.6995,-8.6995,-8.6995,-8.6995,-8.6995,-8.6995,-8.6995,-8.6995,-8.6995,-8.6995,-8.6995,-8.6995,-8.7435,-8.8243,-8.8618,-8.9237,-5.024,-5.4549,-5.9154,-5.8558,-6.3425,-6.9135,-7.2172,-7.2287,-7.3261,-7.8541,-7.7636,-7.5887,-7.5879,-7.7377,-7.7982,-7.6038,-7.8484,-8.0596,-8.0578,-8.0505,-8.0506,-8.0506,-8.0506,-8.0506,-8.0506,-8.0506,-8.0506,-8.0506,-8.0506,-8.0506,-8.0506,-8.0506,-8.0506,-8.0506,-8.2111,-8.299,-8.299,-8.4671,-8.5511,-8.5511,-8.5511,-8.5511,-8.5511,-8.5511,-8.5511,-8.5511,-8.5511,-8.5855,-8.6543,-8.8343,-8.9722,-9.0719,-9.0799,-9.0838,-9.0915,-9.0915,-9.052,-8.9992,-8.9769,-8.9001,-8.8046,-8.7836,-8.7427,-8.6995,-8.6995,-8.6995,-8.6995,-8.6995,-8.6995,-8.6995,-8.6995,-8.6995,-8.6995,-8.6995,-8.6995,-8.6995,-8.6995,-8.6995,-8.6995,-8.6995,-8.6995,-8.6995,-8.6995,-8.6995,-8.6995,-8.6995,-8.6995,-8.6995,-8.6995,-8.6995,-8.6995,-8.6995,-8.6995,-8.6995,-8.6995,-8.6995,-8.6995,-8.6995,-8.6995,-8.6995,-8.6995,-8.6995,-8.6995,-8.6995,-8.6995,-8.6995,-8.6995,-8.6995,-8.7729,-8.9015,-8.8874,-8.9529,-5.5665,-5.9665,-6.35,-6.4296,-6.7804,-7.1732,-7.4167,-7.5548,-7.7038,-7.9643,-7.8814,-7.7677,-7.7916,-7.9069,-7.9499,-7.8075,-7.9467,-8.0702,-8.0632,-8.056,-8.0505,-8.0506,-8.0506,-8.0506,-8.0506,-8.0506,-8.0506,-8.0506,-8.0506,-8.0506,-8.0506,-8.0506,-8.0659,-8.1003,-8.2302,-8.3181,-8.3486,-8.4824,-8.5511,-8.5511,-8.5511,-8.5511,-8.5511,-8.5511,-8.5511,-8.5511,-8.5491,-8.6294,-8.7709,-8.8881,-8.9797,-9.0517,-9.0819,-9.0858,-9.0741,-9.0934,-9.08,-9.0423,-9.0105,-8.9339,-8.8417,-8.8137,-8.7566,-8.7,-8.7,-8.7013,-8.6994,-8.6992,-8.7,-8.697,-8.7027,-8.6995,-8.6995,-8.6995,-8.6995,-8.6995,-8.6995,-8.6995,-8.6995,-8.6995,-8.6995,-8.6995,-8.6995,-8.6995,-8.6995,-8.6995,-8.6995,-8.6995,-8.6995,-8.6995,-8.6995,-8.6995,-8.6995,-8.6995,-8.6995,-8.6995,-8.6995,-8.6995,-8.6995,-8.6995,-8.6995,-8.6995,-8.6995,-8.6995,-8.6995,-8.6995,-8.6995,-8.6995,-8.7839,-8.9382,-8.9057,-8.9749,-6.5667,-6.7167,-6.8552,-7.4038,-7.2827,-7.1502,-7.6164,-7.9095,-8.0788,-8.0811,-7.9659,-7.9153,-8.0808,-7.9823,-7.9231,-8.0674,-8.0888,-8.0822,-8.065,-8.0614,-8.0578,-8.0525,-8.0506,-8.0506,-8.0506,-8.0506,-8.0506,-8.0506,-8.0506,-8.0506,-8.0506,-8.0506,-8.0888,-8.1767,-8.2569,-8.341,-8.4289,-8.5091,-8.5473,-8.5473,-8.5493,-8.5531,-8.5531,-8.5511,-8.5511,-8.5491,-8.5624,-8.6943,-8.9088,-8.9207,-8.9617,-9.0159,-9.0722,-9.0742,-9.0444,-9.0934,-9.1136,-9.1082,-9.0258,-8.9635,-8.9043,-8.8287,-8.7626,-8.7118,-8.7155,-8.7257,-8.7332,-8.7322,-8.7179,-8.6989,-8.6985,-8.6995,-8.6995,-8.6995,-8.6995,-8.6995,-8.6995,-8.6995,-8.6995,-8.6995,-8.6995,-8.6995,-8.6995,-8.6995,-8.6995,-8.6995,-8.6995,-8.6995,-8.6995,-8.6995,-8.6995,-8.6995,-8.6995,-8.6995,-8.6995,-8.6995,-8.6995,-8.6995,-8.6995,-8.6995,-8.6995,-8.6995,-8.6995,-8.6995,-8.6995,-8.6995,-8.6995,-8.7068,-8.7876,-8.9272,-8.9202,-8.9898,-5.7319,-6.2704,-6.8577,-7.0445,-7.3676,-7.6699,-7.7838,-7.9566,-8.0734,-8.0161,-8.0292,-8.0654,-8.1016,-8.0785,-8.0669,-8.0984,-8.0975,-8.0893,-8.0775,-8.0667,-8.0578,-8.0525,-8.0506,-8.0506,-8.0506,-8.0506,-8.0506,-8.0506,-8.0506,-8.0506,-8.0506,-8.0506,-8.0888,-8.1767,-8.2569,-8.341,-8.4289,-8.5093,-8.5514,-8.5514,-8.559,-8.5665,-8.5665,-8.5552,-8.5491,-8.5528,-8.6464,-8.8227,-9.0471,-9.0512,-9.0429,-9.0285,-9.0461,-9.0464,-9.0402,-9.0402,-9.0762,-9.1082,-9.0181,-8.9832,-8.9697,-8.8985,-8.8364,-8.7988,-8.8316,-8.9077,-8.9838,-8.9827,-8.8433,-8.7019,-8.6993,-8.6995,-8.6995,-8.6995,-8.6995,-8.6995,-8.6995,-8.6995,-8.6995,-8.6995,-8.6995,-8.6995,-8.6995,-8.6995,-8.6995,-8.6995,-8.6995,-8.6995,-8.6995,-8.6995,-8.6995,-8.6995,-8.6995,-8.6995,-8.6995,-8.6995,-8.6995,-8.6995,-8.6995,-8.6995,-8.6995,-8.6995,-8.6995,-8.6995,-8.6995,-8.6995,-8.6995,-8.7619,-8.8133,-8.85,-8.9532,-9.0117,-5.9842,-6.4397,-6.8538,-7.1761,-7.5511,-7.8391,-7.8391,-7.9729,-8.0892,-8.05,-8.0785,-8.1093,-8.1093,-8.1093,-8.1093,-8.1093,-8.1061,-8.0959,-8.0877,-8.0775,-8.065,-8.056,-8.0543,-8.0506,-8.0506,-8.0506,-8.0506,-8.0506,-8.0505,-8.0542,-8.0542,-8.1017,-8.1647,-8.249,-8.3332,-8.4155,-8.494,-8.5303,-8.5551,-8.5628,-8.5817,-8.5892,-8.5892,-8.5628,-8.5571,-8.5781,-8.8078,-8.9477,-9.0187,-9.0431,-9.0312,-8.9915,-8.9992,-9.0037,-9.0022,-9.0138,-9.0625,-9.1123,-9.0641,-9.0073,-8.9588,-8.973,-8.9185,-8.8515,-8.873,-8.9249,-8.9639,-8.9061,-8.7973,-8.7,-8.699,-8.6995,-8.6995,-8.6995,-8.6995,-8.6995,-8.6995,-8.6995,-8.6995,-8.6995,-8.6995,-8.6995,-8.6995,-8.6995,-8.6995,-8.6995,-8.6995,-8.6995,-8.6995,-8.6995,-8.6995,-8.6995,-8.6995,-8.6995,-8.6995,-8.6995,-8.6995,-8.6995,-8.6995,-8.6995,-8.6995,-8.6995,-8.6995,-8.6995,-8.6995,-8.6995,-8.6995,-8.7802,-8.839,-8.883,-8.9934,-9.0557,-6.3365,-6.6538,-6.8692,-7.4465,-7.7239,-7.85,-7.8438,-7.9815,-8.1093,-8.1093,-8.1093,-8.1093,-8.1093,-8.1093,-8.1093,-8.1093,-8.1093,-8.1061,-8.0943,-8.086,-8.0775,-8.0632,-8.0542,-8.0525,-8.0506,-8.0506,-8.0506,-8.0525,-8.0578,-8.0614,-8.0632,-8.1409,-8.2288,-8.3285,-8.4013,-8.4821,-8.5704,-8.5549,-8.5606,-8.58,-8.6007,-8.61,-8.61,-8.5737,-8.568,-8.6046,-8.9323,-9.0186,-8.9228,-8.994,-8.9877,-8.9402,-8.9427,-8.9527,-8.9649,-9.0044,-9.0602,-9.1163,-9.0972,-9.0241,-8.9482,-9.0228,-8.9839,-8.9104,-8.9104,-8.9094,-8.8822,-8.7404,-8.7071,-8.7196,-8.7056,-8.6995,-8.6995,-8.6995,-8.6995,-8.6995,-8.6995,-8.6995,-8.6995,-8.6995,-8.6995,-8.6995,-8.6995,-8.6995,-8.6995,-8.6995,-8.6995,-8.6995,-8.6995,-8.6995,-8.6995,-8.6995,-8.6995,-8.6995,-8.6995,-8.6995,-8.6995,-8.6995,-8.6995,-8.6995,-8.6995,-8.6995,-8.6995,-8.6995,-8.6995,-8.7105,-8.7288,-8.7766,-8.85,-8.9419,-9.0372,-9.0997,-5.5005,-6.1665,-6.9475,-7.4692,-7.7246,-7.8515,-7.8515,-7.9862,-8.1093,-8.1093,-8.1093,-8.1093,-8.1093,-8.1093,-8.1093,-8.1093,-8.1093,-8.1061,-8.0943,-8.0871,-8.0805,-8.0632,-8.0596,-8.056,-8.0525,-8.0506,-8.0505,-8.0596,-8.0614,-8.065,-8.0775,-8.0907,-8.1674,-8.3246,-8.34,-8.4243,-8.5759,-8.5619,-8.5616,-8.5808,-8.6009,-8.6099,-8.6099,-8.606,-8.6035,-8.6162,-8.8155,-8.8882,-8.871,-8.9833,-8.9749,-8.8887,-8.8914,-8.9197,-8.9638,-9.0031,-9.0552,-9.0915,-9.0095,-9.0133,-9.0419,-8.9982,-9.0037,-9.0372,-9.0372,-9.0373,-8.9881,-8.7619,-8.7503,-8.7889,-8.7166,-8.6995,-8.6995,-8.6995,-8.6995,-8.6995,-8.6995,-8.6995,-8.6995,-8.6995,-8.6995,-8.6995,-8.6995,-8.6995,-8.6995,-8.6995,-8.6995,-8.6995,-8.6995,-8.6995,-8.6995,-8.6995,-8.6995,-8.6995,-8.6995,-8.6995,-8.6995,-8.6995,-8.6995,-8.6995,-8.6995,-8.6995,-8.6995,-8.6995,-8.6995,-8.7472,-8.839,-8.7582,-8.7949,-8.9419,-9.0959,-9.1217,-5.697,-6.3409,-6.9757,-7.49,-7.7337,-7.8477,-7.8477,-7.9862,-8.1093,-8.1093,-8.1093,-8.1093,-8.1093,-8.1093,-8.1093,-8.1093,-8.1093,-8.1077,-8.1007,-8.0959,-8.0838,-8.0741,-8.065,-8.0596,-8.056,-8.0505,-8.058,-8.0685,-8.0685,-8.0967,-8.1551,-8.2079,-8.294,-8.417,-8.4631,-8.5172,-8.5905,-8.5877,-8.5873,-8.595,-8.6077,-8.6094,-8.6094,-8.6094,-8.662,-8.7589,-8.7715,-8.8188,-8.8841,-8.927,-8.9209,-8.8748,-8.8509,-8.8701,-8.9246,-8.9944,-9.054,-9.0902,-9.0381,-9.0364,-9.0614,-9.0279,-9.0383,-9.0593,-9.0593,-9.0119,-8.9318,-8.8015,-8.7599,-8.7439,-8.71,-8.6995,-8.6995,-8.6995,-8.6995,-8.6995,-8.6995,-8.6995,-8.6995,-8.6995,-8.6995,-8.6995,-8.6995,-8.6995,-8.6995,-8.6995,-8.6995,-8.6995,-8.6995,-8.6995,-8.6995,-8.6995,-8.6995,-8.6995,-8.6995,-8.6995,-8.6995,-8.6995,-8.6995,-8.6995,-8.6995,-8.6995,-8.6995,-8.6995,-8.6995,-8.7545,-8.861,-8.8133,-8.8575,-8.9896,-9.1216,-9.1583,-5.7541,-6.2426,-6.658,-7.2766,-7.5671,-7.7203,-7.8261,-7.9862,-8.1093,-8.1093,-8.1093,-8.1093,-8.1093,-8.1093,-8.1093,-8.1093,-8.1093,-8.1093,-8.1093,-8.1007,-8.0926,-8.0809,-8.072,-8.0667,-8.0614,-8.0578,-8.0652,-8.0809,-8.0826,-8.1244,-8.2188,-8.2715,-8.3555,-8.4863,-8.5286,-8.5637,-8.6031,-8.6099,-8.6094,-8.6094,-8.6094,-8.6094,-8.6094,-8.6094,-8.6957,-8.8419,-8.7447,-8.7739,-8.8885,-8.8605,-8.857,-8.8624,-8.8376,-8.8567,-8.9103,-8.9928,-9.0548,-9.0966,-9.0759,-9.0643,-9.0593,-9.0593,-9.0593,-9.0593,-9.0593,-8.9859,-8.8893,-8.8353,-8.7724,-8.7197,-8.7029,-8.6995,-8.6995,-8.6995,-8.6995,-8.6995,-8.6995,-8.6995,-8.6995,-8.6995,-8.6995,-8.6995,-8.6995,-8.6995,-8.6995,-8.6995,-8.6995,-8.6995,-8.6995,-8.6995,-8.6995,-8.6995,-8.6995,-8.6995,-8.6995,-8.6995,-8.6995,-8.6995,-8.6995,-8.6995,-8.6995,-8.6995,-8.6995,-8.6995,-8.6995,-8.7399,-8.8206,-8.9014,-8.9822,-9.0629,-9.1436,-9.1803,-5.1534,-5.4089,-5.7692,-6.6741,-7.0869,-7.3716,-7.7612,-7.9862,-8.1093,-8.1093,-8.1093,-8.1093,-8.1093,-8.1093,-8.1093,-8.1093,-8.1093,-8.1093,-8.1093,-8.1093,-8.1029,-8.0809,-8.086,-8.0805,-8.0632,-8.0685,-8.0826,-8.0871,-8.0871,-8.1305,-8.2231,-8.1631,-8.2362,-8.4824,-8.4132,-8.4478,-8.6077,-8.6094,-8.6094,-8.6094,-8.6094,-8.6094,-8.6094,-8.6094,-8.6748,-8.7825,-8.7121,-8.7438,-8.8401,-8.7882,-8.7864,-8.8171,-8.8624,-8.9065,-8.9625,-9.0171,-9.062,-9.0877,-9.0896,-9.0778,-9.0593,-9.0593,-9.0593,-9.0593,-9.0593,-9.0167,-8.9452,-8.8463,-8.8055,-8.7715,-8.7166,-8.6995,-8.6995,-8.6995,-8.6995,-8.6995,-8.6995,-8.6995,-8.6995,-8.6995,-8.6995,-8.6995,-8.6995,-8.6995,-8.6995,-8.6995,-8.6995,-8.6995,-8.6995,-8.6995,-8.6995,-8.6995,-8.6995,-8.6995,-8.6995,-8.6995,-8.6995,-8.6995,-8.6995,-8.6995,-8.6995,-8.6995,-8.6995,-8.6995,-8.6995,-8.7031,-8.7105,-9.0152,-9.1657,-9.173,-9.1767,-9.1803,-5.1256,-5.3229,-5.5674,-6.2313,-6.7397,-7.127,-7.3279,-7.7141,-8.0439,-8.0977,-8.1093,-8.1093,-8.1093,-8.1093,-8.1093,-8.1093,-8.1093,-8.1093,-8.1093,-8.1093,-8.1045,-8.0893,-8.091,-8.0855,-8.0805,-8.0809,-8.086,-8.1029,-8.1458,-8.2128,-8.3093,-8.3401,-8.4209,-8.5632,-8.5363,-8.5478,-8.6094,-8.6094,-8.6094,-8.6094,-8.6094,-8.6094,-8.6132,-8.6671,-8.7248,-8.7769,-8.7243,-8.7528,-8.8415,-8.8383,-8.8439,-8.8624,-8.9092,-8.9427,-8.9673,-9.0143,-9.0372,-9.0415,-9.0699,-9.0717,-9.0593,-9.0593,-9.0593,-9.0593,-9.0593,-9.019,-8.9627,-8.9276,-8.8523,-8.7836,-8.7618,-8.7298,-8.6995,-8.6995,-8.6995,-8.7142,-8.7655,-8.7362,-8.6995,-8.6995,-8.6995,-8.6995,-8.6995,-8.6995,-8.6995,-8.6995,-8.6995,-8.6995,-8.6995,-8.6995,-8.6995,-8.6995,-8.6995,-8.6995,-8.6995,-8.6995,-8.6995,-8.6995,-8.6995,-8.6995,-8.6995,-8.6995,-8.6995,-8.6995,-8.6995,-8.7509,-8.8573,-8.9711,-9.0812,-9.1803,-9.1803,-9.1803,-4.8886,-5.0533,-5.2952,-5.8681,-6.2726,-6.6525,-7.1329,-7.4938,-7.805,-8.0569,-8.1093,-8.1093,-8.1093,-8.1093,-8.1093,-8.1093,-8.1093,-8.1093,-8.1093,-8.1093,-8.1061,-8.0943,-8.0959,-8.0959,-8.0888,-8.0893,-8.0965,-8.1077,-8.1814,-8.2622,-8.3555,-8.4132,-8.4824,-8.567,-8.5978,-8.6094,-8.6094,-8.6401,-8.6401,-8.6094,-8.6709,-8.6824,-8.6555,-8.744,-8.794,-8.806,-8.7721,-8.7857,-8.8415,-8.8409,-8.8579,-8.8887,-8.9601,-8.9862,-8.9908,-9.0419,-9.052,-9.0457,-9.0661,-9.0699,-9.0635,-9.0593,-9.0593,-9.0593,-9.0593,-9.019,-8.9714,-8.9714,-8.8832,-8.7898,-8.7898,-8.7645,-8.7399,-8.7399,-8.7619,-8.7876,-8.8133,-8.7582,-8.7105,-8.7362,-8.7178,-8.6995,-8.6995,-8.6995,-8.6995,-8.6995,-8.6995,-8.6995,-8.6995,-8.6995,-8.6995,-8.6995,-8.6995,-8.6995,-8.6995,-8.6995,-8.6995,-8.6995,-8.7778,-8.7873,-8.7029,-8.6995,-8.6995,-8.6995,-8.6995,-8.7545,-8.861,-8.9674,-9.0776,-9.1803,-9.1803,-9.1803,0.0,0.0,0.0,-5.5604,-5.6757,-5.9439,-7.1623,-7.3287,-7.3845,-7.9638,-8.09,-8.0977,-8.1093,-8.1093,-8.1093,-8.1093,-8.1093,-8.1093,-8.1093,-8.1093,-8.1061,-8.0943,-8.1007,-8.1061,-8.0943,-8.1007,-8.1093,-8.1093,-8.1862,-8.2708,-8.3555,-8.3632,-8.4055,-8.4901,-8.5709,-8.6094,-8.6094,-8.6978,-8.6978,-8.6132,-8.7825,-8.8209,-8.7401,-8.8286,-8.8671,-8.8637,-8.8521,-8.8426,-8.8401,-8.7871,-8.8118,-8.8969,-9.0015,-9.0423,-9.0485,-9.0989,-9.11,-9.1009,-9.0896,-9.0799,-9.0699,-9.0614,-9.0593,-9.0593,-9.0593,-9.019,-8.9739,-8.9739,-8.8859,-8.7898,-8.7904,-8.8055,-8.8206,-8.8243,-8.883,-8.9197,-8.8426,-8.7619,-8.7252,-8.8023,-8.7545,-8.6995,-8.6995,-8.6995,-8.6995,-8.6995,-8.7064,-8.7098,-8.7098,-8.7029,-8.6995,-8.6995,-8.6995,-8.6995,-8.6995,-8.6995,-8.6995,-8.6995,-8.9272,-8.9528,-8.7197,-8.7029,-8.6995,-8.6995,-8.6995,-8.6995,-8.7031,-9.0225,-9.1803,-9.1803,-9.1803,-9.1803,-4.4539,0.0,0.0,0.0,0.0,0.0,-5.9483,-6.4213,-6.9073,-7.371,-7.613,-7.8169,-8.0631,-8.1093,-8.1093,-8.1093,-8.1093,-8.1093,-8.1093,-8.1093,-8.1077,-8.1061,-8.1077,-8.1077,-8.1061,-8.1077,-8.1093,-8.1093,-8.2439,-8.3362,-8.3593,-8.4747,-8.5517,-8.5747,-8.5978,-8.6094,-8.6094,-8.6978,-8.6978,-8.6094,-8.7209,-8.7286,-8.6517,-8.8017,-8.8363,-8.7846,-8.9241,-8.9485,-8.8907,-8.8994,-8.9435,-9.0037,-9.0684,-9.0971,-9.0971,-9.1046,-9.1046,-9.0991,-9.0819,-9.0739,-9.0699,-9.0614,-9.0593,-9.0593,-9.0593,-9.0487,-9.0362,-9.0362,-8.9478,-8.8495,-8.8195,-8.8162,-8.8353,-8.894,-8.894,-8.905,-8.9784,-8.839,-8.7068,-8.7288,-8.7142,-8.6995,-8.6995,-8.6995,-8.6995,-8.6995,-8.8463,-8.9578,-8.9578,-8.8083,-8.6995,-8.6995,-8.6995,-8.6995,-8.6995,-8.6995,-8.6995,-8.6995,-8.9272,-9.0317,-8.9641,-8.7929,-8.6995,-8.6995,-8.6995,-8.6995,-8.7031,-9.0225,-9.1803,-9.1803,-9.1803,-9.1803,-4.5388,-4.6042,-4.7263,-4.8039,0.0,0.0,-5.8736,-6.2671,-6.7117,-7.4417,-7.7092,-7.8746,-8.0746,-8.1093,-8.1093,-8.1093,-8.1093,-8.1093,-8.1093,-8.1093,-8.1093,-8.1093,-8.1093,-8.1093,-8.1093,-8.1093,-8.1093,-8.1093,-8.2324,-8.3362,-8.4093,-8.5055,-8.5747,-8.6094,-8.6094,-8.6286,-8.6632,-8.7517,-8.7517,-8.6671,-8.8248,-8.8363,-8.7248,-8.894,-8.9479,-8.9038,-8.9974,-9.0238,-8.9975,-8.9958,-9.0127,-9.0444,-9.0989,-9.121,-9.1192,-9.11,-9.1082,-9.1064,-9.0896,-9.0819,-9.0759,-9.0658,-9.0614,-9.0593,-9.0593,-9.0593,-9.0593,-9.0593,-8.9966,-8.9157,-8.8401,-8.872,-8.9307,-8.9674,-8.9858,-9.0152,-9.0922,-9.0005,-8.8867,-8.8426,-8.7619,-8.6995,-8.6995,-8.6995,-8.6995,-8.6995,-8.905,-9.0235,-8.9246,-8.7867,-8.6995,-8.6995,-8.6995,-8.6995,-8.6995,-8.6995,-8.7427,-8.8434,-8.9811,-9.0167,-8.913,-8.7746,-8.6995,-8.6995,-8.6995,-8.6995,-8.6995,-8.8904,-9.0482,-9.184,-9.2891,-9.2793,-4.6746,-4.743,-4.911,-5.0529,-4.9484,0.0,-6.2517,-6.3787,-6.5538,-7.5999,-7.8376,-7.8669,-7.9054,-7.9208,-7.9246,-7.9131,-7.9746,-8.0439,-8.1016,-8.1093,-8.1093,-8.1093,-8.1093,-8.1093,-8.1093,-8.1093,-8.1093,-8.1093,-8.1862,-8.3016,-8.467,-8.4863,-8.5247,-8.594,-8.6055,-8.6517,-8.7401,-8.8248,-8.8286,-8.7555,-8.994,-9.0248,-8.8748,-9.0325,-9.1056,-9.1038,-9.0646,-9.0762,-9.1136,-9.0684,-9.0485,-9.0564,-9.0989,-9.121,-9.121,-9.121,-9.121,-9.1192,-9.1064,-9.0953,-9.0896,-9.0739,-9.0638,-9.0593,-9.0593,-9.0669,-9.0725,-9.0694,-9.036,-8.9793,-8.8732,-8.9417,-9.0372,-9.0372,-9.1106,-9.173,-9.1583,-9.14,-9.1069,-9.0482,-8.8536,-8.6995,-8.6995,-8.6995,-8.6995,-8.6995,-8.8832,-8.9427,-8.7265,-8.6995,-8.6995,-8.6995,-8.6995,-8.6995,-8.6995,-8.6995,-8.8022,-9.0465,-9.0593,-8.9503,-8.7098,-8.6995,-8.6995,-8.6995,-8.6995,-8.6995,-8.6995,-8.6995,-8.8647,-9.1839,-9.4122,-9.3944,-4.9928,-4.9503,-5.0092,-4.9121,-5.0236,0.0,-5.0326,-5.2932,-5.6364,-5.9196,-6.1346,-6.3589,-6.6282,-6.7359,-6.759,-6.6898,-7.1398,-7.6399,-8.0516,-8.1093,-8.1093,-8.1093,-8.1093,-8.1093,-8.1093,-8.1093,-8.1093,-8.1093,-8.1862,-8.2747,-8.3785,-8.4516,-8.4978,-8.5132,-8.5747,-8.6517,-8.7401,-8.8248,-8.8594,-8.844,-8.9594,-8.9633,-8.8709,-8.971,-9.0171,-9.0192,-9.0775,-9.11,-9.121,-9.1082,-9.1064,-9.1064,-9.1175,-9.121,-9.121,-9.121,-9.121,-9.1192,-9.1064,-9.0953,-9.0896,-9.0739,-9.0638,-9.0593,-9.0593,-9.1052,-9.1511,-9.1241,-9.0651,-9.0085,-9.0133,-8.9564,-8.9417,-9.1106,-9.1657,-9.1436,-9.0152,-8.8867,-8.8647,-9.1033,-8.905,-8.6995,-8.6995,-8.6995,-8.6995,-8.6995,-8.7394,-8.7558,-8.7064,-8.6995,-8.6995,-8.6995,-8.6995,-8.6995,-8.6995,-8.6995,-8.8022,-9.0465,-9.0593,-8.9503,-8.7098,-8.6995,-8.6995,-8.6995,-8.6995,-8.6995,-8.6995,-8.6995,-8.8647,-9.1803,-9.2296,-9.2262,-5.1708,-5.0511,-5.0872,-5.0859,-5.0985,0.0,0.0,-5.3836,-5.5993,-6.0015,-6.0877,-6.1654,-6.414,-6.4243,-6.3935,-6.3935,-6.8975,-7.286,-7.286,-7.763,-8.1093,-8.1093,-8.1093,-8.1093,-8.1093,-8.1093,-8.1093,-8.1093,-8.1477,-8.2247,-8.3516,-8.4016,-8.4632,-8.5478,-8.5901,-8.6748,-8.8017,-8.8479,-8.8902,-8.9325,-9.0171,-9.0094,-8.9325,-9.0171,-9.0556,-9.0556,-9.1018,-9.121,-9.121,-9.121,-9.121,-9.121,-9.121,-9.121,-9.121,-9.121,-9.121,-9.1192,-9.1118,-9.0991,-9.0896,-9.0819,-9.0717,-9.0669,-9.109,-9.1778,-9.2192,-9.1041,-9.071,-9.0467,-8.9617,-8.9417,-8.9601,-9.0408,-9.1216,-9.1143,-8.872,-8.7582,-8.7472,-8.9087,-9.0409,-9.0864,-8.959,-8.9381,-8.8867,-8.7252,-8.6995,-8.6995,-8.6995,-8.6995,-8.6995,-8.6995,-8.8083,-8.8287,-8.7098,-8.6995,-8.8022,-9.0465,-9.0593,-8.9503,-8.7098,-8.6995,-8.6995,-8.6995,-8.8573,-9.0188,-9.184,-9.184,-9.184,-9.1803,-9.1803,-9.1803,-5.3964,-5.2252,-5.2514,-5.2983,-5.2159,-5.2284,0.0,0.0,0.0,-6.2089,-6.1533,-6.0447,-6.1739,-6.0973,-6.0319,-6.0858,-6.5474,-6.7513,-6.3243,-7.1321,-7.7746,-7.79,-7.9785,-8.0708,-7.9746,-7.9477,-7.9862,-8.1016,-8.0054,-8.0554,-8.3208,-8.3516,-8.4286,-8.5824,-8.6017,-8.694,-8.8671,-8.8709,-8.9171,-9.0171,-9.0864,-9.0825,-9.0171,-9.0902,-9.121,-9.121,-9.121,-9.121,-9.121,-9.121,-9.121,-9.121,-9.121,-9.121,-9.121,-9.121,-9.121,-9.121,-9.121,-9.1084,-9.0915,-9.1069,-9.1102,-9.1243,-9.2045,-9.2809,-9.2977,-9.1212,-9.1019,-9.0908,-8.927,-8.9193,-8.9564,-8.9454,-9.0152,-9.0152,-8.7582,-8.6995,-8.6995,-8.6995,-9.1267,-9.4205,-9.2159,-9.1803,-9.0702,-8.7472,-8.6995,-8.6995,-8.6995,-8.6995,-8.6995,-8.6995,-8.913,-8.9641,-8.7197,-8.7427,-8.8521,-9.0487,-9.0593,-8.9739,-8.7778,-8.782,-8.8243,-8.8867,-9.1436,-9.4042,-9.6685,-9.6685,-9.4997,-9.1803,-9.1803,-9.1803,-5.9008,-5.6985,-5.6613,-5.2964,-5.4244,-5.4962,-4.966,0.0,-5.106,-4.9598,0.0,-4.769,-4.7865,0.0,0.0,-4.7865,-5.328,-5.7126,-5.5818,-6.1243,-6.5628,-6.6397,-7.513,-7.9323,-7.4822,-7.3668,-7.5399,-8.0708,-7.6207,-7.5899,-8.2131,-8.317,-8.4055,-8.5016,-8.5747,-8.694,-8.8671,-8.8709,-8.9479,-9.1056,-9.1171,-9.1171,-9.1056,-9.1171,-9.121,-9.121,-9.121,-9.121,-9.121,-9.121,-9.121,-9.121,-9.121,-9.121,-9.121,-9.121,-9.121,-9.121,-9.121,-9.1084,-9.103,-9.1721,-9.2348,-9.3,-9.3841,-9.4185,-9.4074,-9.3239,-9.2189,-9.125,-9.1158,-8.9277,-8.7729,-8.9052,-8.8463,-8.7472,-8.7105,-8.6995,-8.6995,-8.6995,-8.9845,-9.2159,-9.1876,-9.1803,-9.0702,-8.7472,-8.6995,-8.6995,-8.6995,-8.6995,-8.6995,-8.6995,-8.913,-8.9641,-8.7197,-8.8941,-9.0317,-9.0572,-9.0593,-9.0487,-9.019,-9.087,-9.2611,-9.5547,-9.5951,-9.6318,-9.6685,-9.6685,-9.4997,-9.1803,-9.1803,-9.1803,-5.9219,-5.9033,-5.9865,-5.5941,-5.6854,-5.7284,-5.1862,-5.037,-4.9954,-4.926,0.0,0.0,0.0,0.0,0.0,0.0,-5.1202,-5.3857,-5.0548,-5.7742,-6.3435,-6.382,-6.7936,-7.1283,-7.2629,-7.3283,-7.5707,-8.0708,-7.6476,-7.6399,-8.2708,-8.3401,-8.4209,-8.5555,-8.594,-8.694,-8.8671,-8.8709,-8.9556,-9.121,-9.121,-9.121,-9.121,-9.121,-9.121,-9.121,-9.121,-9.121,-9.121,-9.121,-9.121,-9.121,-9.121,-9.121,-9.121,-9.121,-9.121,-9.121,-9.121,-9.1428,-9.1836,-9.2543,-9.3281,-9.3917,-9.4299,-9.472,-9.486,-9.3794,-9.3009,-9.2377,-9.1604,-9.0156,-8.8867,-8.894,-8.7949,-8.6995,-8.6995,-8.6995,-8.6995,-8.6995,-8.9601,-9.1803,-9.1803,-9.1803,-9.1326,-9.0005,-8.9784,-8.9784,-8.9784,-8.9784,-8.9784,-8.9784,-9.0689,-9.0875,-8.9891,-8.8976,-8.9103,-9.0508,-9.2427,-9.3497,-9.3497,-9.4233,-9.529,-9.6685,-9.6685,-9.6685,-9.6685,-9.6685,-9.5988,-9.4593,-9.2684,-9.1803,-6.2191,-6.2291,-6.287,-5.7464,-5.7387,-5.7464,-5.2906,-5.0996,-5.0336,-5.0652,-4.9453,0.0,0.0,0.0,-4.7048,-4.7201,0.0,-5.1279,-4.7124,-5.3433,-5.855,-5.8769,-6.0242,-6.3474,-6.9206,-6.9821,-7.2322,-7.8207,-7.4707,-7.5592,-8.317,-8.3593,-8.4362,-8.6055,-8.6094,-8.694,-8.8671,-8.8709,-8.9556,-9.121,-9.121,-9.121,-9.121,-9.121,-9.121,-9.121,-9.121,-9.121,-9.121,-9.121,-9.121,-9.121,-9.121,-9.11,-9.0989,-9.1175,-9.121,-9.1248,-9.1479,-9.2158,-9.3006,-9.3277,-9.3972,-9.4698,-9.4525,-9.5013,-9.5385,-9.4116,-9.3642,-9.3252,-9.2161,-9.1365,-9.0728,-9.0015,-8.8711,-8.7545,-8.7105,-8.6995,-8.7455,-8.905,-9.1259,-9.2633,-9.1912,-9.1803,-9.1803,-9.1803,-9.1803,-9.1803,-9.1803,-9.1803,-9.1803,-9.1803,-9.1803,-9.1803,-9.1803,-9.0284,-9.0503,-9.318,-9.5637,-9.6974,-9.6974,-9.677,-9.6685,-9.6685,-9.6685,-9.6685,-9.6685,-9.6685,-9.6685,-9.6649,-9.4263,-9.3125,-7.0739,-6.8251,-6.5833,-5.5829,-5.4598,-5.4544,-4.9591,-5.0186,-5.1645,-5.0943,-5.1304,-5.151,-5.075,-5.0558,-4.9971,-4.8317,-4.8202,0.0,0.0,-4.5941,-4.6471,-4.7317,-5.2472,-5.7973,-6.3077,-5.9923,-6.1743,0.0,-6.8552,-7.1283,-8.2978,-8.3593,-8.4362,-8.6055,-8.6094,-8.694,-8.8671,-8.8709,-8.9556,-9.121,-9.121,-9.121,-9.121,-9.121,-9.121,-9.121,-9.121,-9.121,-9.121,-9.121,-9.121,-9.121,-9.121,-9.0858,-9.0485,-9.0989,-9.121,-9.1325,-9.2172,-9.3389,-9.4515,-9.3806,-9.4463,-9.5433,-9.4857,-9.5186,-9.5576,-9.4643,-9.3991,-9.3552,-9.3378,-9.3009,-9.27,-9.2903,-9.1105,-8.8904,-8.7362,-8.6995,-8.8641,-9.4244,-9.5394,-9.4693,-9.2192,-9.1803,-9.1803,-9.1803,-9.1803,-9.1803,-9.1803,-9.1803,-9.1803,-9.1803,-9.1803,-9.1803,-9.1803,-9.3953,-9.6715,-10.0107,-10.0413,-10.0413,-10.0413,-9.7997,-9.6685,-9.6685,-9.6685,-9.6685,-9.6685,-9.6685,-9.6685,-9.6685,-9.6575,-9.6539,-7.4473,-7.5656,-7.5207,-6.4447,-6.3446,-6.2761,-5.361,-5.2175,-5.2376,-5.1028,-5.1828,-5.2356,-5.0943,-5.0712,-5.0125,-4.8394,-4.8086,-4.7509,0.0,-4.5594,-4.571,-4.6009,-5.1279,-5.5602,-5.7361,-6.0773,0.0,0.0,-7.1967,0.0,-8.317,-8.3593,-8.4362,-8.6055,-8.6671,-8.7517,-8.8671,-8.9248,-9.0056,-9.121,-9.121,-9.121,-9.121,-9.121,-9.121,-9.121,-9.121,-9.121,-9.121,-9.121,-9.121,-9.121,-9.121,-9.1082,-9.0952,-9.1118,-9.1355,-9.1777,-9.3561,-9.4388,-9.4768,-9.5041,-9.5337,-9.5576,-9.5379,-9.5471,-9.5604,-9.5277,-9.5051,-9.4814,-9.4364,-9.4161,-9.3693,-9.2399,-9.1985,-9.1354,-8.9522,-8.9674,-9.0764,-9.27,-9.4459,-9.5318,-9.4447,-9.2923,-9.1803,-9.1803,-9.1803,-9.1803,-9.1803,-9.1803,-9.1803,-9.1803,-9.1803,-9.1803,-9.1803,-9.415,-9.7012,-10.0413,-10.0604,-9.9805,-9.8105,-9.7174,-9.6685,-9.6685,-9.6685,-9.6685,-9.6685,-9.846,-9.9302,-9.9302,-9.9302,-9.8327,-7.9321,-8.087,-8.0588,-7.0718,-6.9788,-6.864,-5.869,-5.6823,-5.6879,-5.5527,-5.493,-5.5296,-5.7495,-5.4736,-5.203,-5.1751,-5.0212,-4.8211,0.0,-4.5594,-4.5594,-4.5594,-4.898,-5.2175,-5.4361,-5.7369,0.0,0.0,0.0,0.0,0.0,-8.3593,-8.4362,-8.6055,-8.694,-8.7825,-8.8671,-8.9517,-9.0364,-9.121,-9.121,-9.121,-9.121,-9.121,-9.121,-9.121,-9.121,-9.121,-9.121,-9.121,-9.121,-9.121,-9.121,-9.1082,-9.0952,-9.1118,-9.17,-9.264,-9.4406,-9.5079,-9.523,-9.5504,-9.561,-9.5643,-9.5387,-9.5493,-9.5664,-9.5664,-9.5664,-9.5576,-9.5153,-9.4994,-9.4617,-9.2967,-9.2872,-9.2838,-9.1906,-9.2316,-9.2996,-9.3316,-9.4555,-9.5598,-9.5598,-9.3477,-9.1803,-9.1803,-9.1803,-9.1803,-9.1803,-9.1803,-9.1803,-9.1803,-9.1803,-9.2281,-9.3418,-9.5923,-9.8311,-10.0489,-9.9725,-9.8455,-9.6762,-9.6685,-9.6685,-9.6685,-9.6685,-9.6685,-9.6685,-9.933,-10.0604,-10.0604,-10.1788,-10.1508]},{"header":{"parameterUnit":"m.s-1","parameterCategory":1,"la1":30.6,"la2":29.2853,"lo1":-89.7004,"lo2":-87.6739,"dx":0.0162,"dy":0.0183,"nx":112,"ny":82,"refTime":"2022-12-12T18:00:00:Z","depth":0,"parameterNumber":3,"parameterNumberName":"V-component_of_WINDS"},"data":[0.0,0.0,0.0,0.0,0.0,0.0,0.0,0.0,0.0,0.0,0.0,0.0,0.0,0.0,0.0,0.0,0.0,0.0,0.0,0.0,0.0,0.0,0.0,0.0,0.0,0.0,0.0,0.0,0.0,0.0,0.0,0.0,0.0,0.0,0.0,0.0,0.0,0.0,0.0,0.0,0.0,0.0,0.0,0.0,0.0,0.0,0.0,0.0,0.0,0.0,0.0,0.0,0.0,0.0,0.0,0.0,0.0,0.0,0.0,0.0,0.0,0.0,0.0,0.0,0.0,0.0,0.0,0.0,0.0,0.0,0.0,0.0,0.0,0.0,0.0,0.0,0.0,0.0,0.0,0.0,0.0,0.0,0.0,0.0,0.0,0.0,0.0,0.0,0.0,0.0,3.624,3.9419,4.3964,4.7111,4.7995,4.8347,4.6242,4.1004,0.0,0.0,0.0,0.0,0.0,0.0,0.0,0.0,0.0,0.0,0.0,0.0,0.0,0.0,0.0,0.0,0.0,0.0,0.0,0.0,0.0,0.0,0.0,0.0,0.0,0.0,0.0,0.0,0.0,0.0,0.0,0.0,0.0,0.0,0.0,0.0,0.0,0.0,0.0,0.0,0.0,0.0,0.0,0.0,0.0,0.0,0.0,0.0,0.0,0.0,0.0,0.0,0.0,0.0,0.0,0.0,0.0,0.0,0.0,0.0,0.0,0.0,0.0,0.0,0.0,0.0,0.0,0.0,0.0,0.0,0.0,0.0,0.0,0.0,0.0,0.0,0.0,0.0,0.0,0.0,0.0,0.0,0.0,0.0,0.0,0.0,0.0,0.0,0.0,0.0,0.0,0.0,0.0,0.0,0.0,0.0,0.0,0.0,0.0,0.0,0.0,0.0,0.0,0.0,3.5931,4.3383,4.4908,4.6091,4.7792,4.7182,4.4561,3.9549,0.0,0.0,0.0,0.0,0.0,0.0,0.0,0.0,0.0,0.0,0.0,0.0,0.0,0.0,0.0,0.0,0.0,0.0,0.0,0.0,0.0,0.0,0.0,0.0,0.0,0.0,0.0,0.0,0.0,0.0,0.0,0.0,0.0,0.0,0.0,0.0,0.0,0.0,0.0,0.0,0.0,0.0,0.0,0.0,0.0,0.0,0.0,0.0,0.0,0.0,0.0,0.0,0.0,0.0,0.0,0.0,0.0,0.0,0.0,0.0,0.0,0.0,0.0,0.0,0.0,0.0,0.0,0.0,0.0,0.0,0.0,0.0,0.0,0.0,0.0,0.0,0.0,0.0,0.0,0.0,0.0,0.0,0.0,0.0,0.0,0.0,0.0,0.0,0.0,0.0,0.0,0.0,0.0,0.0,0.0,0.0,0.0,0.0,0.0,0.0,0.0,0.0,0.0,3.3471,3.7578,4.443,4.5603,4.6397,4.7783,4.7205,4.4367,3.8743,3.7946,0.0,0.0,0.0,0.0,0.0,0.0,0.0,0.0,0.0,0.0,0.0,0.0,0.0,0.0,0.0,0.0,0.0,0.0,0.0,0.0,0.0,0.0,0.0,0.0,0.0,0.0,0.0,0.0,0.0,0.0,0.0,0.0,0.0,0.0,0.0,0.0,0.0,0.0,0.0,0.0,0.0,0.0,0.0,0.0,0.0,0.0,0.0,0.0,0.0,0.0,0.0,0.0,0.0,0.0,0.0,0.0,0.0,0.0,0.0,0.0,0.0,0.0,0.0,0.0,0.0,0.0,0.0,0.0,0.0,0.0,0.0,0.0,0.0,0.0,0.0,0.0,0.0,0.0,0.0,0.0,0.0,0.0,0.0,0.0,0.0,0.0,0.0,0.0,0.0,0.0,0.0,0.0,0.0,0.0,0.0,0.0,0.0,0.0,0.0,0.0,0.0,0.0,3.6252,3.9358,4.403,4.5396,4.6463,4.748,4.742,4.4769,3.8793,3.7161,0.0,0.0,0.0,0.0,0.0,0.0,0.0,0.0,0.0,0.0,0.0,0.0,0.0,0.0,0.0,0.0,0.0,0.0,0.0,0.0,0.0,0.0,0.0,0.0,0.0,0.0,0.0,0.0,0.0,0.0,0.0,0.0,0.0,0.0,0.0,0.0,0.0,0.0,0.0,0.0,0.0,0.0,0.0,0.0,0.0,0.0,0.0,0.0,0.0,0.0,0.0,0.0,0.0,0.0,0.0,0.0,0.0,0.0,0.0,0.0,0.0,0.0,0.0,0.0,0.0,0.0,0.0,0.0,0.0,0.0,0.0,0.0,0.0,0.0,0.0,0.0,0.0,0.0,0.0,0.0,0.0,0.0,0.0,0.0,0.0,0.0,0.0,0.0,0.0,0.0,0.0,0.0,0.0,0.0,0.0,0.0,0.0,0.0,0.0,0.0,0.0,0.0,3.6993,4.0625,4.2239,4.3782,4.5295,4.6583,4.7379,4.5472,3.9923,3.7588,0.0,0.0,0.0,0.0,0.0,0.0,0.0,0.0,0.0,0.0,0.0,0.0,0.0,0.0,0.0,0.0,0.0,0.0,0.0,0.0,0.0,0.0,0.0,0.0,0.0,0.0,0.0,0.0,0.0,0.0,0.0,0.0,0.0,0.0,0.0,0.0,0.0,0.0,0.0,0.0,0.0,0.0,0.0,0.0,0.0,0.0,0.0,0.0,0.0,0.0,0.0,0.0,0.0,0.0,0.0,0.0,0.0,0.0,0.0,0.0,0.0,0.0,0.0,0.0,0.0,0.0,0.0,0.0,0.0,0.0,0.0,0.0,0.0,0.0,0.0,0.0,0.0,0.0,0.0,0.0,0.0,0.0,0.0,0.0,0.0,0.0,0.0,0.0,0.0,0.0,0.0,0.0,0.0,0.0,0.0,0.0,0.0,0.0,0.0,0.0,0.0,0.0,3.6535,4.0093,4.2936,4.3451,4.4165,4.5629,4.6254,4.4061,3.8198,0.0,0.0,0.0,0.0,0.0,0.0,0.0,0.0,0.0,0.0,0.0,0.0,0.0,0.0,0.0,0.0,0.0,0.0,0.0,0.0,0.0,0.0,0.0,0.0,0.0,0.0,0.0,0.0,0.0,0.0,0.0,0.0,0.0,0.0,0.0,0.0,0.0,0.0,0.0,0.0,0.0,0.0,0.0,0.0,0.0,0.0,0.0,0.0,0.0,0.0,0.0,0.0,0.0,0.0,0.0,0.0,0.0,0.0,0.0,0.0,0.0,0.0,0.0,0.0,0.0,0.0,0.0,0.0,0.0,0.0,0.0,0.0,0.0,0.0,0.0,0.0,0.0,0.0,0.0,0.0,0.0,0.0,0.0,0.0,0.0,0.0,0.0,0.0,0.0,0.0,0.0,0.0,0.0,0.0,0.0,0.0,0.0,0.0,0.0,0.0,0.0,0.0,3.3513,3.7011,4.041,4.3464,4.3831,4.4145,4.484,4.5634,4.3325,3.6932,0.0,0.0,0.0,0.0,0.0,0.0,0.0,0.0,0.0,0.0,0.0,0.0,0.0,0.0,0.0,0.0,0.0,0.0,0.0,0.0,0.0,0.0,0.0,0.0,0.0,0.0,0.0,0.0,0.0,0.0,0.0,0.0,0.0,0.0,0.0,0.0,0.0,0.0,0.0,0.0,0.0,0.0,0.0,0.0,0.0,0.0,0.0,0.0,0.0,0.0,0.0,0.0,0.0,0.0,0.0,0.0,0.0,0.0,0.0,0.0,0.0,0.0,0.0,0.0,0.0,0.0,0.0,0.0,0.0,0.0,0.0,0.0,0.0,0.0,0.0,0.0,0.0,0.0,0.0,0.0,0.0,0.0,0.0,0.0,0.0,0.0,0.0,0.0,0.0,0.0,0.0,0.0,0.0,0.0,0.0,0.0,0.0,0.0,0.0,0.0,0.0,0.0,3.465,3.8818,4.2104,4.3449,4.4966,4.5448,4.451,4.5711,4.3608,0.0,0.0,0.0,0.0,0.0,0.0,0.0,0.0,0.0,0.0,0.0,0.0,0.0,0.0,0.0,0.0,0.0,0.0,0.0,0.0,0.0,0.0,0.0,0.0,0.0,0.0,0.0,0.0,0.0,0.0,0.0,0.0,0.0,0.0,0.0,0.0,0.0,0.0,0.0,0.0,0.0,0.0,0.0,0.0,0.0,0.0,0.0,0.0,0.0,0.0,0.0,0.0,0.0,0.0,0.0,0.0,0.0,0.0,0.0,0.0,0.0,0.0,0.0,0.0,0.0,0.0,0.0,0.0,0.0,0.0,0.0,0.0,0.0,0.0,0.0,0.0,0.0,0.0,0.0,0.0,0.0,0.0,0.0,0.0,0.0,0.0,0.0,0.0,0.0,0.0,0.0,0.0,0.0,0.0,0.0,0.0,0.0,0.0,0.0,0.0,0.0,0.0,0.0,3.4671,3.9309,4.2559,4.2642,4.3359,4.3646,4.3373,4.4402,4.2369,3.6019,0.0,0.0,0.0,0.0,0.0,0.0,0.0,0.0,0.0,0.0,0.0,0.0,0.0,0.0,0.0,0.0,0.0,0.0,0.0,0.0,0.0,0.0,0.0,0.0,0.0,0.0,0.0,0.0,0.0,0.0,0.0,0.0,0.0,0.0,0.0,0.0,0.0,0.0,0.0,0.0,0.0,0.0,0.0,0.0,0.0,0.0,0.0,0.0,0.0,0.0,0.0,0.0,0.0,0.0,0.0,0.0,0.0,0.0,0.0,0.0,0.0,0.0,0.0,0.0,0.0,0.0,0.0,0.0,0.0,0.0,0.0,0.0,0.0,0.0,0.0,0.0,0.0,0.0,0.0,0.0,0.0,0.0,0.0,0.0,0.0,0.0,0.0,0.0,0.0,0.0,0.0,0.0,0.0,0.0,0.0,0.0,0.0,0.0,0.0,0.0,0.0,0.0,3.49,3.9806,4.3242,4.3346,4.3594,4.3677,4.3491,4.4006,4.211,3.6873,0.0,0.0,0.0,0.0,0.0,0.0,0.0,0.0,0.0,0.0,0.0,0.0,0.0,0.0,0.0,0.0,0.0,0.0,0.0,0.0,0.0,0.0,0.0,0.0,0.0,0.0,0.0,0.0,0.0,0.0,0.0,0.0,0.0,0.0,0.0,0.0,0.0,0.0,0.0,0.0,0.0,0.0,0.0,0.0,0.0,0.0,0.0,0.0,0.0,0.0,0.0,0.0,0.0,0.0,0.0,0.0,0.0,0.0,0.0,0.0,0.0,0.0,0.0,0.0,0.0,0.0,0.0,0.0,0.0,0.0,0.0,0.0,0.0,0.0,0.0,0.0,0.0,0.0,0.0,0.0,0.0,0.0,0.0,0.0,0.0,0.0,0.0,0.0,0.0,0.0,0.0,0.0,0.0,0.0,0.0,0.0,0.0,0.0,0.0,0.0,0.0,0.0,3.5355,4.0282,4.4008,4.4898,4.5022,4.4877,4.4463,4.4381,4.2663,3.8626,0.0,0.0,0.0,0.0,0.0,0.0,0.0,0.0,0.0,0.0,0.0,0.0,0.0,0.0,0.0,0.0,0.0,0.0,0.0,0.0,0.0,0.0,0.0,0.0,0.0,0.0,0.0,0.0,0.0,0.0,0.0,0.0,0.0,0.0,0.0,0.0,0.0,0.0,0.0,0.0,0.0,0.0,0.0,0.0,0.0,0.0,0.0,0.0,0.0,0.0,0.0,0.0,0.0,0.0,0.0,0.0,0.0,0.0,0.0,0.0,2.0481,1.8607,0.0,0.0,0.0,0.0,0.0,0.0,0.0,0.0,0.0,0.0,0.0,0.0,0.0,0.0,0.0,0.0,0.0,0.0,0.0,0.0,0.0,0.0,0.0,0.0,0.0,0.0,0.0,0.0,0.0,0.0,0.0,0.0,0.0,0.0,0.0,0.0,0.0,0.0,0.0,0.0,3.5749,4.0758,4.4381,4.494,4.5312,4.5498,4.5395,4.5064,4.3408,4.0013,3.8812,0.0,0.0,0.0,0.0,0.0,0.0,0.0,0.0,0.0,0.0,0.0,0.0,0.0,0.0,0.0,0.0,0.0,0.0,0.0,0.0,0.0,0.0,0.0,0.0,0.0,0.0,0.0,0.0,0.0,0.0,0.0,0.0,0.0,0.0,0.0,0.0,0.0,0.0,0.0,0.0,0.0,0.0,0.0,0.0,0.0,0.0,0.0,0.0,0.0,0.0,0.0,0.0,0.0,0.0,0.0,0.0,0.0,0.0,0.0,2.3425,2.208,0.0,0.0,0.0,0.0,0.0,0.0,0.0,0.0,0.0,0.0,0.0,0.0,0.0,0.0,0.0,0.0,0.0,0.0,0.0,0.0,0.0,0.0,0.0,0.0,0.0,0.0,0.0,0.0,0.0,0.0,0.0,0.0,0.0,0.0,0.0,0.0,0.0,0.0,0.0,0.0,3.6266,4.1441,4.5147,4.5602,4.585,4.6099,4.6326,4.6119,4.5084,4.2973,4.1037,0.0,0.0,0.0,0.0,0.0,0.0,0.0,0.0,0.0,0.0,0.0,0.0,0.0,0.0,0.0,0.0,0.0,0.0,0.0,0.0,0.0,0.0,0.0,0.0,0.0,0.0,0.0,0.0,0.0,0.0,0.0,0.0,0.0,0.0,0.0,0.0,0.0,0.0,0.0,0.0,0.0,0.0,0.0,0.0,0.0,0.0,0.0,0.0,0.0,0.0,0.0,0.0,0.0,2.2596,2.3254,2.4154,2.3928,2.5114,2.728,2.667,2.6166,2.5708,2.4142,0.0,0.0,0.0,0.0,0.0,0.0,0.0,0.0,0.0,0.0,0.0,0.0,0.0,0.0,0.0,0.0,0.0,0.0,0.0,0.0,0.0,0.0,3.3948,3.401,3.548,3.6018,3.3099,0.0,0.0,0.0,0.0,0.0,0.0,0.0,0.0,0.0,0.0,0.0,3.755,4.2456,4.5995,4.6513,4.6575,4.674,4.7113,4.7154,4.6803,4.5975,4.3206,4.0859,0.0,0.0,0.0,0.0,0.0,0.0,0.0,0.0,0.0,0.0,0.0,0.0,0.0,0.0,0.0,0.0,0.0,0.0,0.0,0.0,0.0,0.0,0.0,0.0,0.0,0.0,0.0,0.0,0.0,0.0,0.0,0.0,1.3749,1.5199,0.0,0.0,0.0,0.0,0.0,0.0,0.0,0.0,0.0,0.0,0.0,0.0,0.0,2.0534,2.1859,2.3706,2.4423,2.4203,2.6235,2.7304,2.7479,2.8079,2.8701,2.9472,3.1002,0.0,2.6367,2.8334,0.0,0.0,0.0,0.0,0.0,0.0,0.0,0.0,0.0,0.0,0.0,0.0,0.0,0.0,0.0,0.0,0.0,0.0,0.0,0.0,0.0,0.0,3.875,3.9075,3.9475,3.9661,3.9558,3.5769,3.2112,3.1409,3.194,3.1505,0.0,0.0,0.0,0.0,0.0,0.0,4.1007,4.4298,4.6575,4.7424,4.7506,4.7527,4.7589,4.761,4.7382,4.6885,4.6409,4.4463,4.0758,3.9834,0.0,0.0,0.0,0.0,0.0,0.0,0.0,0.0,0.0,0.0,0.0,0.0,0.0,0.0,0.0,0.0,0.0,0.0,0.0,0.0,0.0,0.0,0.0,0.0,0.0,0.0,0.0,0.0,0.0,1.3706,1.4795,1.631,1.5671,1.4821,0.0,0.0,0.0,0.0,0.0,0.0,0.0,0.0,0.0,2.202,2.2666,2.3681,2.5154,2.5988,2.6252,2.5944,2.7114,2.7925,2.8414,2.8699,2.9164,2.9797,3.1498,3.0694,2.8365,3.0341,2.9833,2.7783,0.0,0.0,0.0,0.0,2.8992,2.9546,3.2468,3.3263,3.2763,3.1571,0.0,0.0,0.0,0.0,0.0,0.0,0.0,3.343,3.6183,3.7819,3.9206,4.0965,4.1379,4.1421,4.1607,3.9765,3.7488,3.55,3.459,3.3141,2.9932,3.1215,0.0,0.0,0.0,3.9785,4.2311,4.525,4.7361,4.8003,4.8065,4.8189,4.8438,4.8459,4.8272,4.7817,4.7548,4.6471,4.4422,4.2166,3.9309,0.0,0.0,0.0,0.0,0.0,0.0,0.0,0.0,0.0,0.0,0.0,0.0,0.0,0.0,0.0,0.0,0.0,0.0,0.0,0.0,0.0,0.0,0.0,0.0,0.0,0.0,0.0,0.0,1.5309,1.6437,1.7809,1.7972,1.7469,0.0,0.0,0.0,0.0,0.0,0.0,2.0724,2.1442,2.266,2.4484,2.5319,2.6252,2.7466,2.7642,2.7554,2.7232,2.7569,2.8028,2.8552,2.8626,2.9018,2.9686,3.1007,3.1225,3.0681,3.2483,3.284,3.204,3.1337,3.0844,3.0792,3.2769,3.3392,3.3755,3.7016,3.7914,3.7294,3.6148,3.5086,3.37,3.1081,0.0,0.0,0.0,0.0,3.5376,3.8026,3.8978,3.9765,4.1917,4.2518,4.2642,4.2745,4.2497,4.1586,3.933,3.7881,3.608,3.312,3.4672,0.0,3.4817,3.8688,4.2373,4.4091,4.6389,4.8045,4.85,4.8541,4.8686,4.9038,4.9059,4.8914,4.8583,4.8231,4.7775,4.7217,4.4588,4.2373,4.0779,0.0,0.0,0.0,0.0,0.0,0.0,0.0,0.0,0.0,0.0,0.0,0.0,0.0,0.0,0.0,0.0,0.0,0.0,0.0,0.0,0.0,0.0,0.0,0.0,0.0,0.0,0.0,0.0,0.0,2.0409,2.0334,0.0,0.0,0.0,0.0,2.0863,2.2148,2.3542,2.5066,2.5222,2.5903,2.7232,2.7349,2.7393,2.7481,2.8081,2.8227,2.783,2.8151,2.8379,2.8552,2.8866,2.9229,2.9641,3.0515,3.1622,3.3179,3.5856,3.5047,3.2478,3.5311,3.5603,3.4696,3.6036,3.7133,3.8083,3.953,4.0344,4.0593,4.0088,3.778,3.525,3.5046,3.4118,0.0,0.0,3.8166,3.9102,4.1421,4.2115,4.2186,4.2766,4.3221,4.3656,4.4112,4.318,4.2331,4.26,4.2932,4.2414,4.0075,0.0,4.0841,4.1628,4.2094,4.3656,4.7589,4.8231,4.8521,4.8976,4.9017,4.9038,4.9059,4.9059,4.9059,4.9038,4.9017,4.8603,4.7693,4.7465,4.5726,4.2228,4.1131,0.0,0.0,0.0,0.0,0.0,0.0,0.0,0.0,0.0,0.0,0.0,0.0,0.0,0.0,0.0,0.0,0.0,0.0,0.0,0.0,0.0,0.0,0.0,0.0,0.0,0.0,0.0,0.0,2.2454,2.3046,0.0,2.1919,2.2976,2.3923,2.4238,2.5473,2.64,2.6983,2.7013,2.7393,2.8081,2.8095,2.8095,2.8095,2.8315,2.8195,2.7874,2.8209,2.8373,2.8424,2.881,2.9138,2.9502,3.0028,3.0744,3.1606,3.3856,3.5374,3.6476,3.8633,3.9123,3.8792,3.9302,3.9865,4.0468,4.0966,4.1409,4.1731,4.1586,4.0771,3.983,3.978,3.9444,3.9327,4.0501,4.0924,4.1358,4.2766,4.3139,4.3325,4.407,4.4381,4.4546,4.4712,4.3464,4.2855,4.4745,4.3842,4.2393,4.1255,4.2932,4.4008,4.287,4.4691,4.672,4.8189,4.8624,4.8873,4.9038,4.9059,4.9059,4.9059,4.9059,4.9059,4.9059,4.9059,4.8914,4.8583,4.8293,4.7382,4.5788,4.5147,4.2104,0.0,0.0,0.0,0.0,0.0,0.0,0.0,0.0,0.0,0.0,0.0,0.0,0.0,0.0,0.0,0.0,0.0,0.0,0.0,0.0,0.0,0.0,0.0,0.0,0.0,2.0757,2.3412,2.3758,2.5008,2.5491,2.451,2.5593,2.6486,2.6808,2.7553,2.8078,2.8256,2.8271,2.8373,2.8578,2.8593,2.8593,2.8593,2.8593,2.8534,2.8432,2.8651,2.8812,2.893,2.9134,2.9339,2.9624,3.0022,3.0316,3.0686,3.2681,3.477,3.7036,3.922,4.0044,4.0084,4.0111,4.0673,4.1322,4.0941,4.1122,4.1563,4.1018,4.1269,4.1861,4.1861,4.2331,4.2704,4.2704,4.2704,4.289,4.3656,4.3842,4.4029,4.4815,4.5229,4.5457,4.5457,4.4281,4.3746,4.5512,4.4195,4.3004,4.3559,4.5395,4.6119,4.4153,4.643,4.821,4.7755,4.85,4.9059,4.9059,4.9059,4.9059,4.9059,4.821,4.8086,4.9017,4.821,4.8107,4.9017,4.7879,4.7092,4.6782,4.6182,4.3491,3.8626,0.0,0.0,0.0,0.0,0.0,0.0,0.0,0.0,0.0,0.0,0.0,0.0,0.0,0.0,0.0,0.0,0.0,0.0,0.0,0.0,0.0,0.0,0.0,1.8113,2.1949,2.454,2.4232,2.6149,2.713,2.6179,2.7159,2.8034,2.8447,2.8461,2.8593,2.89,2.8837,2.8837,2.8837,2.8837,2.8837,2.8837,2.8915,2.9076,2.9398,2.9398,2.9559,2.9866,2.9866,2.9947,2.9961,3.0298,3.0459,3.062,3.2634,3.3392,3.3706,3.7013,3.8311,3.8311,3.833,3.9372,4.0729,3.9542,3.9642,4.0086,3.8446,3.9349,4.1035,4.1113,4.2216,4.3539,4.358,4.3635,4.3739,4.4236,4.436,4.4484,4.496,4.5747,4.6308,4.6308,4.548,4.4791,4.481,4.4129,4.4482,4.7132,4.7609,4.7196,4.5975,4.7279,0.0,4.6596,4.7878,4.9038,4.8976,4.889,4.889,4.8976,4.6554,4.6182,4.8893,4.6575,4.6306,4.8955,4.6533,4.5126,4.5126,4.4132,4.3201,4.2364,0.0,0.0,0.0,0.0,0.0,0.0,0.0,0.0,0.0,0.0,0.0,0.0,0.0,0.0,0.0,0.0,0.0,0.0,0.0,0.0,0.0,1.4826,1.7323,1.8944,2.2543,2.5377,2.6401,2.7305,2.7803,2.7773,2.8095,2.8534,2.9076,2.912,2.9251,2.9573,2.8241,2.7401,2.762,2.7415,2.7415,2.762,2.8933,2.9647,2.9734,2.9734,2.9778,2.9866,2.9866,2.9998,3.0299,3.038,3.0513,3.0719,3.128,3.1511,3.1859,3.5287,3.661,3.6569,3.6624,3.7144,3.7964,3.9214,3.9153,3.854,3.8049,3.8298,3.9077,4.066,4.1152,4.1657,4.3546,4.4127,4.436,4.5498,4.5788,4.5975,4.6761,4.7134,4.6969,4.5533,4.4087,4.3049,4.3261,4.2087,4.2083,4.5542,4.6095,4.6606,4.7959,4.8562,4.8748,4.8355,4.7511,4.7052,4.7052,4.4877,4.4459,4.6845,4.5372,4.5736,4.8935,4.8355,4.8272,4.9038,4.8334,4.7941,4.7941,4.5416,4.3822,0.0,0.0,0.0,0.0,0.0,0.0,0.0,0.0,0.0,0.0,0.0,0.0,0.0,0.0,0.0,0.0,0.0,0.0,0.0,0.0,0.0,0.0,1.485,1.686,1.8742,2.176,2.4449,2.6505,2.6951,2.7492,2.8516,2.8754,2.8988,2.9354,2.95,2.9661,2.9851,2.8163,2.7228,2.7306,2.7241,2.7228,2.7319,2.902,2.9939,3.0152,3.0152,3.0144,3.0261,3.0261,3.0364,3.0554,3.0554,3.0656,3.0817,3.0817,3.0817,3.1105,0.0,0.0,0.0,0.0,3.5772,3.5719,3.694,3.7125,3.6621,3.5893,3.6238,3.7224,3.8428,3.977,4.1206,4.2784,4.4033,4.5105,4.6018,4.6411,4.6823,4.7506,4.7838,4.7458,4.5556,4.3868,4.2484,4.1924,4.0279,0.0,4.2934,4.469,4.6028,4.6699,4.8052,4.879,4.8024,4.6901,4.6252,4.6296,4.3794,4.294,4.4915,4.3978,0.0,0.0,0.0,4.7361,4.7361,4.7361,0.0,0.0,0.0,4.5022,4.5892,4.4029,0.0,0.0,4.1793,4.1421,0.0,0.0,0.0,0.0,0.0,0.0,0.0,0.0,0.0,0.0,0.0,0.0,0.0,0.0,0.0,0.0,1.4728,1.6129,1.7749,1.9881,2.2371,2.5235,2.5772,2.6703,2.8759,2.9208,2.9412,2.9486,2.9749,2.9939,2.9968,2.8455,0.0,0.0,0.0,2.7669,2.7626,2.9204,3.0115,3.049,3.049,3.0554,3.0817,3.0817,3.0817,3.0817,3.0817,3.0817,3.0832,3.0861,3.0905,3.1086,3.2556,3.3101,3.3347,3.5075,3.4929,3.3706,3.4016,0.0,0.0,3.3097,3.3803,3.5388,3.5588,3.8118,4.0957,4.1352,4.3317,4.547,4.6024,4.664,4.7217,4.7734,4.8148,4.7929,4.575,4.4279,4.2765,4.0623,3.8834,3.8208,3.9896,4.3175,4.5059,4.3659,4.6296,4.7865,4.6188,4.57,4.5589,4.557,4.3714,0.0,4.3026,4.2227,4.2977,4.6035,4.5757,4.5457,4.5457,4.5457,4.5457,4.5457,4.5457,4.6678,4.9142,4.9142,4.939,4.9701,4.3967,4.289,0.0,0.0,0.0,0.0,0.0,0.0,0.0,0.0,0.0,0.0,0.0,0.0,0.0,0.0,0.0,1.401,1.4775,1.5507,1.6251,1.6986,1.9393,2.4687,2.5831,2.7018,2.9093,2.9339,2.9588,3.0211,3.0299,3.0364,3.0627,2.8772,2.7859,2.8003,2.7872,2.7859,2.8016,2.9744,3.0671,3.0729,3.0729,0.0,3.0817,3.0817,3.0817,3.0817,3.0817,3.0817,3.0846,3.111,3.1373,3.1549,3.1357,3.1316,3.1594,3.3581,3.3276,3.2068,3.374,3.3729,3.2959,3.2634,3.275,3.3437,3.5152,3.5937,0.0,3.9649,4.1612,4.3355,4.5176,4.659,4.7745,4.8601,4.8873,4.8037,4.4517,4.3601,4.2407,3.8926,3.7947,3.7855,3.8208,4.0078,4.2031,4.3232,4.4071,4.4341,4.4022,4.2566,4.1639,4.1726,3.8959,3.8197,4.0916,3.9908,4.1141,4.59,4.75,4.8272,4.8272,4.8272,4.8272,4.8272,4.8272,4.8728,4.9618,4.9618,4.9845,5.0259,4.8666,4.8645,0.0,0.0,0.0,0.0,0.0,0.0,0.0,0.0,0.0,0.0,0.0,1.5748,1.5817,0.0,1.4083,1.4619,1.5009,1.5379,1.5806,1.6148,1.8324,2.3357,2.4402,2.5977,2.9101,2.9529,2.9822,3.0401,2.9656,2.9299,2.9453,2.6773,2.524,2.5373,2.5252,2.5664,2.6732,2.8517,2.9886,3.0817,3.0817,3.0817,3.0817,3.0817,3.0817,3.0817,3.0817,3.092,3.1095,3.1417,3.1651,3.1768,3.1432,3.1315,3.1414,3.2493,3.2314,3.1663,3.2734,3.283,3.2377,3.2377,3.2496,3.2832,3.394,3.4981,3.6182,3.7835,4.0033,4.2235,4.4271,4.5483,4.641,4.7168,4.7295,4.6318,4.2765,4.1959,4.1075,3.8208,3.7671,3.7671,3.7671,3.8467,3.9731,4.1689,4.2765,4.3389,4.3389,4.1689,4.0494,4.0509,3.818,3.7322,3.9049,3.9314,4.0949,4.4555,4.5686,4.623,4.623,4.7188,4.7721,4.7963,4.8958,4.9638,5.0094,5.0094,5.0322,5.0756,5.0529,5.0673,0.0,0.0,0.0,0.0,0.0,0.0,0.0,1.8152,1.8398,1.9328,1.8379,1.7214,1.6619,1.534,1.457,1.5147,1.5293,1.5447,1.5731,1.6129,1.7745,2.1625,2.2692,2.4621,2.8537,2.9464,2.9946,2.9914,2.8813,2.7928,2.7591,2.4776,2.3159,2.3159,2.3159,2.3846,2.5373,2.7168,2.8867,3.0317,3.0651,3.0817,3.0817,3.0817,3.0817,3.0832,3.089,3.1139,3.152,3.1783,3.1929,3.1988,3.1988,3.1988,3.1973,3.1915,3.1885,3.19,3.1959,3.2163,3.2383,3.2383,3.2559,3.2778,3.2851,3.4329,3.6018,3.6234,3.8269,4.0788,4.2663,4.3644,4.4258,4.4719,4.4807,4.3993,4.086,4.0243,3.9805,3.7931,3.7671,3.7671,3.7671,3.7671,3.8208,3.9714,4.1329,4.2317,4.2317,4.0877,3.9987,3.9987,3.8559,3.7671,3.7671,3.9458,4.1148,4.2765,4.3211,4.3389,4.3389,4.4876,4.6036,4.6924,4.848,4.9661,5.0549,5.0549,5.0798,5.1253,5.1253,5.1253,1.3392,1.4721,1.6436,1.8179,1.8471,1.9275,0.0,2.2762,2.1787,2.1836,2.0586,1.9011,1.7548,1.6068,1.5147,1.5228,1.5504,1.5731,1.5764,1.591,1.6983,1.9391,2.1673,2.4134,2.6769,2.8758,2.9449,2.8436,2.8167,2.7422,2.5799,2.5288,2.5117,2.5117,2.5117,2.5203,2.5373,2.7168,2.8181,2.8433,3.0053,3.0817,3.0817,3.0817,3.0817,3.0846,3.1124,3.1607,3.2178,3.2222,3.2398,3.2661,3.2661,3.2661,3.2632,3.2339,3.2237,3.2266,3.2559,3.269,3.2719,3.2719,3.2749,3.2822,3.31,3.3382,3.3798,3.4924,3.6292,3.7841,3.9241,4.061,4.1726,4.2156,4.2335,4.1708,3.9664,3.9499,3.9333,3.7362,3.7378,3.7671,3.7671,3.7671,3.7763,3.7931,3.8208,3.83,3.83,3.8116,3.8023,3.8023,3.7855,3.7671,3.7671,3.9458,4.0606,4.0787,4.2407,4.3389,4.3389,4.3567,4.473,4.6836,4.7121,4.853,5.1025,5.1025,5.1274,5.1729,5.1729,5.1729,1.506,1.7107,1.8923,1.973,2.0642,2.1548,2.2077,2.1835,2.1401,2.0894,1.951,1.8197,1.7712,1.6268,1.5309,1.552,1.5675,1.5813,1.5918,1.5999,1.6411,1.7404,1.9617,2.2515,2.6333,2.8534,2.9335,2.8154,2.7084,2.5714,2.3846,2.274,2.2223,2.2223,2.2223,2.274,2.3761,2.452,2.5969,2.8096,2.8867,2.9802,3.0817,3.0817,3.0934,3.1124,3.1446,3.1856,3.2295,3.2485,3.2646,3.2778,3.2778,3.2778,3.2749,3.2617,3.2573,3.2588,3.2719,3.2778,3.2778,3.2778,3.2778,3.2837,3.3144,3.3378,3.3627,3.4356,3.5069,3.6052,3.7727,3.8661,3.9209,3.9664,3.9846,3.9391,3.7683,3.7515,3.7531,3.6992,3.71,3.7301,3.7671,3.7671,3.7671,3.7671,3.7671,3.7671,3.7671,3.7671,3.7671,3.7671,3.7671,3.7671,3.7671,3.8391,3.8834,3.8834,3.964,4.0095,4.0095,4.1148,4.2423,4.3833,4.6133,4.8106,4.9742,5.094,5.1605,5.1791,5.1791,5.1957,1.5737,1.7951,1.9814,1.9785,2.1062,2.196,2.0604,2.0495,2.0352,1.9329,1.8234,1.7311,1.7052,1.6051,1.5415,1.5723,1.5813,1.591,1.6089,1.6113,1.6186,1.6357,1.8253,2.0993,2.4554,2.6861,2.7706,2.6453,2.5288,2.3846,2.1964,2.0598,1.9921,1.9921,1.9921,2.052,2.1877,2.2395,2.3921,2.6563,2.7591,2.8783,3.0067,3.0669,3.1139,3.1461,3.1783,3.212,3.2441,3.2676,3.2778,3.2778,3.2778,3.2778,3.2778,3.2778,3.2778,3.2778,3.2778,3.2778,3.2778,3.2778,3.2837,3.2954,3.3276,3.3612,3.3934,3.4256,3.4519,3.5069,3.6406,3.6776,3.6869,3.7238,3.7331,3.7054,3.5987,3.5894,3.608,3.6436,3.6637,3.6823,3.7209,3.7394,3.7486,3.7486,3.7578,3.7671,3.7671,3.7671,3.7671,3.7671,3.7671,3.7671,3.7671,3.7671,3.7671,3.7671,3.7671,3.7671,3.7671,3.9099,4.0443,4.1704,4.5131,4.7515,4.8613,5.0681,5.1667,5.1791,5.1791,5.2122,1.4447,1.6231,1.8168,1.8116,1.9007,1.9854,1.9844,1.9854,1.9413,1.7778,1.7407,1.6928,1.5515,1.5382,1.5569,1.574,1.5918,1.6097,1.6267,1.6292,1.6365,1.6552,1.8331,1.9809,2.0472,2.2848,2.3721,2.217,2.2471,2.1888,2.0095,1.9921,1.9921,1.9921,1.9921,1.9921,2.0008,2.1715,2.2643,2.2815,2.6393,2.8096,2.8278,3.0381,3.1476,3.1798,3.212,3.2456,3.2763,3.2763,3.2778,3.2778,3.2778,3.2778,3.2778,3.2778,3.2778,3.2778,3.2778,3.2778,3.2778,3.2778,3.2983,3.329,3.3612,3.3949,3.4271,3.4592,3.4695,3.471,3.4789,3.4789,3.4789,3.4803,3.4803,3.4789,3.4789,3.5054,3.5413,3.5413,3.5879,3.6266,3.6266,3.6637,3.6915,3.6915,3.7378,3.7671,3.7671,3.7671,3.7671,3.7671,3.7671,3.7671,3.7671,3.7671,3.7671,3.7671,3.7671,3.7671,3.7671,3.8097,3.9352,4.1611,4.4116,4.6276,4.8164,5.0103,5.1357,5.1791,5.1791,5.2288,1.3764,1.5422,1.7154,1.7512,1.8679,1.951,1.8461,1.8234,1.7778,1.6109,1.5606,1.5269,1.4931,1.5033,1.5212,1.539,1.5772,1.6105,1.6276,1.63,1.6414,1.6722,1.732,1.7837,1.8122,2.1474,2.2964,2.1501,2.1856,2.1419,1.9758,1.9943,2.0185,2.0327,2.0337,2.0261,2.0119,2.0725,2.151,2.2654,2.6308,2.8699,2.99,3.0901,3.149,3.1812,3.2149,3.2471,3.2778,3.2778,3.2778,3.2778,3.2778,3.2778,3.2778,3.2778,3.2778,3.2778,3.2778,3.2778,3.2807,3.3012,3.3158,3.3259,3.389,3.4139,3.4285,3.4607,3.471,3.471,3.471,3.471,3.471,3.471,3.471,3.471,3.471,3.4789,3.5054,3.532,3.5786,3.6266,3.6637,3.71,3.7394,3.7394,3.7578,3.7671,3.7671,3.7671,3.7671,3.7671,3.7671,3.7671,3.7671,3.7671,3.7671,3.7671,3.7671,3.7671,3.7671,3.7782,3.8376,3.9352,4.1498,4.3592,4.5772,4.7805,4.968,5.1357,5.1646,5.2288,1.362,1.4782,1.5894,1.6415,1.7321,1.7844,1.6797,1.6568,1.6262,1.5198,1.4684,1.4489,1.4676,1.4846,1.5,1.5122,1.5593,1.6032,1.6267,1.63,1.6462,1.6893,1.6942,1.699,1.7096,1.9525,2.0819,2.0047,2.0395,2.0327,1.9505,1.978,2.014,2.0535,2.0544,2.044,2.0223,2.0223,2.0978,2.2654,2.5714,2.8096,2.99,3.0933,3.1593,3.1827,3.2266,3.2573,3.2778,3.2778,3.2778,3.2778,3.2778,3.2778,3.2778,3.2778,3.2778,3.2793,3.2895,3.2939,3.2997,3.3319,3.3495,3.3671,3.4095,3.43,3.4432,3.4651,3.471,3.471,3.471,3.471,3.471,3.471,3.471,3.471,3.471,3.471,3.4789,3.5054,3.5428,3.5801,3.6251,3.6915,3.7394,3.7193,3.7301,3.7394,3.7394,3.7578,3.7671,3.7394,3.7578,3.7671,3.7671,3.7671,3.7671,3.7671,3.7671,3.7671,3.7671,3.7798,3.7973,3.8195,4.031,4.2058,4.3357,4.5991,4.8295,5.0103,5.1293,5.2392,1.3945,1.4196,1.4335,1.4838,1.4968,1.4968,1.4968,1.4968,1.4952,1.4919,1.4627,1.4416,1.4562,1.4765,1.4911,1.4911,1.5407,1.591,1.6267,1.6316,1.6519,1.7047,1.7112,1.7112,1.7112,1.7112,1.7288,1.7735,1.8173,1.8796,1.9435,1.9542,1.9821,2.0473,2.0473,2.045,2.0242,2.0214,2.0969,2.2643,2.4531,2.6308,2.8207,3.0624,3.1798,3.1827,3.2485,3.2778,3.2778,3.2778,3.2778,3.2778,3.2778,3.2778,3.2778,3.2793,3.2793,3.2837,3.3173,3.3276,3.3305,3.3641,3.3963,3.4227,3.4241,3.4461,3.471,3.471,3.471,3.471,3.471,3.471,3.471,3.471,3.471,3.471,3.471,3.471,3.471,3.471,3.471,3.4882,3.532,3.6251,3.673,3.6266,3.6545,3.6823,3.6823,3.7301,3.7486,3.6915,3.7394,3.7671,3.7671,3.7671,3.7671,3.7671,3.7671,3.7671,3.7671,3.7988,3.8179,3.8179,4.0401,4.1313,4.0971,4.4749,4.7176,4.8307,5.064,5.2424,1.4075,1.4464,1.4797,1.4935,1.4968,1.4968,1.4968,1.4968,1.4814,1.4286,1.3888,1.349,1.3011,1.3604,1.4172,1.4172,1.5187,1.6097,1.6462,1.6511,1.6657,1.7063,1.7112,1.7112,1.7112,1.7112,1.7112,1.7288,1.7852,1.8369,1.8656,1.9527,2.0053,2.0437,2.0664,2.0667,2.0459,2.0148,2.0831,2.2643,2.4531,2.6308,2.8207,3.0624,3.1798,3.1827,3.2485,3.2778,3.2778,3.2778,3.2778,3.2778,3.2778,3.2778,3.2793,3.3041,3.3129,3.3202,3.3773,3.3656,3.3334,3.3905,3.4154,3.4256,3.4505,3.4636,3.471,3.471,3.471,3.471,3.471,3.471,3.471,3.471,3.471,3.471,3.471,3.471,3.471,3.471,3.4976,3.5428,3.5894,3.6173,3.6359,3.6266,3.6266,3.6359,3.6359,3.6823,3.7008,3.6915,3.7394,3.7671,3.7671,3.7671,3.7671,3.7671,3.7671,3.7671,3.7671,3.7766,3.7814,3.7814,3.8433,3.9323,4.0669,4.1649,4.412,4.7766,4.9077,5.1004,1.4432,1.4741,1.4968,1.4968,1.4968,1.4903,1.4676,1.4554,1.4294,1.3579,1.3149,1.2759,1.2272,1.3124,1.3872,1.3798,1.4992,1.6048,1.6405,1.6462,1.6617,1.7063,1.7112,1.7112,1.7112,1.7112,1.7145,1.7226,1.759,1.7999,1.8372,1.9097,1.9748,2.0399,2.0575,2.0564,2.0544,2.0129,2.0434,2.1455,2.3331,2.5117,2.7012,2.936,3.0881,3.1827,3.2339,3.2632,3.2778,3.2778,3.2778,3.2778,3.2778,3.2851,3.2997,3.3173,3.3334,3.3524,3.4036,3.3978,3.3758,3.4271,3.4432,3.4461,3.4651,3.471,3.471,3.471,3.471,3.471,3.471,3.471,3.471,3.471,3.471,3.471,3.471,3.471,3.471,3.471,3.5054,3.5413,3.5536,3.5894,3.608,3.563,3.5708,3.5801,3.5521,3.6173,3.6545,3.6251,3.673,3.7116,3.7301,3.7378,3.7378,3.7378,3.7578,3.7578,3.7394,3.7378,3.7486,3.7671,3.7486,3.8023,3.9275,4.0248,4.269,4.64,4.8104,5.039,1.4838,1.4968,1.4968,1.4968,1.4968,1.483,1.4302,1.4018,1.3644,1.2856,1.2434,1.2125,1.1898,1.2881,1.3709,1.3582,1.4806,1.5853,1.6284,1.6341,1.6527,1.7047,1.7112,1.7112,1.7112,1.7112,1.7185,1.7372,1.7413,1.7681,1.8315,1.8583,1.9196,2.0234,2.0234,2.0226,2.037,1.9924,1.9746,1.9921,2.1715,2.3503,2.547,2.7675,2.9783,3.1812,3.2193,3.2515,3.2778,3.2778,3.2778,3.2778,3.2778,3.2968,3.3246,3.329,3.351,3.3846,3.4168,3.4285,3.4329,3.4607,3.471,3.471,3.471,3.471,3.471,3.471,3.471,3.471,3.471,3.471,3.471,3.471,3.471,3.471,3.471,3.471,3.471,3.471,3.5054,3.5148,3.4789,3.5443,3.5708,3.4803,3.5054,3.5148,3.4789,3.5521,3.5879,3.5413,3.5894,3.6359,3.673,3.6823,3.6823,3.6823,3.7209,3.7301,3.6823,3.6823,3.7008,3.7486,3.71,3.71,3.7578,3.9656,4.1913,4.438,4.689,4.9537,1.4944,1.4968,1.4968,1.4968,1.4968,1.483,1.4302,1.392,1.336,1.2199,1.1792,1.1492,1.1013,1.1947,1.2978,1.3555,1.4594,1.561,1.6422,1.6527,1.6674,1.7063,1.7112,1.7112,1.7112,1.7112,1.7185,1.7372,1.7518,1.7681,1.7951,1.85,1.9029,1.9291,1.9372,1.9366,1.9402,1.8988,1.9126,1.9921,2.1348,2.3223,2.5483,2.7883,2.999,3.1827,3.2427,3.2719,3.2778,3.2778,3.2778,3.2778,3.2778,3.2968,3.3186,3.3554,3.3846,3.4183,3.4505,3.4622,3.4622,3.468,3.471,3.471,3.471,3.471,3.471,3.471,3.471,3.471,3.471,3.471,3.471,3.471,3.471,3.471,3.471,3.471,3.471,3.471,3.4789,3.4789,3.471,3.4789,3.4882,3.471,3.4789,3.4789,3.471,3.5226,3.5491,3.5413,3.5924,3.6219,3.6266,3.6359,3.6359,3.6359,3.6452,3.6452,3.6359,3.6359,3.6359,3.6452,3.673,3.6915,3.7008,3.819,3.9912,4.2279,4.3439,4.5453,1.4968,1.4968,1.4968,1.4968,1.4968,1.4757,1.3945,1.3409,1.2726,1.1468,1.0997,1.072,1.0461,1.1443,1.2458,1.2994,1.4213,1.5342,1.6056,1.6405,1.6714,1.7071,1.7112,1.7112,1.7112,1.7201,1.7331,1.7502,1.7681,1.7827,1.7916,1.855,1.8938,1.9035,1.9205,1.9202,1.9169,1.8796,1.8787,1.9214,1.9805,2.177,2.4702,2.6031,2.8312,3.1124,3.1873,3.2264,3.2409,3.2675,3.2778,3.2778,3.2778,3.3071,3.351,3.3671,3.4036,3.449,3.4651,3.471,3.471,3.471,3.471,3.471,3.471,3.471,3.471,3.471,3.471,3.471,3.471,3.471,3.471,3.471,3.471,3.471,3.471,3.471,3.471,3.471,3.471,3.471,3.471,3.471,3.471,3.471,3.471,3.471,3.471,3.4867,3.5054,3.5054,3.5271,3.5473,3.5768,3.5816,3.5786,3.5786,3.608,3.608,3.5786,3.5786,3.5894,3.6173,3.6173,3.6251,3.6545,3.718,3.862,4.0975,4.1531,4.3539,1.4798,1.4968,1.4968,1.4968,1.4968,1.4676,1.3563,1.2897,1.215,1.0899,1.0355,1.018,1.0209,1.1086,1.1979,1.2532,1.3717,1.4838,1.561,1.6113,1.6568,1.7006,1.7088,1.7112,1.7112,1.7242,1.7396,1.7575,1.7794,1.7916,1.7916,1.8458,1.871,1.8626,1.8852,1.8962,1.8853,1.8607,1.8548,1.8576,1.8532,2.0278,2.3562,2.4243,2.6486,2.9896,3.1014,3.1649,3.1877,3.2409,3.2586,3.2675,3.2778,3.3158,3.3729,3.3729,3.4139,3.471,3.471,3.471,3.471,3.471,3.471,3.471,3.471,3.471,3.471,3.471,3.471,3.471,3.471,3.471,3.471,3.471,3.471,3.471,3.471,3.471,3.471,3.471,3.471,3.471,3.471,3.471,3.471,3.471,3.471,3.471,3.471,3.471,3.471,3.471,3.471,3.4818,3.5252,3.5271,3.5241,3.5241,3.5615,3.5708,3.5241,3.5241,3.5428,3.5894,3.56,3.56,3.5987,3.6509,3.7679,3.9584,3.9942,4.1737,1.4352,1.4737,1.4968,1.4968,1.4968,1.4643,1.3401,1.271,1.1971,1.0665,1.0168,1.0014,1.0347,1.0769,1.1451,1.2621,1.3068,1.3798,1.5325,1.5715,1.6105,1.6709,1.7015,1.7112,1.7112,1.7128,1.721,1.7396,1.7721,1.7916,1.7916,1.8171,1.8122,1.7697,1.7763,1.7944,1.8207,1.7745,1.7906,1.8769,1.8416,1.9653,2.2036,2.4141,2.6229,2.8231,3.0424,3.139,3.1418,3.1877,3.2054,3.2143,3.2586,3.3158,3.3729,3.3729,3.4139,3.471,3.471,3.471,3.471,3.471,3.471,3.471,3.471,3.471,3.471,3.471,3.471,3.471,3.471,3.471,3.471,3.471,3.471,3.471,3.471,3.471,3.471,3.471,3.471,3.471,3.471,3.471,3.471,3.471,3.471,3.471,3.471,3.471,3.471,3.471,3.471,3.471,3.471,3.4803,3.4789,3.4789,3.4803,3.4789,3.4789,3.4789,3.4789,3.4803,3.5241,3.5413,3.5506,3.6321,3.6939,3.7467,3.7821,3.8611,1.4191,1.4515,1.4669,1.4968,1.4806,1.4367,1.3336,1.2515,1.1679,1.0593,1.0063,0.9793,0.9939,1.0121,1.0604,1.1622,1.2107,1.2786,1.4075,1.4838,1.5512,1.6129,1.6552,1.6877,1.7088,1.721,1.7348,1.7526,1.7778,1.7827,1.7607,1.7965,1.8111,1.7965,1.7965,1.7967,1.7977,1.7796,1.7829,1.8074,1.7969,1.8987,2.1025,2.3311,2.5305,2.7204,2.9753,3.0884,3.0884,3.1418,3.1774,3.2054,3.2232,3.289,3.3729,3.3729,3.4139,3.471,3.471,3.471,3.471,3.471,3.471,3.471,3.471,3.471,3.471,3.471,3.471,3.471,3.471,3.471,3.471,3.471,3.471,3.471,3.471,3.471,3.471,3.471,3.471,3.471,3.471,3.471,3.471,3.471,3.471,3.471,3.471,3.471,3.471,3.471,3.471,3.471,3.471,3.471,3.471,3.471,3.471,3.471,3.471,3.471,3.471,3.471,3.4882,3.4976,3.4976,3.5296,3.5812,3.6319,3.6565,3.7431,1.365,1.413,1.4438,1.4737,1.4584,1.4123,1.3222,1.2328,1.1427,1.0434,0.9914,0.9622,0.961,0.9711,1.0061,1.0991,1.1413,1.2044,1.3246,1.4066,1.4797,1.539,1.5837,1.6284,1.6747,1.7104,1.738,1.7551,1.7729,1.7754,1.7559,1.7949,1.8127,1.8022,1.807,1.8038,1.7916,1.7916,1.7851,1.7721,1.7778,1.8425,1.978,2.2,2.3976,2.5881,2.8437,2.9887,3.0437,3.0884,3.1329,3.1624,3.1887,3.2603,3.3456,3.3466,3.3842,3.4414,3.432,3.4226,3.432,3.4414,3.4508,3.4508,3.4508,3.4601,3.471,3.471,3.471,3.471,3.471,3.471,3.471,3.471,3.471,3.471,3.471,3.471,3.471,3.471,3.471,3.471,3.471,3.471,3.471,3.471,3.471,3.471,3.471,3.471,3.471,3.471,3.471,3.471,3.471,3.471,3.471,3.471,3.471,3.471,3.471,3.471,3.471,3.471,3.471,3.4601,3.4508,3.4508,3.4733,3.5261,3.5676,3.6799,1.261,1.3574,1.4368,1.4446,1.4279,1.3945,1.3043,1.2142,1.1191,1.0036,0.9681,0.9581,0.9505,0.9626,1.0022,1.1053,1.1153,1.164,1.3197,1.3539,1.392,1.4635,1.4879,1.5268,1.5983,1.6698,1.7193,1.738,1.7551,1.7721,1.79,1.8079,1.8014,1.7656,1.7827,1.7916,1.7916,1.7916,1.7916,1.7916,1.8087,1.8168,1.8261,2.0196,2.2218,2.4145,2.615,2.8166,2.9913,3.0437,3.0616,3.0643,3.1485,3.2336,3.3014,3.2774,3.3177,3.3822,3.3365,3.3257,3.3257,3.3728,3.3916,3.3916,3.3916,3.4305,3.471,3.471,3.471,3.471,3.471,3.471,3.471,3.471,3.471,3.471,3.471,3.471,3.471,3.471,3.471,3.471,3.471,3.471,3.471,3.471,3.471,3.471,3.471,3.471,3.471,3.471,3.471,3.471,3.471,3.471,3.471,3.471,3.471,3.471,3.471,3.471,3.471,3.471,3.471,3.4414,3.3916,3.3916,3.396,3.4101,3.4995,3.6419,1.1945,1.2452,1.285,1.3193,1.3128,1.2823,1.237,1.1687,1.0948,1.0245,0.9825,0.9581,0.9505,0.9279,0.9518,1.0886,1.0794,1.1051,1.2661,1.3506,1.418,1.4651,1.5731,1.6519,1.6747,1.6982,1.7136,1.7193,1.7469,1.7616,1.7559,1.7949,1.8127,1.8014,1.8062,1.8095,1.8095,1.8095,1.8095,1.8095,1.8152,1.8176,1.8269,2.0196,2.2126,2.4145,2.615,2.8076,2.9913,3.0093,3.0348,3.0643,3.1138,3.1791,3.2556,3.2682,3.299,3.3351,3.3257,3.3177,3.3257,3.3351,3.3445,3.3445,3.3445,3.3728,3.4118,3.4118,3.4118,3.4212,3.4601,3.471,3.471,3.471,3.471,3.471,3.471,3.471,3.471,3.471,3.471,3.471,3.471,3.471,3.471,3.471,3.471,3.471,3.471,3.471,3.471,3.471,3.471,3.471,3.471,3.471,3.471,3.471,3.471,3.471,3.471,3.471,3.471,3.471,3.4305,3.4103,3.3916,3.354,3.3978,3.5009,3.5734,3.6738,1.123,1.1627,1.2011,1.2225,1.2204,1.2114,1.1771,1.1223,1.0631,1.0048,0.9777,0.9557,0.9419,0.9152,0.9352,1.061,1.0341,1.0618,1.2532,1.3332,1.3962,1.4732,1.5934,1.6706,1.6706,1.695,1.7112,1.7112,1.7437,1.7591,1.7486,1.7924,1.8176,1.8176,1.8176,1.8176,1.8176,1.8176,1.8176,1.8176,1.8176,1.8176,1.8269,1.9462,2.1481,2.4054,2.5332,2.7431,0.0,2.9913,3.0093,3.0402,3.0809,3.0883,3.0887,3.1116,3.1382,3.1718,3.1542,3.2029,3.2705,3.28,3.288,3.288,3.288,3.3257,3.3634,3.3634,3.3728,3.401,3.4305,3.4508,3.471,3.471,3.471,3.471,3.471,3.4508,3.4508,3.471,3.4493,3.4478,3.4695,3.471,3.471,3.471,3.471,3.471,3.471,3.471,3.471,3.471,3.471,3.471,3.471,3.471,3.471,3.471,3.471,3.471,3.471,3.471,3.4601,3.4399,3.4103,3.3728,3.3351,3.3005,3.3477,3.4759,3.5565,3.645,0.0,1.1094,1.1629,1.1524,1.1545,1.1534,1.109,1.0699,0.0,0.9607,0.9546,0.9541,0.9333,0.9198,0.9419,1.0369,1.0024,1.0436,1.2813,1.3117,1.365,1.496,1.5699,1.603,1.6089,1.6706,1.7112,1.7112,1.7437,1.764,1.764,1.7981,1.8176,1.8176,1.8176,1.8176,1.8176,1.8176,1.8176,1.8176,1.8176,1.8176,1.8176,1.8176,2.0288,2.3962,2.3962,2.6253,2.9913,2.9913,2.9927,3.0007,3.0568,2.9844,2.8408,2.8557,2.8752,2.9027,2.8656,2.9829,3.1569,3.2138,3.2313,3.2313,3.2313,3.2705,3.3083,3.3177,3.3445,3.3822,3.3916,3.4305,3.471,3.4601,3.4601,3.4601,3.4601,3.4212,3.401,3.4508,3.4183,3.3966,3.4508,3.4616,3.4616,3.4616,3.4616,3.4616,3.4616,3.4616,3.4616,3.4616,3.4616,3.4616,3.4616,3.471,3.471,3.471,3.471,3.4601,3.4601,3.4616,3.432,3.3822,3.3822,3.3351,3.2313,3.2122,3.2649,3.3707,3.4631,3.5706,0.9408,0.0,1.0094,1.0056,1.0229,1.0325,0.0,1.0155,1.0004,0.9607,0.9546,0.9704,1.0064,0.9538,0.9648,1.1342,1.0732,1.088,1.3351,1.4625,1.5529,1.6137,1.6592,1.6755,1.6479,1.6852,1.7112,1.7112,1.7437,1.764,1.764,1.7981,1.8176,1.8176,1.8176,1.8176,1.8176,1.8176,1.8176,1.8176,1.8176,1.8176,1.8176,1.8176,2.0288,2.3962,2.3962,2.6253,2.9913,2.9913,3.0047,3.0287,3.0648,2.9695,2.8195,2.8535,2.7684,2.6624,2.808,2.8955,2.9625,3.127,3.1853,3.1853,3.1853,3.1948,3.2138,3.2516,3.2974,3.3445,3.3822,3.4305,3.4601,3.4212,3.4103,3.4024,3.3648,3.3431,3.3417,3.3502,3.3474,3.3431,3.3554,3.3554,3.3568,3.3502,3.3516,3.3596,3.3554,3.3554,3.3648,3.4024,3.3742,3.3742,3.4024,3.4508,3.471,3.471,3.4305,3.4103,3.4103,3.3742,3.346,3.3351,3.2974,3.2408,3.1853,3.1839,3.2245,3.3092,3.4213,3.5267,0.8859,0.9218,0.963,0.9576,0.9715,0.9874,0.9835,0.9785,0.9732,0.9575,0.9598,0.9738,1.0111,1.0107,1.0333,1.1385,1.1455,1.2112,1.404,1.5247,1.6081,1.6527,1.6747,1.6852,1.6828,1.6998,1.7112,1.7112,1.7437,1.764,1.764,1.7908,1.8095,1.8176,1.8095,1.8095,1.8176,1.8176,1.8176,1.8176,1.8176,1.8176,1.8176,1.8176,2.0288,2.3962,2.3962,2.6253,2.9913,2.9913,3.0087,3.0394,3.0675,2.9068,2.6763,2.7015,2.5851,2.4397,2.6431,2.8464,3.021,3.1379,3.1664,3.1664,3.1664,3.1664,3.1758,3.2043,3.2421,3.288,3.3163,3.3648,3.393,3.3605,3.3605,3.3511,3.3257,3.3055,3.2947,3.3191,3.3016,3.2936,3.3205,3.3205,3.3205,3.3233,3.3219,3.3205,3.3205,3.3177,3.3257,3.354,3.3351,3.3257,3.354,3.3836,3.4038,3.4038,3.3742,3.354,3.354,3.3351,3.3069,3.28,3.2327,3.1948,3.1664,3.1664,3.2015,3.2599,3.3824,3.4703,0.8526,0.9103,0.9646,0.951,0.9597,0.9695,0.9632,0.9557,0.9509,0.9596,0.9663,0.9819,1.0184,1.0667,1.1118,1.1328,1.2492,1.371,1.4774,1.5554,1.6129,1.6527,1.6633,1.6755,1.7006,1.708,1.7112,1.7112,1.7413,1.7599,1.7599,1.7778,1.7957,1.8127,1.7997,1.7997,1.8176,1.8176,1.8176,1.8176,1.8176,1.8176,1.8176,1.8176,2.0288,2.3962,2.3687,2.5969,2.9913,2.9554,2.9649,2.9978,3.0228,2.7956,2.4609,2.4905,2.392,2.275,2.5173,2.8464,3.1664,3.1664,3.1664,3.1664,3.1664,3.1664,3.1664,3.1664,3.2043,3.2408,3.2408,3.2786,3.3149,3.3121,3.3107,3.3013,3.2974,3.2583,3.2394,3.288,3.2557,3.2395,3.2855,3.2949,3.2949,3.2949,3.3002,3.3002,3.2936,3.3002,3.2988,3.3083,3.2974,3.2988,3.3083,3.2974,3.2988,3.2988,3.3069,3.3083,3.2988,3.2988,3.28,3.2327,3.1853,3.1664,3.1664,3.1664,3.1797,3.2038,3.345,3.4227,0.8676,0.9357,0.9741,0.9035,0.9173,0.9438,0.933,0.9387,0.955,0.9756,0.9924,1.0461,1.1703,1.1216,1.1177,1.2928,1.4051,1.4841,1.5333,1.6233,1.6828,1.6609,1.6844,1.6933,1.669,1.6933,1.7112,1.7112,1.7307,1.7429,1.7429,1.7591,1.777,1.7949,1.7932,1.7997,1.8176,1.8176,1.8176,1.8176,1.8176,1.8176,1.8176,1.8176,2.0288,2.3871,2.2218,2.4682,2.9734,2.8166,2.7726,2.8099,2.8136,2.5984,2.2809,2.2838,2.2662,2.2945,2.6817,2.9721,3.1664,3.1664,3.1664,3.1664,3.1664,3.1664,3.1664,3.1664,3.2043,3.2408,3.2408,3.2772,3.3121,3.265,3.2542,3.2434,3.2029,3.1853,3.1853,3.1948,3.1867,3.1867,3.1962,3.1962,3.1962,3.1962,3.1962,3.1962,3.1962,3.1962,3.2043,3.2502,3.2138,3.2043,3.2516,3.2138,3.1948,3.1948,3.2327,3.2327,3.1948,3.1948,3.1853,3.1853,3.1758,3.1664,3.1664,3.1664,3.169,3.1839,3.3354,3.4115,0.8325,0.8885,0.935,0.9239,1.0018,1.0863,1.0895,1.1018,1.1025,1.1017,1.1118,1.1435,1.2288,1.2459,1.3183,1.5134,1.5293,1.5327,1.5969,1.6281,1.6438,1.6568,1.6722,1.6836,1.6868,1.7015,1.7112,1.7112,1.7283,1.7388,1.7388,1.7461,1.7583,1.7762,1.777,1.7851,1.803,1.8127,1.8176,1.8176,1.8176,1.8176,1.8176,1.8176,1.9741,2.2402,2.1481,2.3229,2.6628,2.5834,2.574,2.6185,2.6228,2.4684,2.227,2.1103,2.2172,2.43,2.6238,2.9051,3.1664,3.1664,3.1664,3.1664,3.1664,3.1664,3.1664,3.1664,3.1853,3.2043,3.2043,3.2219,3.23,3.2124,3.2016,3.2002,3.1758,3.1664,3.1664,3.1664,3.1664,3.1664,3.1664,3.1664,3.1664,3.1664,3.1664,3.1664,3.1664,3.1664,3.1758,3.2043,3.1853,3.1758,3.2043,3.1853,3.1664,3.1664,3.1853,3.1948,3.1677,3.1664,3.1664,3.1664,3.1664,3.1664,3.1664,3.1664,3.1744,3.1917,3.3395,3.4185,0.817,0.8608,0.9205,0.9652,1.0607,1.1607,1.2249,1.2248,1.2198,1.2322,1.2442,1.2564,1.2881,1.3717,1.4854,1.6365,1.5975,1.5772,1.6592,1.6349,1.6243,1.6657,1.6706,1.6812,1.7088,1.7112,1.7112,1.7112,1.7242,1.7323,1.7323,1.7323,1.7404,1.7575,1.7616,1.7729,1.7916,1.8087,1.8176,1.8176,1.8176,1.8176,1.8176,1.8176,1.9276,2.1028,2.0659,2.1757,2.3984,2.3746,2.379,2.4115,2.425,2.3235,2.1496,2.0423,2.2368,2.5561,2.6045,2.8656,3.1664,3.1664,3.1664,3.1664,3.1664,3.1664,3.1664,3.1664,3.1664,3.1664,3.1664,3.1664,3.1664,3.1664,3.1664,3.1664,3.1664,3.1664,3.1664,3.1664,3.1664,3.1664,3.1664,3.1664,3.1664,3.1664,3.1664,3.1664,3.1664,3.1664,3.1664,3.1664,3.1664,3.1664,3.1664,3.1664,3.1664,3.1664,3.1664,3.1664,3.1664,3.1664,3.1664,3.1664,3.1664,3.1664,3.1664,3.1664,3.1784,3.2011,3.3436,3.4213,0.8764,0.9211,0.9673,1.012,0.9937,1.0058,1.1873,1.185,1.1846,1.3223,1.3652,1.3831,1.4026,1.4521,1.4952,1.5098,1.574,1.6422,1.699,1.7039,1.7031,1.7071,1.7071,1.708,1.7112,1.7112,1.7112,1.7112,1.712,1.7128,1.7128,1.7128,1.7218,1.7396,1.7559,1.7729,1.7916,1.8087,1.8176,1.8176,1.8176,1.8176,1.8176,1.8176,1.9276,2.1028,1.9192,2.0566,2.3892,2.228,2.1744,2.1849,2.2067,2.1031,1.975,2.1496,2.3628,2.5755,2.7696,2.9829,3.1664,3.1664,3.1664,3.1664,3.1664,3.1664,3.1664,3.1664,3.1664,3.1664,3.1664,3.1664,3.1664,3.1664,3.1664,3.1664,3.1664,3.1664,3.1664,3.1664,3.1664,3.1664,3.1664,3.1664,3.1664,3.1664,3.1664,3.1664,3.1664,3.1664,3.1664,3.1664,3.1664,3.1664,3.1664,3.1664,3.1664,3.1664,3.1664,3.1664,3.1664,3.1664,3.1664,3.1664,3.1664,3.1664,3.1664,3.1664,3.1677,3.1812,3.3326,3.4101,0.8479,0.9055,0.9673,0.993,1.0032,1.0541,1.2424,1.3222,1.3738,1.4003,1.4334,1.4607,1.4346,1.5161,1.5822,1.5626,1.6292,1.6877,1.708,1.7112,1.7112,1.7112,1.7112,1.7112,1.7112,1.7112,1.7112,1.7112,1.7112,1.7112,1.7112,1.7112,1.7145,1.721,1.7494,1.7672,1.7746,1.803,1.8176,1.8176,1.8176,1.8176,1.8176,1.8176,1.8634,1.9276,1.8541,1.9006,2.0315,1.9905,1.9794,1.9793,2.0199,1.988,1.9355,2.0136,2.2662,2.5561,2.6431,2.886,3.1664,3.1664,3.1664,3.1664,3.1664,3.1664,3.1664,3.1664,3.1664,3.1664,3.1664,3.1664,3.1664,3.1664,3.1664,3.1664,3.1664,3.1664,3.1664,3.1664,3.1664,3.1664,3.1664,3.1664,3.1664,3.1664,3.1664,3.1664,3.1664,3.1664,3.1664,3.1664,3.1664,3.1664,3.1664,3.1664,3.1664,3.1664,3.1664,3.1664,3.1664,3.1664,3.1664,3.1664,3.1664,3.1664,3.1664,3.1664,3.1851,3.2321,3.3505,3.4297,0.8703,0.9178,0.9754,1.0093,1.0337,1.0994,1.2863,1.3949,1.4618,1.4795,1.4991,1.4896,1.4497,1.511,1.5709,1.5774,1.6385,1.6928,1.7112,1.7112,1.7112,1.7112,1.7112,1.7112,1.7112,1.7112,1.7112,1.7112,1.7112,1.7112,1.7112,1.7112,1.7112,1.7112,1.7453,1.764,1.764,1.7997,1.8176,1.8176,1.8176,1.8176,1.8176,1.8176,1.8176,1.8176,1.8176,1.8176,1.8208,1.8574,1.8697,1.8624,1.8962,1.896,1.8762,1.8762,2.0996,2.4095,2.4979,2.7492,3.0592,3.1474,3.1664,3.1664,3.1664,3.1664,3.1664,3.1664,3.1664,3.1664,3.1664,3.1664,3.1664,3.1664,3.1664,3.1664,3.1664,3.1664,3.1664,3.1664,3.1664,3.1664,3.1664,3.1664,3.1664,3.1664,3.1664,3.1664,3.1664,3.1664,3.1664,3.1664,3.1664,3.1664,3.1664,3.1664,3.1664,3.1664,3.1664,3.1664,3.1664,3.1664,3.1664,3.1664,3.1664,3.1664,3.1664,3.1664,3.1931,3.2509,3.3561,3.4367,0.9639,0.9713,1.0005,1.0751,1.0724,1.1035,1.2936,1.3457,1.3984,1.5748,1.5474,1.4823,1.4668,1.4379,1.4428,1.5162,1.5949,1.6577,1.7024,1.7112,1.7112,1.7112,1.7112,1.7112,1.7112,1.7112,1.7112,1.7112,1.7112,1.7112,1.7112,1.7112,1.7112,1.7112,1.7453,1.764,1.764,1.7997,1.8176,1.8176,1.8176,1.8176,1.8176,1.8176,1.8176,1.8176,1.8176,1.8176,1.8208,1.8574,1.864,1.8457,1.8457,1.816,1.7672,1.7672,1.9034,2.1174,2.3803,2.6034,2.826,3.0795,3.1677,3.1664,3.1664,3.1664,3.1664,3.1664,3.1664,3.1664,3.1664,3.1664,3.1664,3.1664,3.1664,3.1664,3.1664,3.1664,3.1664,3.1664,3.1664,3.1664,3.1664,3.1664,3.1664,3.1664,3.1664,3.1664,3.1664,3.1664,3.1664,3.1664,3.1664,3.1664,3.1664,3.1664,3.1664,3.1664,3.1664,3.1664,3.1664,3.1664,3.1664,3.1664,3.1664,3.1664,3.1664,3.1664,3.1824,3.2118,3.3464,3.4255,0.8859,0.9618,1.0497,1.0721,1.1684,1.2813,1.3784,1.3806,1.3909,1.5,1.474,1.4322,1.4149,1.4428,1.4805,1.478,1.57,1.6489,1.6577,1.6928,1.7112,1.7112,1.7112,1.7112,1.7112,1.7112,1.7112,1.7112,1.7112,1.7112,1.7112,1.7112,1.7112,1.7112,1.7453,1.764,1.764,1.7997,1.8176,1.8176,1.8176,1.8176,1.8176,1.8176,1.8176,1.8176,1.8176,1.8249,1.8395,1.8375,1.8458,1.8457,1.8061,1.7863,1.7672,1.7672,1.9034,2.088,2.1655,2.4473,2.7972,2.8752,3.021,3.1664,3.1664,3.1664,3.1664,3.1664,3.1664,3.1664,3.1664,3.1664,3.1664,3.1664,3.1664,3.1664,3.1664,3.1664,3.1664,3.1664,3.1664,3.1664,3.1664,3.1664,3.1664,3.1664,3.1664,3.1664,3.1664,3.1664,3.1664,3.1664,3.1664,3.1664,3.1664,3.1664,3.1664,3.1664,3.1664,3.1664,3.1664,3.1664,3.1664,3.1664,3.1664,3.1664,3.1664,3.1664,3.1931,3.2509,3.3561,3.4367,0.9815,1.0521,1.1268,1.1699,1.249,1.3376,1.4165,1.4429,1.4539,1.4851,1.4607,1.4309,1.4089,1.4298,1.4555,1.4735,1.5357,1.5961,1.6313,1.6665,1.6928,1.7112,1.7112,1.7112,1.7112,1.7112,1.7112,1.7112,1.7112,1.7112,1.7112,1.7112,1.7145,1.7218,1.7494,1.7681,1.7746,1.803,1.8176,1.8176,1.8176,1.8176,1.8176,1.8176,1.8176,1.8176,1.8269,1.8441,1.8543,1.8285,1.8678,1.924,1.7962,1.7764,1.8152,1.7367,1.7855,1.9117,2.0389,2.3209,2.6505,2.7684,2.9193,3.0488,3.0488,2.9855,2.9425,3.0273,3.0488,3.0691,3.146,3.1664,3.1664,3.1664,3.1664,3.1664,3.1664,3.1664,3.1664,3.1664,3.1664,3.1664,3.1664,3.1664,3.1664,3.1664,3.1664,3.1664,3.1664,3.1664,3.1664,3.1664,3.1664,3.1664,3.1664,3.1664,3.1664,3.1664,3.1664,3.1664,3.1664,3.1664,3.1664,3.1664,3.1664,3.1664,3.1664,3.1664,3.1971,3.2643,3.3408,3.4227,1.1579,1.1843,1.2088,1.3138,1.3251,1.3333,1.4116,1.5017,1.5521,1.4977,1.4764,1.4492,1.4339,1.4075,1.406,1.4861,1.4992,1.5344,1.6225,1.6401,1.6577,1.7024,1.7112,1.7112,1.7112,1.7112,1.7112,1.7112,1.7112,1.7112,1.7112,1.7112,1.7193,1.738,1.7551,1.7729,1.7916,1.8087,1.8168,1.8168,1.8075,1.8083,1.8083,1.8176,1.8176,1.8269,1.8395,1.8579,1.8632,1.8251,1.9151,2.0504,1.8046,1.7947,1.9018,1.7162,1.6275,1.6573,1.97,2.2037,2.4172,2.7203,2.826,2.8306,2.8318,2.7094,2.618,2.8057,2.8747,2.9317,3.1231,3.1664,3.1664,3.1664,3.1664,3.1664,3.1664,3.1664,3.1664,3.1664,3.1664,3.1664,3.1664,3.1664,3.1664,3.1664,3.1664,3.1664,3.1664,3.1664,3.1664,3.1664,3.1664,3.1664,3.1664,3.1664,3.1664,3.1664,3.1664,3.1664,3.1664,3.1664,3.1664,3.1664,3.1664,3.1664,3.1664,3.169,3.1984,3.2603,3.313,3.3947,1.0107,1.1056,1.2169,1.2818,1.3821,1.4649,1.4514,1.4836,1.4963,1.4405,1.4338,1.4312,1.4285,1.4245,1.4224,1.4462,1.4734,1.5175,1.5793,1.6137,1.6577,1.7024,1.7112,1.7112,1.7112,1.7112,1.7112,1.7112,1.7112,1.7112,1.7112,1.7112,1.7193,1.738,1.7551,1.7729,1.7916,1.7699,1.7592,1.7592,1.7219,1.704,1.704,1.7795,1.8269,1.8472,1.8576,1.8552,1.8304,1.7901,1.8706,2.0119,1.9125,1.892,1.9216,1.9216,1.7848,1.6573,1.9683,2.1049,2.1949,2.4678,2.586,2.6168,2.616,2.7021,2.8003,2.843,2.9804,3.1136,3.1555,3.1664,3.1664,3.1664,3.1664,3.1664,3.1664,3.1664,3.1664,3.1664,3.1664,3.1664,3.1664,3.1664,3.1664,3.1664,3.1664,3.1664,3.1664,3.1664,3.1664,3.1664,3.1664,3.1664,3.1664,3.1664,3.1664,3.1664,3.1664,3.1664,3.1664,3.1664,3.1664,3.1664,3.1664,3.1664,3.1664,3.1891,3.2078,3.2211,3.3252,3.403,1.0417,1.1355,1.2162,1.3219,1.3995,1.4529,1.4529,1.4597,1.4536,1.4285,1.4245,1.4299,1.4299,1.4299,1.4299,1.4299,1.4476,1.4822,1.5264,1.5793,1.6225,1.6665,1.6936,1.7112,1.7112,1.7112,1.7112,1.7112,1.6928,1.6753,1.6753,1.6575,1.6611,1.6783,1.6954,1.7217,1.7667,1.7258,1.7211,1.7421,1.6876,1.6696,1.6696,1.7227,1.7507,1.7647,1.792,1.79,1.7735,1.8501,1.9815,2.1379,2.088,2.0683,2.0576,1.988,1.8335,1.6786,1.8647,2.0175,2.1405,2.3101,2.3793,2.4028,2.3983,2.4751,2.581,2.6804,2.8584,3.0488,3.1447,3.1664,3.1664,3.1664,3.1664,3.1664,3.1664,3.1664,3.1664,3.1664,3.1664,3.1664,3.1664,3.1664,3.1664,3.1664,3.1664,3.1664,3.1664,3.1664,3.1664,3.1664,3.1664,3.1664,3.1664,3.1664,3.1664,3.1664,3.1664,3.1664,3.1664,3.1664,3.1664,3.1664,3.1664,3.1664,3.1664,3.1957,3.2171,3.2332,3.3067,3.3745,1.0675,1.1583,1.219,1.3633,1.388,1.393,1.4272,1.4343,1.4299,1.4299,1.4299,1.4299,1.4299,1.4299,1.4299,1.4299,1.4299,1.4476,1.4911,1.5352,1.5793,1.6313,1.6753,1.7024,1.7112,1.7112,1.7112,1.7024,1.6577,1.6401,1.6313,1.6009,1.5995,1.6189,1.6331,1.668,1.7242,1.6823,1.6737,1.7164,1.6718,1.6444,1.6444,1.6471,1.6558,1.6726,1.7059,1.7326,1.7749,1.9322,2.137,2.3433,2.3023,2.2633,2.2144,2.0478,1.8639,1.6999,1.7992,1.9593,2.1173,2.2079,2.2191,2.1907,2.1907,2.211,2.2868,2.496,2.7036,2.907,3.1149,3.1664,3.1664,3.1664,3.1664,3.1664,3.1664,3.1664,3.1664,3.1664,3.1664,3.1664,3.1664,3.1664,3.1664,3.1664,3.1664,3.1664,3.1664,3.1664,3.1664,3.1664,3.1664,3.1664,3.1664,3.1664,3.1664,3.1664,3.1664,3.1664,3.1664,3.1664,3.1664,3.1664,3.1664,3.1704,3.177,3.1944,3.2211,3.2656,3.2893,3.3458,0.8282,1.0181,1.225,1.3254,1.362,1.3844,1.3844,1.4082,1.4299,1.4299,1.4299,1.4299,1.4299,1.4299,1.4299,1.4299,1.4299,1.4476,1.4911,1.508,1.5433,1.6313,1.6489,1.6665,1.7024,1.7112,1.6928,1.6489,1.6401,1.6225,1.5793,1.5727,1.5876,1.6181,1.6211,1.6375,1.6767,1.6255,1.6061,1.6097,1.565,1.5375,1.5375,1.5368,1.5946,1.6943,1.7136,1.8083,1.9464,1.9813,2.2065,2.5173,2.5076,2.39,2.2349,2.2552,2.0179,1.7261,2.0077,2.0085,1.9322,2.1603,2.1201,1.9725,1.9725,2.0968,2.2827,2.4918,2.6961,2.9088,3.1189,3.1664,3.1664,3.1664,3.1664,3.1664,3.1664,3.1664,3.1664,3.1664,3.1664,3.1664,3.1664,3.1664,3.1664,3.1664,3.1664,3.1664,3.1664,3.1664,3.1664,3.1664,3.1664,3.1664,3.1664,3.1664,3.1664,3.1664,3.1664,3.1664,3.1664,3.1664,3.1664,3.1664,3.1664,3.1837,3.2171,3.1877,3.2011,3.2656,3.3106,3.3539,0.6869,0.9123,1.1283,1.1779,1.2855,1.3838,1.3838,1.4082,1.4299,1.4299,1.4299,1.4299,1.4299,1.4299,1.4299,1.4299,1.4299,1.4387,1.4557,1.4822,1.5256,1.5969,1.6225,1.6489,1.6665,1.6928,1.6761,1.6049,1.6049,1.583,1.5483,1.5212,1.5279,1.5505,1.559,1.5882,1.6213,1.5723,1.5528,1.5542,1.5275,1.5181,1.5181,1.5181,1.5566,1.6135,1.7547,1.8544,1.9594,2.2051,2.4008,2.5658,2.6743,2.5959,2.4018,2.3052,2.1111,1.9115,1.9314,1.9207,1.9157,2.0325,2.0038,1.9256,1.9256,2.1532,2.4351,2.5238,2.783,3.0535,3.1487,3.1664,3.1664,3.1664,3.1664,3.1664,3.1664,3.1664,3.1664,3.1664,3.1664,3.1664,3.1664,3.1664,3.1664,3.1664,3.1664,3.1664,3.1664,3.1664,3.1664,3.1664,3.1664,3.1664,3.1664,3.1664,3.1664,3.1664,3.1664,3.1664,3.1664,3.1664,3.1664,3.1664,3.1664,3.1864,3.2251,3.2078,3.2348,3.283,3.32,3.3447,0.5984,0.7942,0.9579,1.047,1.1901,1.3179,1.3711,1.4082,1.4299,1.4299,1.4299,1.4299,1.4299,1.4299,1.4299,1.4299,1.4299,1.4299,1.4299,1.4557,1.4999,1.5616,1.5873,1.6137,1.6401,1.6577,1.6409,1.5616,1.5528,1.5425,1.5047,1.4771,1.4733,1.4964,1.5038,1.5293,1.5751,1.5375,1.5181,1.5181,1.5181,1.5181,1.5181,1.5181,1.5235,1.5491,1.7692,1.915,2.0113,2.3845,2.5711,2.6357,2.7442,2.655,2.4397,2.2317,2.0905,1.9751,1.8259,1.8441,1.9256,1.9256,1.9256,1.9256,1.9256,2.1781,2.4861,2.5335,2.8081,3.0985,3.1569,3.1664,3.1664,3.1664,3.1664,3.1664,3.1664,3.1664,3.1664,3.1664,3.1664,3.1664,3.1664,3.1664,3.1664,3.1664,3.1664,3.1664,3.1664,3.1664,3.1664,3.1664,3.1664,3.1664,3.1664,3.1664,3.1664,3.1664,3.1664,3.1664,3.1664,3.1664,3.1664,3.1664,3.1664,3.181,3.2104,3.2398,3.2804,3.3098,3.328,3.3414,0.5587,0.6282,0.7084,0.9826,1.075,1.1511,1.3336,1.4082,1.4299,1.4299,1.4299,1.4299,1.4299,1.4299,1.4299,1.4299,1.4299,1.4299,1.4299,1.4299,1.4653,1.5616,1.5352,1.5433,1.6313,1.6049,1.5528,1.508,1.508,1.4886,1.4592,1.4394,1.4523,1.4957,1.4835,1.4896,1.5275,1.5181,1.5181,1.5181,1.5181,1.5181,1.5181,1.5181,1.5296,1.5486,1.7527,1.9785,2.2143,2.4269,2.6444,2.8224,2.6357,2.4386,2.2242,2.0094,1.8746,1.787,1.7771,1.8366,1.9256,1.9256,1.9256,1.9256,1.9256,2.0817,2.2926,2.4949,2.7026,2.9243,3.1189,3.1664,3.1664,3.1664,3.1664,3.1664,3.1664,3.1664,3.1664,3.1664,3.1664,3.1664,3.1664,3.1664,3.1664,3.1664,3.1664,3.1664,3.1664,3.1664,3.1664,3.1664,3.1664,3.1664,3.1664,3.1664,3.1664,3.1664,3.1664,3.1664,3.1664,3.1664,3.1664,3.1664,3.1664,3.1677,3.1704,3.2812,3.336,3.3387,3.34,3.3414,0.3921,0.4715,0.5422,0.6549,0.8798,1.0969,1.177,1.3082,1.4183,1.4278,1.4299,1.4299,1.4299,1.4299,1.4299,1.4299,1.4299,1.4299,1.4299,1.4299,1.4564,1.5175,1.5087,1.5168,1.5433,1.5616,1.5352,1.4653,1.4914,1.4944,1.4652,1.4706,1.4848,1.5099,1.5052,1.5072,1.5181,1.5181,1.5181,1.5181,1.5181,1.5181,1.5187,1.5282,1.5384,1.5575,1.9042,2.1115,2.2249,2.4511,2.5882,2.6357,2.4289,2.3023,2.2047,2.0397,1.9725,1.9528,1.8556,1.8663,1.9256,1.9256,1.9256,1.9256,1.9256,2.0718,2.2554,2.3296,2.6012,2.8752,2.9529,3.07,3.1664,3.1664,3.1664,3.1717,3.1904,3.1797,3.1664,3.1664,3.1664,3.1664,3.1664,3.1664,3.1664,3.1664,3.1664,3.1664,3.1664,3.1664,3.1664,3.1664,3.1664,3.1664,3.1664,3.1664,3.1664,3.1664,3.1664,3.1664,3.1664,3.1664,3.1664,3.1664,3.1664,3.1851,3.2238,3.2652,3.3053,3.3414,3.3414,3.3414,0.3097,0.3644,0.4284,0.4683,0.6731,0.9128,1.0581,1.2037,1.3324,1.4116,1.4299,1.4299,1.4299,1.4299,1.4299,1.4299,1.4299,1.4299,1.4299,1.4299,1.4476,1.4911,1.4822,1.4822,1.4992,1.5175,1.5006,1.4387,1.4702,1.4847,1.4733,1.4835,1.4957,1.5106,1.516,1.5181,1.5181,1.5235,1.5235,1.5181,1.5289,1.5309,1.5262,1.5418,1.5506,1.5725,1.995,2.1905,2.2249,2.4414,2.5399,2.5173,2.234,2.1263,2.1067,1.9322,1.9034,1.933,1.8548,1.8556,1.9058,1.9256,1.9256,1.9256,1.9256,2.0718,2.2368,2.2368,2.5367,2.856,2.856,3.0179,3.181,3.181,3.1891,3.1984,3.2078,3.1877,3.1704,3.1797,3.173,3.1664,3.1664,3.1664,3.1664,3.1664,3.1664,3.1664,3.1664,3.1664,3.1664,3.1664,3.1664,3.1664,3.1664,3.1664,3.1664,3.1664,2.9051,2.8764,3.1569,3.1664,3.1664,3.1664,3.1664,3.1864,3.2251,3.2639,3.304,3.3414,3.3414,3.3414,0.0,0.0,0.0,0.4437,0.4716,0.5854,0.9907,1.0953,1.1696,1.3774,1.4265,1.4278,1.4299,1.4299,1.4299,1.4299,1.4299,1.4299,1.4299,1.4299,1.4476,1.4911,1.4557,1.4476,1.4911,1.4557,1.4299,1.4299,1.4434,1.4584,1.4733,1.4746,1.4821,1.497,1.5113,1.5181,1.5181,1.5337,1.5337,1.5187,1.5486,1.5554,1.5411,1.5567,1.5635,1.5828,2.0132,2.2047,2.2143,2.4162,2.5163,2.4882,2.0782,1.9117,1.8821,1.6864,1.6474,1.697,1.7566,1.8061,1.8556,1.9157,1.9256,1.9256,1.9256,2.0718,2.227,2.227,2.527,2.856,2.8668,3.0427,3.2104,3.2118,3.2332,3.2465,3.2185,3.1891,3.1757,3.2038,3.1864,3.1664,3.1664,3.1664,3.1664,3.1664,3.1474,3.1379,3.1379,3.1569,3.1664,3.1664,3.1664,3.1664,3.1664,3.1664,3.1664,3.1664,2.392,2.2945,3.0985,3.1569,3.1664,3.1664,3.1664,3.1664,3.1677,3.2839,3.3414,3.3414,3.3414,3.3414,0.5222,0.0,0.0,0.0,0.0,0.0,0.7238,0.9024,1.0863,1.2749,1.3424,1.3783,1.4217,1.4299,1.4299,1.4299,1.4299,1.4299,1.4299,1.4299,1.4387,1.4476,1.4387,1.4387,1.4476,1.4387,1.4299,1.4299,1.4536,1.4699,1.474,1.4943,1.5079,1.512,1.516,1.5181,1.5181,1.5337,1.5337,1.5181,1.5377,1.5391,1.5255,1.552,1.5581,1.5588,1.8664,1.9941,2.0016,2.2189,2.2195,2.0683,1.8038,1.6963,1.6963,1.6772,1.6772,1.707,1.7962,1.8358,1.8556,1.9157,1.9256,1.9256,1.9256,1.975,2.0136,2.0136,2.3141,2.7056,3.026,3.1653,3.2158,3.2372,3.2372,3.2412,3.2679,3.2171,3.169,3.177,3.1717,3.1664,3.1664,3.1664,3.1664,3.1664,2.6624,2.275,2.275,2.7984,3.1664,3.1664,3.1664,3.1664,3.1664,3.1664,3.1664,3.1664,2.392,2.0333,2.2662,2.8464,3.1664,3.1664,3.1664,3.1664,3.1677,3.2839,3.3414,3.3414,3.3414,3.3414,0.6278,0.5144,0.3875,0.3465,0.0,0.0,0.6562,0.8181,0.9956,1.2787,1.3593,1.3885,1.4238,1.4299,1.4299,1.4299,1.4299,1.4299,1.4299,1.4299,1.4299,1.4299,1.4299,1.4299,1.4299,1.4299,1.4299,1.4299,1.4516,1.4699,1.4828,1.4997,1.512,1.5181,1.5181,1.5215,1.5276,1.5432,1.5432,1.5282,1.556,1.5581,1.5384,1.5683,1.5778,1.58,1.8203,1.8667,1.7999,2.0149,2.029,1.9018,1.6864,1.6083,1.6182,1.6474,1.6573,1.6672,1.7566,1.7962,1.8259,1.8754,1.9157,1.9256,1.9256,1.9256,1.9256,1.9256,2.2327,2.6621,3.0979,3.2291,3.2505,3.2639,3.2706,3.2812,3.3093,3.2759,3.2345,3.2185,3.1891,3.1664,3.1664,3.1664,3.1664,3.1664,2.4591,2.0522,2.4018,2.8656,3.1664,3.1664,3.1664,3.1664,3.1664,3.1664,3.021,2.6721,2.1977,2.0817,2.43,2.9147,3.1664,3.1664,3.1664,3.1664,3.1664,3.2358,3.2933,3.3314,2.9623,2.9927,0.6986,0.6034,0.5108,0.4199,0.2918,0.0,0.6847,0.7761,0.8847,1.2803,1.3732,1.3871,1.3939,1.3966,1.3973,1.3953,1.4061,1.4183,1.4285,1.4299,1.4299,1.4299,1.4299,1.4299,1.4299,1.4299,1.4299,1.4299,1.4434,1.4638,1.493,1.4964,1.5031,1.5153,1.5174,1.5255,1.5411,1.556,1.5567,1.5438,1.5859,1.5913,1.5649,1.5927,1.6056,1.6155,1.8031,1.7848,1.6275,1.8038,1.8821,1.8631,1.6864,1.6083,1.6083,1.6083,1.6083,1.6182,1.6672,1.7268,1.7771,1.8358,1.8853,1.9256,1.9256,1.9272,1.9388,1.9899,2.2844,2.6811,3.1095,3.2545,3.2893,3.2893,3.316,3.3387,3.3334,3.3267,3.3146,3.2933,3.2225,3.1664,3.1664,3.1664,3.1664,3.1664,2.5367,2.3336,3.0795,3.1664,3.1664,3.1664,3.1664,3.1664,3.1664,3.1664,2.8176,1.9849,1.9256,2.3043,3.1379,3.1664,3.1664,3.1664,3.1664,3.1664,3.1664,3.1664,3.2265,3.32,2.544,2.5943,0.8131,0.7564,0.6762,0.6358,0.4837,0.0,0.5123,0.5739,0.6671,0.8781,1.0197,1.1212,1.1687,1.1877,1.1918,1.1796,1.2589,1.3471,1.4197,1.4299,1.4299,1.4299,1.4299,1.4299,1.4299,1.4299,1.4299,1.4299,1.4434,1.459,1.4774,1.4903,1.4984,1.5011,1.512,1.5255,1.5411,1.556,1.5622,1.5594,1.5798,1.5805,1.5642,1.5818,1.59,1.6005,1.6517,1.6474,1.6083,1.6573,1.6672,1.6672,1.6282,1.6083,1.6083,1.6083,1.6083,1.6182,1.6672,1.7268,1.7771,1.8358,1.8853,1.9256,1.9256,1.9354,2.0183,2.3809,2.5246,2.6791,3.1586,3.2599,3.2545,3.316,3.336,3.328,3.2812,3.2345,3.2265,3.3133,3.2412,3.1664,3.1664,3.1664,3.1664,3.1664,3.0306,2.9829,3.1474,3.1664,3.1664,3.1664,3.1664,3.1664,3.1664,3.1664,2.8176,1.9849,1.9256,2.3043,3.1379,3.1664,3.1664,3.1664,3.1664,3.1664,3.1664,3.1664,3.2265,3.3414,3.1668,3.1768,0.7613,0.7155,0.6528,0.7204,0.5922,0.0,0.0,0.6431,0.6813,0.9371,0.9915,1.0248,1.1237,1.1328,1.1274,1.1274,1.2162,1.2847,1.2847,1.3688,1.4299,1.4299,1.4299,1.4299,1.4299,1.4299,1.4299,1.4299,1.4367,1.4502,1.4726,1.4814,1.4923,1.5072,1.5147,1.5296,1.552,1.5601,1.5676,1.575,1.59,1.5886,1.575,1.59,1.5967,1.5967,1.6049,1.6083,1.6083,1.6083,1.6083,1.6083,1.6083,1.6083,1.6083,1.6083,1.6083,1.6182,1.6374,1.707,1.7771,1.7962,1.8663,1.9272,1.9362,1.9508,2.0544,2.4714,2.5904,2.7012,3.1405,3.2545,3.2612,3.2906,3.32,3.3173,3.2291,3.1877,3.1837,3.2425,2.9049,2.7455,3.1835,3.2532,3.2345,3.1757,3.1664,3.1664,3.1664,3.1664,3.1664,3.1664,2.7984,2.7203,3.1379,3.1664,2.8176,1.9849,1.9256,2.3043,3.1379,3.1664,3.1664,3.1664,3.2238,3.2826,3.3427,3.3427,3.3427,3.3414,3.3414,3.3414,0.6985,0.6821,0.6622,0.78,0.6925,0.6246,0.0,0.0,0.0,1.0251,1.0021,0.9641,1.0678,1.0751,1.0636,1.0731,1.1545,1.1904,1.1151,1.2576,1.3709,1.3736,1.4068,1.4231,1.4061,1.4014,1.4082,1.4285,1.4116,1.4204,1.4672,1.4726,1.4862,1.5133,1.5167,1.533,1.5635,1.5642,1.5723,1.59,1.6022,1.6015,1.59,1.6029,1.6083,1.6083,1.6083,1.6083,1.6083,1.6083,1.6083,1.6083,1.6083,1.6083,1.6083,1.6083,1.6083,1.6083,1.6083,1.6779,1.7672,1.7702,1.8535,1.9394,1.9565,1.9727,2.0612,2.4227,2.567,2.7036,3.0738,3.2133,3.2599,3.2559,3.2812,3.2812,3.1877,3.1664,3.1664,3.1664,2.6926,2.5132,3.2183,3.3414,3.3013,3.1837,3.1664,3.1664,3.1664,3.1664,3.1664,3.1664,2.43,2.2662,3.0985,3.021,2.6431,1.975,1.9256,2.227,2.9051,3.1099,3.2118,3.2345,3.328,3.4229,3.5191,3.5191,3.4576,3.3414,3.3414,3.3414,0.7572,0.8771,0.9601,0.916,0.8349,0.748,0.7035,0.0,0.6892,0.7191,0.0,0.8248,0.8386,0.0,0.0,0.8386,0.9395,1.0073,0.9842,1.0799,1.1572,1.1708,1.3247,1.3987,1.3193,1.299,1.3295,1.4231,1.3437,1.3383,1.4482,1.4665,1.4821,1.4991,1.512,1.533,1.5635,1.5642,1.5778,1.6056,1.6076,1.6076,1.6056,1.6076,1.6083,1.6083,1.6083,1.6083,1.6083,1.6083,1.6083,1.6083,1.6083,1.6083,1.6083,1.6083,1.6083,1.6083,1.6083,1.6779,1.7695,1.7829,1.8683,1.9768,1.9946,2.002,2.0533,2.2923,2.481,2.6705,2.9399,3.0958,3.1931,3.2522,3.2198,3.1837,3.1704,3.1664,3.1664,3.1664,3.1816,3.2183,3.3213,3.3414,3.3013,3.1837,3.1664,3.1664,3.1664,3.1664,3.1664,3.1664,2.43,2.2662,3.0985,2.4979,2.0333,1.9355,1.9256,1.975,2.0718,2.876,3.3708,3.4776,3.4923,3.5057,3.5191,3.5191,3.4576,3.3414,3.3414,3.3414,0.6813,0.7379,0.7948,0.836,0.8054,0.7796,0.8156,0.7584,0.7187,0.7857,0.0,0.0,0.0,0.0,0.0,0.0,0.9028,0.9496,0.8913,1.0181,1.1185,1.1253,1.1979,1.2569,1.2807,1.2922,1.3349,1.4231,1.3485,1.3471,1.4584,1.4706,1.4848,1.5086,1.5153,1.533,1.5635,1.5642,1.5791,1.6083,1.6083,1.6083,1.6083,1.6083,1.6083,1.6083,1.6083,1.6083,1.6083,1.6083,1.6083,1.6083,1.6083,1.6083,1.6083,1.6083,1.6083,1.6083,1.6083,1.6636,1.7436,1.8303,1.919,1.9963,2.0044,2.0133,2.0596,2.2626,2.3837,2.486,2.7026,2.9947,3.2345,3.2372,3.2011,3.1664,3.1664,3.1664,3.1664,3.1664,3.2612,3.3414,3.3414,3.3414,3.324,3.2759,3.2679,3.2679,3.2679,3.2679,3.2679,3.2679,2.9576,2.8871,3.2385,2.891,2.4397,1.9651,1.9646,1.9873,1.9873,2.926,3.4683,3.5191,3.5191,3.5191,3.5191,3.5191,3.4937,3.4429,3.3734,3.3414,0.7292,0.7442,0.7859,0.8204,0.8193,0.8204,0.8557,0.8134,0.7804,0.8306,0.7888,0.0,0.0,0.0,0.8296,0.8323,0.0,0.9042,0.8309,0.9422,1.0324,1.0429,1.0622,1.1192,1.2203,1.2311,1.2752,1.379,1.3173,1.3329,1.4665,1.474,1.4875,1.5174,1.5181,1.533,1.5635,1.5642,1.5791,1.6083,1.6083,1.6083,1.6083,1.6083,1.6083,1.6083,1.6083,1.6083,1.6083,1.6083,1.6083,1.6083,1.6083,1.6474,1.6864,1.6282,1.6083,1.609,1.613,1.6769,1.7763,1.9402,2.0081,2.0237,2.0848,2.0629,2.0384,2.1945,2.2589,2.3358,2.491,2.7824,3.0577,3.1214,3.1741,3.1864,3.1704,3.1664,3.1077,2.8934,2.9212,3.0546,3.3,3.3414,3.3414,3.3414,3.3414,3.3414,3.3414,3.3414,3.3414,3.3414,3.3414,3.3414,3.3414,3.0428,2.6058,2.0231,2.0328,2.0612,2.0612,3.0048,3.5191,3.5191,3.5191,3.5191,3.5191,3.5191,3.5191,3.5177,3.4309,3.3895,1.002,1.081,1.1534,0.9781,0.9566,0.9189,0.7246,0.8005,0.8758,0.7443,0.8183,0.9083,0.8892,0.8858,0.8811,0.852,0.8499,0.0,0.0,0.8049,0.8194,0.8343,0.9252,1.0222,1.1193,1.0633,1.0887,0.0,1.2088,1.2569,1.4631,1.474,1.4875,1.5174,1.5181,1.533,1.5635,1.5642,1.5791,1.6083,1.6083,1.6083,1.6083,1.6083,1.6083,1.6083,1.6083,1.6083,1.6083,1.6083,1.6083,1.6083,1.6083,1.7353,1.8821,1.6864,1.6083,1.6103,1.6252,1.7203,1.88,2.1549,2.1483,2.072,2.2883,2.1648,1.9662,2.0117,2.1268,2.246,2.3174,2.3837,2.5164,2.8403,3.0926,3.2358,3.1797,3.1664,2.9551,2.2083,2.0712,2.339,3.1969,3.3414,3.3414,3.3414,3.3414,3.3414,3.3414,3.3414,3.3414,3.3414,3.3414,3.3414,3.3414,2.5615,2.0888,2.1278,2.1343,2.1343,2.1343,3.0312,3.5191,3.5191,3.5191,3.5191,3.5191,3.5191,3.5191,3.5191,3.5151,3.5137,1.1213,1.1223,1.1324,0.9847,0.9411,0.924,0.8611,0.8907,0.9118,0.8425,0.8848,0.9232,0.8925,0.8885,0.8838,0.8533,0.8479,0.8377,0.0,0.7988,0.8008,0.8113,0.9042,0.9492,0.9149,1.0306,0.0,0.0,1.2285,0.0,1.4665,1.474,1.4875,1.5174,1.5282,1.5432,1.5635,1.5737,1.5879,1.6083,1.6083,1.6083,1.6083,1.6083,1.6083,1.6083,1.6083,1.6083,1.6083,1.6083,1.6083,1.6083,1.6083,1.6573,1.7062,1.6374,1.7035,1.8151,1.6918,1.7387,1.8528,1.9552,2.0047,2.0424,2.1145,2.0729,2.0103,2.0143,2.0638,2.1346,2.3091,2.3586,2.4777,2.858,2.9888,3.0677,3.2142,3.2639,3.203,2.9451,2.4319,2.1241,2.4206,2.9522,3.3414,3.3414,3.3414,3.3414,3.3414,3.3414,3.3414,3.3414,3.3414,3.3414,3.3414,2.5338,2.0621,2.1343,2.1384,2.4191,3.0228,3.3578,3.5191,3.5191,3.5191,3.5191,3.5191,2.9048,2.6028,2.6028,2.6028,2.9359,1.2829,1.2537,1.2314,1.0963,1.0586,1.0335,0.9493,0.9764,0.9901,0.923,0.9007,0.9191,1.0009,0.9221,0.859,0.9067,0.8797,0.8447,0.0,0.7988,0.7988,0.7988,0.8581,0.8907,0.861,0.9343,0.0,0.0,0.0,0.0,0.0,1.474,1.4875,1.5174,1.533,1.5486,1.5635,1.5784,1.5934,1.6083,1.6083,1.6083,1.6083,1.6083,1.6083,1.6083,1.6083,1.6083,1.6083,1.6083,1.6083,1.6083,1.6083,1.6573,1.7062,1.6374,1.7099,1.8217,1.7071,1.73,1.8403,1.9431,1.9887,2.0111,2.0929,2.0625,2.0007,2.0007,2.0007,2.0424,2.1968,2.2477,2.3372,2.7097,2.8505,2.9272,2.9751,3.1001,3.1794,3.1336,2.5336,2.032,2.032,2.7578,3.3414,3.3414,3.3414,3.3414,3.3414,3.3414,3.3414,3.3414,3.3414,3.3587,3.4002,2.5815,2.0897,2.136,2.4518,2.893,3.498,3.5191,3.5191,3.5191,3.5191,3.5191,3.5191,2.592,2.1384,2.1384,2.1636,2.4956]}]]